[[{"header":{"parameterUnit":"m.s-1","parameterCategory":1,"la1":31.0,"la2":29.5877,"lo1":-88.7671,"lo2":-86.6584,"dy":0.0162,"dx":0.0185,"nx":115,"ny":88,"refTime":"2023-03-13T06:00:00:Z","depth":0,"parameterNumber":2,"parameterNumberName":"U-component_of_WINDS"},"data":[0.0,0.0,0.0,0.0,0.0,0.0,0.0,0.0,0.0,0.0,0.0,0.0,0.0,0.0,0.0,0.0,0.0,0.0,0.0,0.0,0.0,0.0,0.0,0.0,0.0,0.0,0.0,0.0,0.0,0.0,0.0,0.0,0.0,0.0,0.0,0.0,0.0,0.0,0.0,0.0,0.0,0.0,0.0,0.0,0.0,0.0,0.0,0.0,0.0,0.0,0.0,0.0,0.0,0.0,0.0,0.0,0.0,0.0,0.0,0.0,0.0,0.0,0.0,0.0,0.0,0.0,0.0,0.0,0.0,0.0,0.0,0.0,0.0,0.0,0.0,0.0,0.0,0.0,0.0,0.0,0.0,0.0,0.0,0.0,0.0,0.0,0.0,0.0,0.0,0.0,0.0,0.0,0.0,0.0,0.0,0.0,0.0,0.0,0.0,0.0,0.0,0.0,0.0,0.0,0.0,0.0,0.0,0.0,0.0,0.0,0.0,0.0,0.0,0.0,0.0,0.0,0.0,0.0,0.0,0.0,0.0,0.0,0.0,0.0,0.0,0.0,0.0,0.0,0.0,0.0,0.0,0.0,0.0,0.0,0.0,0.0,0.0,0.0,0.0,0.0,0.0,0.0,0.0,0.0,0.0,0.0,0.0,0.0,0.0,0.0,0.0,0.0,0.0,0.0,0.0,0.0,0.0,0.0,0.0,0.0,0.0,0.0,0.0,0.0,0.0,0.0,0.0,0.0,0.0,0.0,0.0,0.0,0.0,0.0,0.0,0.0,0.0,0.0,0.0,0.0,0.0,0.0,0.0,0.0,0.0,0.0,0.0,0.0,0.0,0.0,0.0,0.0,0.0,0.0,0.0,0.0,0.0,0.0,0.0,0.0,0.0,0.0,0.0,0.0,0.0,0.0,0.0,0.0,0.0,0.0,0.0,0.0,0.0,0.0,0.0,0.0,0.0,0.0,0.0,0.0,0.0,0.0,0.0,0.0,0.0,0.0,0.0,0.0,0.0,0.0,0.0,0.0,0.0,0.0,0.0,0.0,0.0,0.0,0.0,0.0,0.0,0.0,0.0,0.0,0.0,0.0,0.0,0.0,0.0,0.0,0.0,0.0,0.0,0.0,0.0,0.0,0.0,0.0,0.0,0.0,0.0,0.0,0.0,0.0,0.0,0.0,0.0,0.0,0.0,0.0,0.0,0.0,0.0,0.0,0.0,0.0,0.0,0.0,0.0,0.0,0.0,0.0,0.0,0.0,0.0,0.0,0.0,0.0,0.0,0.0,0.0,0.0,0.0,0.0,0.0,0.0,0.0,0.0,0.0,0.0,0.0,0.0,0.0,0.0,0.0,0.0,0.0,0.0,0.0,0.0,0.0,0.0,0.0,0.0,0.0,0.0,0.0,0.0,0.0,0.0,0.0,0.0,0.0,0.0,0.0,0.0,0.0,0.0,0.0,0.0,0.0,0.0,0.0,0.0,0.0,0.0,0.0,0.0,0.0,0.0,0.0,0.0,0.0,0.0,0.0,0.0,0.0,0.0,0.0,0.0,0.0,0.0,0.0,0.0,0.0,0.0,0.0,0.0,0.0,0.0,0.0,0.0,0.0,0.0,0.0,0.0,0.0,0.0,0.0,0.0,0.0,0.0,0.0,0.0,0.0,0.0,0.0,0.0,0.0,0.0,0.0,0.0,0.0,0.0,0.0,0.0,0.0,0.0,0.0,0.0,0.0,0.0,0.0,0.0,0.0,0.0,0.0,0.0,0.0,0.0,0.0,0.0,0.0,0.0,0.0,0.0,0.0,0.0,0.0,0.0,0.0,0.0,0.0,0.0,0.0,0.0,0.0,0.0,0.0,0.0,0.0,0.0,0.0,0.0,0.0,0.0,0.0,0.0,0.0,0.0,0.0,0.0,0.0,0.0,0.0,0.0,0.0,0.0,0.0,0.0,0.0,0.0,0.0,0.0,0.0,0.0,0.0,0.0,0.0,0.0,0.0,0.0,0.0,0.0,0.0,0.0,0.0,0.0,0.0,0.0,0.0,0.0,0.0,0.0,0.0,0.0,0.0,0.0,0.0,0.0,0.0,0.0,0.0,0.0,0.0,0.0,0.0,0.0,0.0,0.0,0.0,0.0,0.0,0.0,0.0,0.0,0.0,0.0,0.0,0.0,0.0,0.0,0.0,0.0,0.0,0.0,0.0,0.0,0.0,0.0,0.0,0.0,0.0,0.0,0.0,0.0,0.0,0.0,0.0,0.0,0.0,0.0,0.0,0.0,0.0,0.0,0.0,0.0,0.0,0.0,0.0,0.0,0.0,0.0,0.0,0.0,0.0,0.0,0.0,0.0,0.0,0.0,0.0,0.0,0.0,0.0,0.0,0.0,0.0,0.0,0.0,0.0,0.0,0.0,0.0,0.0,0.0,0.0,0.0,0.0,0.0,0.0,0.0,0.0,0.0,0.0,0.0,0.0,0.0,0.0,0.0,0.0,0.0,0.0,0.0,0.0,0.0,0.0,0.0,0.0,0.0,0.0,0.0,0.0,0.0,0.0,0.0,0.0,0.0,0.0,0.0,0.0,0.0,0.0,0.0,0.0,0.0,0.0,0.0,0.0,0.0,0.0,0.0,0.0,0.0,0.0,0.0,0.0,0.0,0.0,0.0,0.0,0.0,0.0,0.0,0.0,0.0,0.0,0.0,0.0,0.0,0.0,0.0,0.0,0.0,0.0,0.0,0.0,0.0,0.0,0.0,0.0,0.0,0.0,0.0,0.0,0.0,0.0,0.0,0.0,0.0,0.0,0.0,0.0,0.0,0.0,0.0,0.0,0.0,0.0,0.0,0.0,0.0,0.0,0.0,0.0,0.0,0.0,0.0,0.0,0.0,0.0,0.0,0.0,0.0,0.0,0.0,0.0,0.0,0.0,0.0,0.0,0.0,0.0,0.0,0.0,0.0,0.0,0.0,0.0,0.0,0.0,0.0,0.0,0.0,0.0,0.0,0.0,0.0,0.0,0.0,0.0,0.0,0.0,0.0,0.0,0.0,0.0,0.0,0.0,0.0,0.0,0.0,0.0,0.0,0.0,0.0,0.0,0.0,0.0,0.0,0.0,0.0,0.0,0.0,0.0,0.0,0.0,0.0,0.0,0.0,0.0,0.0,0.0,0.0,0.0,0.0,0.0,0.0,0.0,0.0,0.0,0.0,0.0,0.0,0.0,0.0,0.0,0.0,0.0,0.0,0.0,0.0,0.0,0.0,0.0,0.0,0.0,0.0,0.0,0.0,0.0,0.0,0.0,0.0,0.0,0.0,0.0,0.0,0.0,0.0,0.0,0.0,0.0,0.0,0.0,0.0,0.0,0.0,0.0,0.0,0.0,0.0,0.0,0.0,0.0,0.0,0.0,0.0,0.0,0.0,0.0,0.0,0.0,0.0,0.0,0.0,0.0,0.0,0.0,0.0,0.0,0.0,0.0,0.0,0.0,0.0,0.0,0.0,0.0,0.0,0.0,0.0,0.0,0.0,0.0,0.0,0.0,0.0,0.0,0.0,0.0,0.0,0.0,0.0,0.0,0.0,0.0,0.0,0.0,0.0,0.0,0.0,0.0,0.0,0.0,0.0,0.0,0.0,0.0,0.0,0.0,0.0,0.0,0.0,0.0,0.0,0.0,0.0,0.0,0.0,0.0,0.0,0.0,0.0,0.0,0.0,0.0,0.0,0.0,0.0,0.0,0.0,0.0,0.0,0.0,0.0,0.0,0.0,0.0,0.0,0.0,0.0,0.0,0.0,0.0,0.0,0.0,0.0,0.0,0.0,0.0,0.0,0.0,0.0,0.0,0.0,0.0,0.0,0.0,0.0,0.0,0.0,0.0,0.0,0.0,0.0,0.0,0.0,0.0,0.0,0.0,0.0,0.0,0.0,0.0,0.0,0.0,0.0,0.0,0.0,0.0,0.0,0.0,0.0,0.0,0.0,0.0,0.0,0.0,0.0,0.0,0.0,0.0,0.0,0.0,0.0,0.0,0.0,0.0,0.0,0.0,0.0,0.0,0.0,0.0,0.0,0.0,0.0,0.0,0.0,0.0,0.0,0.0,0.0,0.0,0.0,0.0,0.0,0.0,0.0,0.0,0.0,0.0,0.0,0.0,0.0,0.0,0.0,0.0,0.0,0.0,0.0,0.0,0.0,0.0,0.0,0.0,0.0,0.0,0.0,0.0,0.0,0.0,0.0,0.0,0.0,0.0,0.0,0.0,0.0,0.0,-6.0335,0.0,0.0,0.0,-6.2087,0.0,0.0,0.0,0.0,0.0,0.0,0.0,0.0,0.0,0.0,0.0,0.0,0.0,0.0,0.0,0.0,0.0,0.0,0.0,0.0,0.0,0.0,0.0,0.0,0.0,0.0,0.0,0.0,0.0,0.0,0.0,0.0,0.0,0.0,0.0,0.0,0.0,0.0,0.0,0.0,0.0,0.0,0.0,0.0,0.0,0.0,0.0,0.0,0.0,0.0,0.0,0.0,0.0,0.0,0.0,0.0,0.0,0.0,0.0,0.0,0.0,0.0,0.0,0.0,0.0,0.0,0.0,0.0,0.0,0.0,0.0,0.0,0.0,0.0,0.0,0.0,0.0,0.0,0.0,0.0,0.0,0.0,0.0,0.0,0.0,0.0,0.0,0.0,0.0,0.0,0.0,0.0,0.0,0.0,0.0,0.0,0.0,0.0,0.0,0.0,0.0,0.0,0.0,0.0,0.0,0.0,0.0,0.0,0.0,0.0,-6.0789,-6.0716,-6.0446,-6.0598,-6.1219,0.0,0.0,0.0,0.0,0.0,0.0,0.0,0.0,0.0,0.0,0.0,0.0,0.0,0.0,0.0,0.0,0.0,0.0,0.0,0.0,0.0,0.0,0.0,0.0,0.0,0.0,0.0,0.0,0.0,0.0,0.0,0.0,0.0,0.0,0.0,0.0,0.0,0.0,0.0,0.0,0.0,0.0,0.0,0.0,0.0,0.0,0.0,0.0,0.0,0.0,0.0,0.0,0.0,0.0,0.0,0.0,0.0,0.0,0.0,0.0,0.0,0.0,0.0,0.0,0.0,0.0,0.0,0.0,0.0,0.0,0.0,0.0,0.0,0.0,0.0,0.0,0.0,0.0,0.0,0.0,0.0,0.0,0.0,0.0,0.0,0.0,0.0,0.0,0.0,0.0,0.0,0.0,0.0,0.0,0.0,0.0,0.0,0.0,0.0,0.0,0.0,0.0,0.0,0.0,0.0,0.0,0.0,0.0,0.0,0.0,0.0,0.0,-6.1094,-6.096,-6.0152,0.0,0.0,0.0,0.0,0.0,0.0,0.0,0.0,0.0,0.0,0.0,0.0,0.0,0.0,0.0,0.0,0.0,0.0,0.0,0.0,0.0,0.0,0.0,0.0,0.0,0.0,0.0,0.0,0.0,0.0,0.0,0.0,0.0,0.0,0.0,0.0,0.0,0.0,0.0,0.0,0.0,0.0,0.0,0.0,0.0,0.0,0.0,0.0,0.0,0.0,0.0,0.0,0.0,0.0,0.0,0.0,0.0,0.0,0.0,0.0,0.0,0.0,0.0,0.0,0.0,0.0,0.0,0.0,0.0,0.0,0.0,0.0,0.0,0.0,0.0,0.0,0.0,0.0,0.0,0.0,0.0,0.0,0.0,0.0,0.0,0.0,0.0,0.0,0.0,0.0,0.0,0.0,0.0,0.0,0.0,0.0,0.0,0.0,0.0,0.0,0.0,0.0,0.0,0.0,0.0,0.0,0.0,0.0,0.0,0.0,-6.2295,-6.2178,-6.1612,0.0,-6.0186,0.0,0.0,0.0,0.0,0.0,0.0,0.0,0.0,0.0,0.0,0.0,0.0,0.0,0.0,0.0,0.0,0.0,0.0,0.0,0.0,0.0,0.0,0.0,0.0,0.0,0.0,0.0,0.0,0.0,0.0,0.0,0.0,0.0,0.0,0.0,0.0,0.0,0.0,0.0,0.0,0.0,0.0,0.0,0.0,0.0,0.0,0.0,0.0,0.0,0.0,0.0,0.0,0.0,0.0,0.0,0.0,0.0,0.0,0.0,0.0,0.0,0.0,0.0,0.0,0.0,0.0,0.0,0.0,0.0,0.0,0.0,0.0,0.0,0.0,0.0,0.0,0.0,0.0,0.0,0.0,0.0,0.0,0.0,0.0,0.0,0.0,0.0,0.0,0.0,0.0,0.0,0.0,0.0,0.0,0.0,0.0,0.0,0.0,0.0,0.0,0.0,0.0,0.0,0.0,0.0,0.0,0.0,0.0,0.0,0.0,-6.2415,-6.2415,-6.211,-6.1772,0.0,0.0,0.0,0.0,0.0,0.0,0.0,0.0,0.0,0.0,0.0,0.0,0.0,0.0,0.0,0.0,0.0,0.0,0.0,0.0,0.0,0.0,0.0,0.0,0.0,0.0,0.0,0.0,0.0,0.0,0.0,0.0,0.0,0.0,0.0,0.0,0.0,0.0,0.0,0.0,0.0,0.0,0.0,0.0,0.0,0.0,0.0,0.0,0.0,0.0,0.0,0.0,0.0,0.0,0.0,0.0,0.0,0.0,0.0,0.0,0.0,0.0,0.0,0.0,0.0,0.0,0.0,0.0,0.0,0.0,0.0,0.0,0.0,0.0,0.0,0.0,0.0,0.0,0.0,0.0,0.0,0.0,0.0,0.0,0.0,0.0,0.0,0.0,0.0,0.0,0.0,0.0,0.0,0.0,0.0,0.0,0.0,0.0,0.0,0.0,0.0,0.0,0.0,0.0,0.0,0.0,0.0,0.0,0.0,0.0,-6.2415,-6.2415,-6.2415,-6.2415,-6.2415,-6.2415,0.0,0.0,0.0,0.0,0.0,0.0,0.0,0.0,0.0,0.0,0.0,0.0,0.0,0.0,0.0,0.0,0.0,0.0,0.0,0.0,0.0,0.0,0.0,0.0,0.0,0.0,0.0,0.0,0.0,0.0,0.0,0.0,0.0,0.0,0.0,0.0,0.0,0.0,0.0,0.0,0.0,0.0,0.0,0.0,0.0,0.0,0.0,0.0,0.0,0.0,0.0,0.0,0.0,0.0,0.0,0.0,0.0,0.0,0.0,0.0,0.0,0.0,0.0,0.0,0.0,0.0,0.0,0.0,0.0,0.0,0.0,0.0,0.0,0.0,0.0,0.0,0.0,0.0,0.0,0.0,0.0,0.0,0.0,0.0,0.0,0.0,0.0,0.0,0.0,0.0,0.0,0.0,0.0,0.0,0.0,0.0,0.0,0.0,0.0,0.0,0.0,0.0,0.0,0.0,0.0,0.0,0.0,0.0,-6.2415,-6.2415,-6.2415,-6.2415,-6.2415,-6.2415,0.0,0.0,0.0,0.0,0.0,0.0,0.0,0.0,0.0,0.0,0.0,0.0,0.0,0.0,0.0,0.0,0.0,0.0,0.0,0.0,0.0,0.0,0.0,0.0,0.0,0.0,0.0,0.0,0.0,0.0,0.0,0.0,0.0,0.0,0.0,0.0,0.0,0.0,0.0,0.0,0.0,0.0,0.0,0.0,0.0,0.0,0.0,0.0,0.0,0.0,0.0,0.0,0.0,0.0,0.0,0.0,0.0,0.0,0.0,0.0,0.0,0.0,0.0,0.0,0.0,0.0,0.0,0.0,0.0,0.0,0.0,0.0,0.0,0.0,0.0,0.0,0.0,0.0,0.0,0.0,0.0,0.0,0.0,0.0,0.0,0.0,0.0,0.0,0.0,0.0,0.0,0.0,0.0,0.0,0.0,0.0,0.0,0.0,0.0,0.0,0.0,0.0,0.0,0.0,0.0,0.0,0.0,0.0,0.0,-6.2415,-6.2415,-6.2415,-6.2415,-6.2415,-6.2415,0.0,0.0,0.0,0.0,0.0,0.0,0.0,0.0,0.0,0.0,0.0,0.0,0.0,0.0,0.0,0.0,0.0,0.0,0.0,0.0,0.0,0.0,0.0,0.0,0.0,0.0,0.0,0.0,0.0,0.0,0.0,0.0,0.0,0.0,0.0,0.0,0.0,0.0,0.0,0.0,0.0,0.0,0.0,0.0,0.0,0.0,0.0,0.0,0.0,0.0,0.0,0.0,0.0,0.0,0.0,0.0,0.0,0.0,0.0,0.0,0.0,0.0,0.0,0.0,0.0,0.0,0.0,0.0,0.0,0.0,0.0,0.0,0.0,0.0,0.0,0.0,0.0,0.0,0.0,0.0,0.0,0.0,0.0,0.0,0.0,0.0,0.0,0.0,0.0,0.0,0.0,0.0,0.0,0.0,0.0,0.0,0.0,0.0,0.0,0.0,0.0,0.0,0.0,0.0,0.0,0.0,0.0,0.0,0.0,-6.2415,0.0,-6.2415,-6.2415,-6.2415,-6.2415,0.0,0.0,0.0,0.0,0.0,0.0,0.0,0.0,0.0,0.0,0.0,0.0,0.0,0.0,0.0,0.0,0.0,0.0,0.0,0.0,0.0,0.0,0.0,0.0,0.0,0.0,0.0,0.0,0.0,0.0,0.0,0.0,0.0,0.0,0.0,0.0,0.0,0.0,0.0,0.0,0.0,0.0,0.0,0.0,0.0,0.0,0.0,0.0,0.0,0.0,0.0,0.0,0.0,0.0,0.0,0.0,0.0,0.0,0.0,0.0,0.0,0.0,0.0,0.0,0.0,0.0,0.0,0.0,0.0,0.0,0.0,0.0,0.0,0.0,0.0,0.0,0.0,0.0,0.0,0.0,0.0,0.0,0.0,0.0,0.0,0.0,0.0,0.0,0.0,0.0,0.0,0.0,0.0,0.0,0.0,0.0,0.0,0.0,0.0,0.0,0.0,0.0,0.0,0.0,0.0,0.0,0.0,0.0,-6.2415,-6.2415,-6.2415,-6.2415,-6.2415,-6.2415,-6.2415,0.0,0.0,0.0,0.0,0.0,0.0,0.0,0.0,0.0,0.0,0.0,0.0,0.0,0.0,0.0,0.0,0.0,0.0,0.0,0.0,0.0,0.0,0.0,0.0,0.0,0.0,0.0,0.0,0.0,0.0,0.0,0.0,0.0,0.0,0.0,0.0,0.0,0.0,0.0,0.0,0.0,0.0,0.0,0.0,0.0,0.0,0.0,0.0,0.0,0.0,0.0,0.0,0.0,0.0,0.0,0.0,0.0,0.0,0.0,0.0,0.0,0.0,0.0,0.0,0.0,0.0,0.0,0.0,0.0,0.0,0.0,0.0,0.0,0.0,0.0,0.0,0.0,0.0,0.0,0.0,0.0,0.0,0.0,0.0,0.0,0.0,0.0,0.0,0.0,0.0,0.0,0.0,0.0,0.0,0.0,0.0,0.0,0.0,0.0,0.0,0.0,0.0,0.0,0.0,0.0,0.0,0.0,0.0,0.0,-6.2415,-6.2415,-6.2415,-6.2415,-6.2415,-6.2415,0.0,0.0,0.0,0.0,0.0,0.0,0.0,0.0,0.0,0.0,0.0,0.0,0.0,0.0,0.0,0.0,0.0,0.0,0.0,0.0,0.0,0.0,0.0,0.0,0.0,0.0,0.0,0.0,0.0,0.0,0.0,0.0,0.0,0.0,0.0,0.0,0.0,0.0,0.0,0.0,0.0,0.0,0.0,0.0,0.0,0.0,0.0,0.0,0.0,0.0,0.0,0.0,0.0,0.0,0.0,0.0,0.0,0.0,0.0,0.0,0.0,0.0,0.0,0.0,0.0,0.0,0.0,0.0,0.0,0.0,0.0,0.0,0.0,0.0,0.0,0.0,0.0,0.0,0.0,0.0,0.0,0.0,0.0,0.0,0.0,0.0,0.0,0.0,0.0,0.0,0.0,0.0,0.0,0.0,0.0,0.0,0.0,0.0,0.0,0.0,0.0,0.0,0.0,0.0,0.0,0.0,0.0,0.0,0.0,-6.3599,-6.3199,-6.2928,-6.2821,-6.2821,-6.2685,-6.2415,0.0,0.0,0.0,0.0,0.0,0.0,0.0,0.0,0.0,0.0,0.0,0.0,0.0,0.0,0.0,0.0,0.0,0.0,0.0,0.0,0.0,0.0,0.0,0.0,0.0,0.0,0.0,0.0,0.0,0.0,0.0,0.0,0.0,0.0,0.0,0.0,0.0,0.0,0.0,0.0,0.0,0.0,0.0,0.0,0.0,0.0,0.0,0.0,0.0,0.0,0.0,0.0,0.0,0.0,0.0,0.0,0.0,0.0,0.0,0.0,0.0,0.0,0.0,0.0,0.0,0.0,0.0,0.0,0.0,0.0,0.0,0.0,0.0,0.0,0.0,0.0,0.0,0.0,0.0,0.0,0.0,0.0,0.0,0.0,0.0,0.0,0.0,0.0,0.0,0.0,0.0,0.0,0.0,0.0,0.0,0.0,0.0,0.0,0.0,0.0,0.0,0.0,0.0,0.0,0.0,0.0,0.0,0.0,-6.5764,-6.4688,-6.3977,-6.3734,-6.3666,-6.3328,0.0,0.0,0.0,0.0,0.0,0.0,0.0,0.0,0.0,0.0,0.0,0.0,0.0,0.0,0.0,0.0,0.0,0.0,0.0,0.0,0.0,0.0,0.0,0.0,0.0,0.0,0.0,0.0,0.0,0.0,0.0,0.0,0.0,0.0,0.0,0.0,0.0,0.0,0.0,0.0,0.0,0.0,0.0,0.0,0.0,0.0,0.0,0.0,0.0,0.0,0.0,0.0,0.0,0.0,0.0,0.0,0.0,0.0,0.0,0.0,0.0,0.0,0.0,0.0,0.0,0.0,0.0,0.0,0.0,0.0,0.0,0.0,0.0,0.0,0.0,0.0,0.0,0.0,0.0,0.0,0.0,0.0,0.0,0.0,0.0,0.0,0.0,0.0,0.0,0.0,0.0,0.0,0.0,0.0,0.0,0.0,0.0,0.0,0.0,0.0,0.0,0.0,0.0,0.0,0.0,0.0,0.0,0.0,0.0,-6.6508,-6.6711,-6.6542,-6.5967,-6.5425,-6.5019,0.0,0.0,0.0,0.0,0.0,0.0,0.0,0.0,0.0,0.0,0.0,0.0,0.0,0.0,0.0,0.0,0.0,0.0,0.0,0.0,0.0,0.0,0.0,0.0,0.0,0.0,0.0,0.0,0.0,0.0,0.0,0.0,0.0,0.0,0.0,0.0,0.0,0.0,0.0,0.0,0.0,0.0,0.0,0.0,0.0,0.0,0.0,0.0,0.0,0.0,0.0,0.0,0.0,0.0,0.0,0.0,0.0,0.0,0.0,0.0,0.0,0.0,0.0,0.0,0.0,0.0,0.0,0.0,0.0,0.0,0.0,0.0,0.0,0.0,0.0,0.0,0.0,0.0,0.0,0.0,0.0,0.0,0.0,0.0,0.0,0.0,0.0,0.0,0.0,0.0,0.0,0.0,0.0,0.0,0.0,0.0,0.0,0.0,0.0,0.0,0.0,0.0,0.0,0.0,0.0,0.0,0.0,0.0,-6.732,-6.7793,-6.8808,-6.9147,-6.8707,-6.7049,-6.6,0.0,0.0,0.0,0.0,0.0,0.0,0.0,0.0,0.0,0.0,0.0,0.0,0.0,0.0,0.0,0.0,0.0,0.0,0.0,0.0,0.0,0.0,0.0,0.0,0.0,0.0,0.0,0.0,0.0,0.0,0.0,0.0,0.0,0.0,0.0,0.0,0.0,0.0,0.0,0.0,0.0,0.0,0.0,0.0,0.0,0.0,0.0,0.0,0.0,0.0,0.0,0.0,0.0,0.0,0.0,0.0,0.0,0.0,0.0,0.0,0.0,0.0,0.0,0.0,0.0,0.0,0.0,0.0,0.0,0.0,0.0,0.0,0.0,0.0,0.0,0.0,0.0,0.0,0.0,0.0,0.0,0.0,0.0,0.0,0.0,0.0,0.0,0.0,0.0,0.0,0.0,0.0,0.0,0.0,0.0,0.0,0.0,0.0,0.0,0.0,0.0,0.0,0.0,0.0,0.0,0.0,0.0,0.0,-6.9147,-6.9214,-7.0601,-7.1312,-7.1244,-6.8538,-6.6745,0.0,0.0,0.0,0.0,0.0,0.0,0.0,0.0,0.0,0.0,0.0,0.0,0.0,0.0,0.0,0.0,0.0,0.0,0.0,0.0,0.0,0.0,0.0,0.0,0.0,0.0,0.0,0.0,0.0,0.0,0.0,0.0,0.0,0.0,0.0,0.0,0.0,0.0,0.0,0.0,0.0,0.0,0.0,0.0,0.0,0.0,0.0,0.0,0.0,0.0,0.0,0.0,0.0,0.0,0.0,0.0,0.0,0.0,0.0,0.0,0.0,0.0,0.0,0.0,0.0,0.0,0.0,0.0,0.0,0.0,0.0,0.0,0.0,0.0,0.0,0.0,0.0,0.0,0.0,0.0,0.0,0.0,0.0,0.0,0.0,0.0,0.0,0.0,0.0,0.0,0.0,0.0,0.0,0.0,0.0,0.0,0.0,0.0,0.0,0.0,0.0,0.0,0.0,0.0,0.0,0.0,0.0,0.0,-6.9383,-6.9958,-7.0838,-7.1312,-7.1312,-6.9553,-6.8538,0.0,0.0,0.0,0.0,0.0,0.0,0.0,0.0,0.0,0.0,0.0,0.0,0.0,0.0,0.0,0.0,0.0,0.0,0.0,0.0,0.0,0.0,0.0,0.0,0.0,0.0,0.0,0.0,0.0,0.0,0.0,0.0,0.0,0.0,0.0,0.0,0.0,0.0,0.0,0.0,0.0,0.0,0.0,0.0,0.0,0.0,0.0,0.0,-7.94,0.0,0.0,0.0,0.0,0.0,0.0,0.0,0.0,0.0,0.0,0.0,0.0,0.0,0.0,0.0,0.0,0.0,0.0,0.0,0.0,0.0,0.0,0.0,0.0,0.0,0.0,0.0,0.0,0.0,0.0,0.0,0.0,0.0,0.0,0.0,0.0,0.0,0.0,0.0,0.0,0.0,0.0,0.0,0.0,0.0,0.0,0.0,0.0,0.0,0.0,0.0,0.0,0.0,0.0,0.0,0.0,0.0,0.0,0.0,-6.9451,-7.0195,-7.0939,-7.1312,-7.1278,-7.0195,-6.9451,0.0,0.0,0.0,0.0,0.0,0.0,0.0,0.0,0.0,0.0,0.0,0.0,0.0,0.0,0.0,0.0,0.0,0.0,0.0,0.0,0.0,0.0,0.0,0.0,0.0,0.0,0.0,0.0,0.0,0.0,0.0,0.0,0.0,0.0,0.0,0.0,0.0,0.0,0.0,0.0,0.0,0.0,0.0,0.0,0.0,0.0,0.0,0.0,0.0,0.0,0.0,0.0,0.0,0.0,0.0,0.0,0.0,0.0,0.0,0.0,0.0,0.0,0.0,0.0,0.0,0.0,0.0,0.0,0.0,0.0,0.0,0.0,0.0,0.0,0.0,0.0,0.0,0.0,0.0,0.0,0.0,0.0,0.0,0.0,0.0,0.0,0.0,0.0,0.0,0.0,0.0,0.0,0.0,0.0,0.0,0.0,0.0,0.0,0.0,0.0,0.0,0.0,0.0,0.0,0.0,0.0,0.0,-6.8876,-6.9688,-7.05,-7.1244,-7.165,-7.165,-7.0939,-7.0195,-6.9451,0.0,0.0,0.0,0.0,0.0,0.0,0.0,0.0,0.0,0.0,0.0,0.0,0.0,0.0,0.0,0.0,0.0,0.0,0.0,0.0,0.0,0.0,0.0,0.0,0.0,0.0,0.0,0.0,0.0,0.0,0.0,0.0,0.0,0.0,0.0,0.0,0.0,0.0,-7.2826,-7.4051,0.0,0.0,0.0,0.0,0.0,0.0,0.0,0.0,-8.1823,0.0,0.0,0.0,0.0,0.0,0.0,0.0,0.0,0.0,0.0,0.0,0.0,0.0,0.0,0.0,0.0,0.0,0.0,0.0,0.0,0.0,0.0,0.0,0.0,0.0,0.0,0.0,0.0,0.0,0.0,0.0,0.0,0.0,0.0,0.0,0.0,0.0,0.0,0.0,0.0,0.0,0.0,0.0,0.0,0.0,0.0,0.0,0.0,0.0,0.0,0.0,0.0,0.0,0.0,0.0,0.0,-6.8876,-6.962,-7.0669,-7.2022,-7.2766,-7.3138,-7.3105,-7.2428,-7.1684,-7.0939,0.0,0.0,0.0,0.0,0.0,0.0,0.0,0.0,0.0,0.0,0.0,0.0,0.0,0.0,0.0,0.0,0.0,0.0,0.0,0.0,0.0,0.0,0.0,0.0,0.0,0.0,0.0,0.0,0.0,0.0,0.0,0.0,0.0,0.0,0.0,0.0,0.0,0.0,0.0,-7.5199,-7.6327,0.0,0.0,0.0,0.0,0.0,0.0,0.0,0.0,-8.2362,0.0,0.0,0.0,0.0,0.0,0.0,0.0,0.0,0.0,0.0,0.0,0.0,0.0,0.0,0.0,0.0,0.0,0.0,0.0,0.0,0.0,0.0,0.0,0.0,0.0,0.0,0.0,0.0,0.0,0.0,0.0,0.0,0.0,0.0,0.0,0.0,0.0,0.0,0.0,0.0,0.0,0.0,0.0,0.0,0.0,0.0,0.0,0.0,0.0,0.0,0.0,0.0,0.0,0.0,0.0,-7.0229,-7.0973,-7.1887,-7.2935,-7.3308,-7.3477,-7.3443,-7.2766,-7.2056,0.0,0.0,0.0,0.0,0.0,0.0,0.0,0.0,0.0,0.0,0.0,0.0,0.0,0.0,0.0,0.0,0.0,0.0,0.0,0.0,0.0,0.0,0.0,0.0,0.0,0.0,0.0,0.0,0.0,0.0,0.0,0.0,0.0,0.0,0.0,0.0,0.0,0.0,0.0,0.0,-7.7237,-7.8387,-8.0316,0.0,0.0,0.0,0.0,0.0,0.0,-8.2554,-8.2439,0.0,0.0,0.0,0.0,0.0,0.0,0.0,0.0,0.0,0.0,0.0,0.0,0.0,0.0,0.0,0.0,0.0,0.0,0.0,0.0,0.0,0.0,0.0,0.0,0.0,0.0,0.0,0.0,0.0,0.0,0.0,0.0,0.0,0.0,0.0,0.0,0.0,0.0,0.0,0.0,0.0,0.0,0.0,0.0,0.0,0.0,0.0,0.0,0.0,0.0,0.0,0.0,0.0,0.0,0.0,-7.1312,-7.2157,-7.2969,-7.368,-7.3849,-7.3916,-7.3916,-7.3105,-7.236,0.0,0.0,0.0,0.0,0.0,0.0,0.0,0.0,0.0,0.0,0.0,0.0,0.0,0.0,0.0,0.0,0.0,0.0,0.0,0.0,0.0,0.0,0.0,0.0,0.0,0.0,0.0,0.0,0.0,0.0,0.0,0.0,0.0,0.0,0.0,0.0,0.0,0.0,0.0,0.0,0.0,-8.0075,-8.2022,-8.2092,0.0,0.0,0.0,0.0,-8.2538,-8.2708,0.0,0.0,0.0,0.0,0.0,0.0,0.0,0.0,0.0,0.0,0.0,0.0,0.0,0.0,0.0,0.0,0.0,0.0,0.0,0.0,0.0,0.0,0.0,0.0,0.0,0.0,0.0,0.0,0.0,0.0,0.0,0.0,0.0,0.0,0.0,0.0,0.0,0.0,0.0,0.0,0.0,0.0,0.0,0.0,0.0,0.0,0.0,0.0,0.0,0.0,0.0,0.0,0.0,0.0,0.0,0.0,-7.1345,-7.2665,-7.3713,-7.4458,-7.51,-7.5439,-7.5405,-7.4086,-7.3308,0.0,0.0,0.0,0.0,0.0,0.0,0.0,0.0,0.0,0.0,0.0,0.0,0.0,0.0,0.0,0.0,0.0,0.0,0.0,0.0,0.0,0.0,0.0,0.0,0.0,0.0,0.0,0.0,0.0,0.0,0.0,0.0,0.0,0.0,0.0,0.0,0.0,0.0,0.0,0.0,0.0,-7.985,-8.0891,-8.0779,-8.0829,0.0,0.0,-8.2835,-8.3352,-8.4093,0.0,0.0,0.0,0.0,0.0,0.0,0.0,0.0,0.0,0.0,0.0,0.0,0.0,0.0,0.0,0.0,0.0,0.0,0.0,0.0,0.0,0.0,0.0,0.0,0.0,0.0,0.0,0.0,0.0,0.0,0.0,0.0,0.0,0.0,0.0,0.0,0.0,0.0,0.0,0.0,0.0,0.0,0.0,0.0,0.0,0.0,0.0,0.0,0.0,0.0,0.0,0.0,0.0,0.0,0.0,-7.2225,-7.2597,-7.3984,-7.4897,-7.5236,-7.554,-7.5676,-7.5676,-7.4255,-7.3477,0.0,0.0,0.0,0.0,0.0,0.0,0.0,0.0,0.0,0.0,0.0,0.0,0.0,0.0,0.0,0.0,0.0,0.0,0.0,0.0,0.0,0.0,0.0,0.0,0.0,0.0,0.0,0.0,0.0,0.0,0.0,0.0,0.0,0.0,0.0,0.0,0.0,0.0,0.0,0.0,0.0,0.0,-8.1205,-8.1218,0.0,0.0,0.0,-8.2722,-8.2836,0.0,0.0,0.0,0.0,0.0,0.0,0.0,0.0,0.0,0.0,0.0,0.0,0.0,0.0,0.0,0.0,0.0,0.0,0.0,0.0,0.0,0.0,0.0,0.0,0.0,0.0,0.0,0.0,0.0,0.0,0.0,0.0,0.0,0.0,0.0,0.0,0.0,0.0,0.0,0.0,0.0,0.0,0.0,0.0,0.0,0.0,0.0,0.0,0.0,0.0,0.0,0.0,0.0,0.0,0.0,0.0,0.0,-7.351,-7.4931,-7.5676,-7.5676,-7.5676,-7.5676,-7.5676,-7.4458,0.0,0.0,0.0,0.0,0.0,0.0,0.0,0.0,0.0,0.0,0.0,0.0,0.0,0.0,0.0,0.0,0.0,0.0,0.0,0.0,0.0,0.0,0.0,0.0,0.0,0.0,0.0,-7.3354,0.0,0.0,0.0,0.0,0.0,0.0,0.0,0.0,0.0,0.0,0.0,0.0,0.0,0.0,-8.0693,-8.1395,-8.1319,-8.1788,0.0,0.0,-8.2587,-8.2897,-8.4209,-8.4632,0.0,0.0,0.0,0.0,0.0,0.0,0.0,0.0,0.0,0.0,0.0,0.0,0.0,0.0,0.0,0.0,0.0,0.0,0.0,0.0,0.0,0.0,0.0,0.0,0.0,0.0,0.0,0.0,0.0,0.0,0.0,0.0,0.0,0.0,0.0,0.0,0.0,0.0,0.0,0.0,0.0,0.0,0.0,0.0,0.0,0.0,0.0,0.0,0.0,0.0,0.0,0.0,0.0,0.0,-7.3477,-7.351,-7.4931,-7.5676,-7.5676,-7.5676,-7.5676,-7.5676,-7.4965,-7.4187,0.0,0.0,0.0,0.0,0.0,0.0,0.0,0.0,0.0,0.0,0.0,0.0,0.0,0.0,0.0,0.0,0.0,0.0,0.0,0.0,0.0,0.0,0.0,0.0,0.0,0.0,0.0,0.0,0.0,0.0,0.0,0.0,0.0,0.0,0.0,0.0,0.0,0.0,0.0,0.0,0.0,-8.013,-8.0768,-8.0326,-8.086,0.0,-8.2662,-8.2456,-8.4421,-8.544,-8.544,-8.3747,0.0,0.0,0.0,0.0,0.0,0.0,0.0,0.0,0.0,0.0,0.0,0.0,0.0,0.0,0.0,0.0,0.0,0.0,0.0,0.0,0.0,0.0,0.0,0.0,0.0,0.0,0.0,0.0,0.0,0.0,0.0,0.0,0.0,0.0,0.0,0.0,0.0,0.0,0.0,0.0,0.0,0.0,0.0,0.0,0.0,0.0,0.0,0.0,0.0,0.0,0.0,0.0,0.0,-7.3477,-7.351,-7.4931,-7.5676,-7.5676,-7.5676,-7.5676,-7.5676,-7.4965,-7.4255,0.0,0.0,0.0,0.0,0.0,0.0,0.0,0.0,0.0,0.0,0.0,0.0,0.0,0.0,0.0,0.0,0.0,0.0,0.0,0.0,0.0,0.0,0.0,0.0,0.0,0.0,0.0,0.0,-7.7451,-7.7635,-7.7635,0.0,0.0,0.0,0.0,0.0,0.0,0.0,0.0,0.0,0.0,-8.0223,-8.1391,-8.1323,0.0,0.0,-8.3413,-8.327,-8.3973,-8.4786,-8.4786,-8.3054,-8.2785,0.0,0.0,0.0,0.0,0.0,0.0,0.0,0.0,0.0,0.0,0.0,0.0,0.0,0.0,0.0,0.0,0.0,0.0,0.0,0.0,0.0,0.0,0.0,0.0,0.0,0.0,0.0,0.0,0.0,0.0,0.0,0.0,0.0,0.0,0.0,0.0,0.0,0.0,0.0,0.0,0.0,0.0,0.0,0.0,0.0,0.0,0.0,0.0,0.0,0.0,0.0,0.0,-7.3477,-7.3477,-7.4965,-7.5676,-7.5676,-7.5676,-7.5676,-7.5676,-7.5202,-7.4593,0.0,0.0,0.0,0.0,0.0,0.0,0.0,0.0,0.0,0.0,0.0,0.0,0.0,0.0,0.0,0.0,0.0,0.0,0.0,0.0,0.0,0.0,0.0,0.0,0.0,0.0,0.0,0.0,-7.8442,-7.8589,-7.8589,0.0,0.0,0.0,0.0,0.0,0.0,0.0,0.0,0.0,0.0,-8.0425,-8.1222,-8.1347,-8.1726,-8.2831,-8.2747,-8.2741,-8.3246,-8.3832,-8.3867,-8.2846,0.0,0.0,0.0,0.0,0.0,0.0,0.0,0.0,0.0,0.0,0.0,0.0,0.0,0.0,0.0,0.0,0.0,0.0,0.0,0.0,0.0,0.0,0.0,0.0,0.0,0.0,0.0,-6.1104,0.0,0.0,-6.1306,0.0,0.0,0.0,0.0,0.0,0.0,0.0,0.0,0.0,0.0,0.0,0.0,0.0,0.0,0.0,0.0,0.0,0.0,0.0,0.0,0.0,0.0,-7.3477,-7.351,-7.4931,-7.5676,-7.5676,-7.5676,-7.5676,-7.5676,-7.5676,-7.5337,-7.4593,0.0,0.0,0.0,0.0,0.0,0.0,0.0,0.0,0.0,0.0,0.0,0.0,0.0,0.0,0.0,0.0,0.0,0.0,0.0,0.0,0.0,0.0,0.0,0.0,0.0,0.0,-7.7457,-7.8112,-7.8589,0.0,0.0,0.0,0.0,0.0,0.0,0.0,0.0,0.0,-7.8626,-7.9984,-8.0681,-7.9974,-7.9863,-8.0198,-8.0842,-8.0234,-8.0368,-8.2426,-8.2739,-8.2932,0.0,0.0,0.0,0.0,0.0,0.0,0.0,0.0,0.0,0.0,0.0,0.0,0.0,0.0,0.0,0.0,0.0,0.0,0.0,0.0,0.0,0.0,0.0,0.0,0.0,0.0,0.0,-6.2002,-6.2421,0.0,0.0,0.0,0.0,0.0,0.0,0.0,0.0,0.0,0.0,0.0,-6.8818,-6.8818,0.0,0.0,0.0,0.0,0.0,0.0,0.0,0.0,0.0,0.0,0.0,0.0,-7.3477,-7.3544,-7.4965,-7.5676,-7.5676,-7.5676,-7.5676,-7.5676,-7.5676,-7.5371,-7.4627,0.0,0.0,0.0,0.0,0.0,0.0,0.0,0.0,0.0,0.0,0.0,0.0,0.0,0.0,0.0,0.0,0.0,0.0,0.0,0.0,0.0,0.0,0.0,0.0,0.0,-7.8479,0.0,0.0,0.0,0.0,0.0,0.0,0.0,0.0,0.0,0.0,-7.8442,-7.8809,-7.9323,-7.9396,-7.9507,-7.9727,-8.0184,-8.0708,0.0,0.0,0.0,0.0,0.0,0.0,0.0,0.0,0.0,0.0,0.0,0.0,0.0,-8.2785,-8.2593,-8.2016,-8.2362,-8.2747,-8.2747,0.0,0.0,0.0,0.0,0.0,0.0,0.0,0.0,0.0,0.0,0.0,0.0,0.0,0.0,-6.3228,-6.3408,-6.3647,0.0,0.0,0.0,0.0,0.0,0.0,0.0,0.0,-6.7169,-6.7839,-6.8027,-6.8027,-6.8312,-6.8903,-6.956,-7.0913,0.0,0.0,0.0,0.0,0.0,0.0,0.0,0.0,-7.3477,-7.3544,-7.4931,-7.5676,-7.5676,-7.5676,-7.5676,-7.5676,-7.5676,-7.5473,-7.4999,-7.4255,-7.3646,0.0,0.0,0.0,0.0,0.0,0.0,0.0,0.0,0.0,0.0,0.0,0.0,0.0,0.0,0.0,0.0,0.0,0.0,0.0,0.0,0.0,0.0,0.0,-7.8699,0.0,0.0,0.0,0.0,0.0,0.0,0.0,0.0,0.0,-7.8589,-7.8846,-7.9213,-7.9727,-7.958,-7.9433,-7.936,0.0,0.0,0.0,0.0,0.0,0.0,0.0,-8.199,-8.1962,-8.2208,-8.2593,-8.3131,-8.3401,-8.3593,-8.3593,0.0,0.0,-8.2901,-8.3208,-8.3593,-8.3593,-8.3593,-8.3593,-8.3593,-8.3593,-8.3593,0.0,0.0,0.0,0.0,0.0,0.0,0.0,0.0,-6.4755,-6.4665,0.0,-6.4755,0.0,0.0,0.0,0.0,-6.4096,-6.4695,0.0,0.0,-6.6371,-6.661,-6.6102,-6.6072,-6.6402,-6.6974,-6.7315,-7.0171,-7.5135,-7.4146,0.0,0.0,0.0,0.0,0.0,0.0,-7.351,-7.3578,-7.4965,-7.5676,-7.5676,-7.5676,-7.5676,-7.5676,-7.5676,-7.5676,-7.5676,-7.4999,-7.4627,-7.4559,-7.324,0.0,0.0,0.0,0.0,0.0,0.0,0.0,0.0,0.0,0.0,0.0,0.0,0.0,0.0,0.0,0.0,0.0,0.0,0.0,0.0,-7.7396,0.0,0.0,0.0,0.0,0.0,0.0,0.0,0.0,0.0,-7.8662,-7.8662,-7.925,-7.9795,-7.9758,0.0,0.0,0.0,0.0,-7.9213,-7.7708,-7.7986,-7.8648,-7.927,-8.0541,-8.1957,-8.3319,0.0,0.0,-8.4901,-8.4209,-8.3708,-8.367,-8.4401,-8.467,-8.3824,-8.3747,-8.3747,-8.3747,-8.3785,-8.3708,-8.367,-8.3862,-8.3785,-6.4635,0.0,0.0,0.0,0.0,-6.4395,-6.4844,-6.5443,-6.5652,-6.5622,-6.5443,-6.5652,0.0,0.0,0.0,0.0,0.0,0.0,-6.5293,-6.5742,-6.6131,-6.643,-6.67,-6.67,-6.6824,-6.7049,-6.9189,-7.07,-7.1671,-7.3924,-7.4153,-7.2428,0.0,0.0,0.0,0.0,-7.3747,-7.4322,-7.5236,-7.5676,-7.5676,-7.5676,-7.5676,-7.5676,-7.5676,-7.5676,-7.5676,-7.5506,-7.5134,-7.4627,-7.4187,0.0,0.0,0.0,0.0,0.0,0.0,0.0,0.0,0.0,0.0,0.0,0.0,0.0,0.0,0.0,0.0,0.0,0.0,0.0,-7.6338,-7.8274,-7.9066,0.0,0.0,0.0,0.0,0.0,0.0,0.0,0.0,0.0,-7.9433,-7.914,-7.8956,0.0,0.0,-7.8222,-7.7745,-7.8405,-7.8956,-7.9066,-7.9623,0.0,-8.1014,-8.1786,-8.2414,-8.2837,-8.399,-8.4901,-8.4901,-8.517,-8.5401,-8.5363,-8.5593,-8.567,-8.5478,-8.5401,-8.5363,-8.5401,-8.5401,-8.5363,-8.5401,-8.5401,-8.5363,-6.6161,-6.5772,-6.5233,-6.5173,-6.5413,-6.5413,-6.5802,-6.64,-6.64,-6.6251,-6.6041,-6.6281,-6.5892,-6.5024,-6.5024,0.0,0.0,0.0,-6.5772,-6.64,-6.64,-6.661,-6.6969,-6.6999,-6.6974,-6.7118,-6.9438,-7.0719,-7.1055,-7.2728,-7.3209,-7.241,0.0,-7.1821,-7.2834,-7.3544,-7.4153,-7.4627,-7.5337,-7.5676,-7.5676,-7.5676,-7.5676,-7.5676,-7.5676,-7.5676,-7.5676,-7.5676,-7.5506,-7.5067,-7.4762,-7.4221,0.0,0.0,0.0,0.0,0.0,0.0,0.0,0.0,0.0,0.0,0.0,-7.2225,-7.1785,0.0,0.0,0.0,-7.5473,-7.6095,-7.7305,-7.8552,0.0,0.0,0.0,0.0,0.0,0.0,0.0,-7.7671,-7.8883,-7.9832,-7.9764,-7.936,-7.9213,-7.9507,-7.9103,-7.8662,-7.8332,0.0,-7.9617,-7.9764,-8.0326,-8.0861,-8.1373,-8.2171,-8.2906,-8.3516,-8.4552,-8.5346,-8.5401,-8.5786,-8.6094,-8.6094,-8.6094,-8.6094,-8.6094,-8.6094,-8.6094,-8.6094,-8.6094,-8.6094,-8.6094,-8.6094,-8.6094,-6.6999,-6.6879,-6.5682,-6.5533,-6.6071,-6.6101,-6.643,-6.6969,-6.6999,-6.667,-6.6161,-6.6729,-6.634,-6.5203,-6.5173,0.0,-6.6071,-6.6101,-6.643,-6.6999,-6.6999,-6.6999,-6.6999,-6.6999,-6.6999,-6.703,-6.8533,-7.0349,-7.2252,-7.1186,-7.1164,-7.2222,-7.3703,-7.4074,-7.3506,-7.4242,-7.4728,-7.4796,-7.5473,-7.5845,-7.5879,-7.5845,-7.5845,-7.5879,-7.5879,-7.5879,-7.5879,-7.5811,-7.5811,-7.5777,-7.51,-7.4695,-7.4559,0.0,0.0,0.0,0.0,0.0,0.0,0.0,0.0,0.0,0.0,0.0,0.0,0.0,0.0,-7.4996,-7.7146,0.0,-7.8312,-7.8552,0.0,0.0,0.0,-7.8993,-7.969,-7.9837,-7.9837,-7.9832,0.0,0.0,-7.9874,-7.9874,-8.0167,-8.1012,-8.1012,-8.0645,-7.9874,-8.0424,-8.0718,-8.0021,-8.0452,-8.0851,-8.1045,-8.2129,-8.352,-8.4874,-8.57,-8.6038,-8.6055,-8.6094,-8.6094,-8.6094,-8.6094,-8.6094,-8.6094,-8.6094,-8.6094,-8.6094,-8.6094,-8.6094,-8.6094,-8.6094,-8.6094,-6.6999,-6.6969,-6.664,-6.661,-6.6759,-6.6759,-6.6849,-6.6999,-6.6999,-6.6909,-6.6759,-6.6909,-6.6819,-6.652,-6.652,-6.661,-6.6759,-6.6759,-6.6849,-6.6999,-6.6999,-6.6999,-6.6999,-6.6999,-6.6999,-6.7121,-6.8993,-6.9656,-6.9303,-7.1509,-7.1998,-7.0847,-7.2205,-7.2816,-7.273,-7.4522,-7.5743,-7.6352,-7.6521,-7.6893,-7.7401,-7.7067,-7.7033,-7.7435,-7.7435,-7.7435,-7.7435,-7.6893,-7.6623,-7.6589,-7.5879,-7.5168,-7.4627,-7.3747,0.0,0.0,0.0,0.0,0.0,0.0,0.0,0.0,0.0,-7.2157,-7.1616,0.0,-7.3254,0.0,-7.8421,-7.998,-7.9178,-7.9901,0.0,0.0,-7.9617,-7.958,-7.9764,-8.0351,-8.0461,-7.9837,-8.0314,-8.0718,-8.0718,-8.0718,-8.1012,-8.1782,-8.0865,-8.0021,-7.9837,-8.0498,-8.0938,-8.0791,-8.135,-8.1813,-8.1901,-8.2994,-8.4309,-8.5644,-8.6009,-8.6094,-8.6094,-8.6094,-8.6094,-8.6094,-8.6094,-8.6094,-8.6094,-8.6094,-8.6094,-8.6094,-8.6094,-8.6094,-8.6094,-8.6094,-8.6094,-6.6999,-6.6999,-6.6999,-6.6999,-6.6999,-6.6999,-6.6999,-6.6999,-6.6999,-6.6999,-6.6999,-6.6999,-6.6999,-6.6999,-6.6999,-6.6999,-6.6999,-6.6999,-6.6999,-6.6999,-6.6999,-6.6999,-6.6999,-6.7298,-6.7418,-6.7509,-6.8941,-6.9611,-6.958,-7.1413,-7.2139,-7.1677,-7.2761,-7.316,-7.2957,-7.4155,-7.5299,-7.6352,-7.7058,-7.76,-7.7976,-7.8345,-7.8209,-7.7536,-7.7502,-7.7333,-7.6995,-7.6555,-7.6352,-7.6352,-7.5946,-7.5506,-7.51,-7.4086,-7.3308,0.0,0.0,0.0,0.0,0.0,0.0,0.0,0.0,0.0,0.0,0.0,-7.3533,-7.5218,-7.8745,-8.0433,-7.8997,-7.9828,-8.0424,-8.0351,-8.0351,-8.0461,-8.0828,-8.1269,-8.1379,-8.0938,-8.1269,-8.1562,-8.1525,-8.1525,-8.1672,-8.215,-8.1415,-8.0865,-8.0901,-8.1269,-8.1525,-8.1562,-8.1929,-8.2186,-8.2186,-8.3331,-8.442,-8.51,-8.5757,-8.6094,-8.6094,-8.6094,-8.6094,-8.6094,-8.6094,-8.6094,-8.6094,-8.6094,-8.6094,-8.6094,-8.6094,-8.6094,-8.6094,-8.6094,-8.6094,-6.6999,-6.6999,-6.6999,-6.6999,-6.6999,-6.6999,-6.6999,-6.6999,-6.6999,-6.6999,-6.6999,-6.6999,-6.6999,-6.6999,-6.6999,-6.6999,-6.6999,-6.6999,-6.6999,-6.6999,-6.7059,-6.7119,-6.7148,-6.7777,-6.8106,-6.8136,-6.8794,-6.9786,-7.1042,-7.1103,-7.179,-7.3035,-7.3638,-7.369,-7.321,-7.3477,-7.4371,-7.5932,-7.7377,-7.8089,-7.8145,-7.922,-7.8914,-7.713,-7.7029,-7.6724,-7.6014,-7.5912,-7.5845,-7.5845,-7.5777,-7.5743,-7.5811,-7.4525,-7.3815,0.0,-7.2631,0.0,0.0,0.0,0.0,0.0,0.0,0.0,0.0,-7.3764,-7.4316,-7.5358,-7.8819,-8.0389,-7.8847,-7.9563,-8.0351,-8.1048,-8.1158,-8.1452,-8.2076,-8.2186,-8.2186,-8.2186,-8.2186,-8.2186,-8.215,-8.2186,-8.2186,-8.2186,-8.2113,-8.2039,-8.215,-8.2113,-8.2113,-8.2186,-8.2186,-8.2219,-8.2434,-8.334,-8.4152,-8.4443,-8.532,-8.6077,-8.6094,-8.6094,-8.6094,-8.6094,-8.6094,-8.6094,-8.6094,-8.6094,-8.6094,-8.6094,-8.6094,-8.6094,-8.6094,-8.6094,-8.6094,-6.6999,-6.6999,-6.6999,-6.6999,-6.6999,-6.6999,-6.6999,-6.6999,-6.6999,-6.6999,-6.6999,-6.6999,-6.6999,-6.6999,-6.6999,-6.6999,-6.6999,-6.6999,-6.6999,-6.6999,-6.7537,-6.7777,-6.7837,-6.8495,-6.8824,-6.8854,-6.9482,-6.9973,-7.026,-7.0709,-7.0869,-7.067,-7.0791,-7.1138,-7.1721,0.0,0.0,0.0,-7.8247,-7.8671,-7.8855,-7.813,-7.7758,-7.7773,-7.7773,0.0,-7.7536,-7.6995,-7.669,-7.6657,-7.6048,0.0,0.0,0.0,0.0,0.0,0.0,0.0,0.0,0.0,0.0,0.0,-7.4627,-7.3984,-7.3637,-7.5049,-7.6378,-7.7258,-7.9537,-8.113,-8.1406,-8.1611,-8.1782,-8.1966,-8.1966,-8.2039,-8.2186,-8.2186,-8.2186,-8.2186,-8.2186,-8.2186,-8.226,-8.2186,-8.2186,-8.2186,-8.2186,-8.2186,-8.2186,-8.2186,-8.2186,-8.2186,-8.2186,-8.237,-8.2906,-8.3324,-8.3974,-8.4758,-8.5551,-8.606,-8.6094,-8.6094,-8.6094,-8.6094,-8.6094,-8.6094,-8.6094,-8.6094,-8.6094,-8.6094,-8.6094,-8.6094,-8.6094,-8.6094,-8.6094,-6.6999,-6.6999,-6.6999,-6.6999,0.0,-6.6999,-6.6999,-6.6999,-6.6999,-6.6999,-6.6999,-6.6999,-6.6999,-6.6999,-6.6999,-6.6999,-6.6999,-6.7328,-6.7478,-6.7508,-6.8166,-6.8495,-6.8525,-6.9183,-6.9482,-6.9512,-7.0141,-7.044,-7.044,-7.0769,-7.116,-7.1621,-7.1591,-7.2152,-7.3399,-7.492,-7.6597,-7.8551,-7.8621,-7.8992,-7.96,-7.9042,-7.8637,-7.8551,-7.8551,0.0,0.0,0.0,0.0,0.0,0.0,0.0,0.0,-7.6323,0.0,-7.6826,-7.6632,-7.6394,-7.6284,-7.6284,-7.6454,-7.6792,-7.6487,-7.5642,-7.4153,-7.582,-7.7211,-7.7842,-7.9648,-8.1209,-8.2117,-8.2186,-8.2186,-8.2186,-8.2186,-8.2333,-8.27,-8.281,-8.2957,-8.3324,-8.3361,-8.3287,-8.3034,-8.2851,-8.2594,-8.2267,-8.219,-8.2223,-8.2186,-8.2186,-8.2186,-8.2186,-8.2186,-8.2311,-8.2678,-8.32,-8.3714,-8.456,-8.5449,-8.6007,-8.6099,-8.6094,-8.6094,-8.6094,-8.6094,-8.6094,-8.6094,-8.6094,-8.6094,-8.6094,-8.6094,-8.6094,-8.6094,-8.6094,-8.6094,-6.6999,-6.6999,-6.6999,-6.6999,-6.6999,-6.6999,-6.6999,-6.6999,-6.6999,0.0,0.0,-6.6999,-6.7059,-6.7178,-6.7178,-6.7238,-6.7388,-6.7897,-6.8166,-6.8196,-6.8854,-6.9183,-6.9213,-6.9842,-7.0141,-7.0171,-7.0649,-7.0919,-7.0919,-7.0919,-7.1728,-7.3138,-7.323,-7.4168,-7.5981,-7.7248,-7.8345,-7.9229,-7.8975,-7.9178,-7.9972,-7.987,-7.9532,-7.8923,-7.8923,-7.8619,-7.801,-7.801,-7.801,-7.801,-7.801,-7.8044,-7.8145,-7.6984,-7.6598,-7.7401,-7.7663,-7.7677,-7.7468,-7.7468,-7.7671,-7.8179,-7.8213,-7.7333,-7.5337,-7.6725,-7.7832,-7.817,-7.988,-8.1453,-8.2381,-8.259,-8.2627,-8.2627,-8.2627,-8.292,-8.3508,-8.3618,-8.3875,-8.4462,-8.4535,-8.4392,-8.3845,-8.3695,-8.3328,-8.2711,-8.2671,-8.2627,-8.259,-8.2406,-8.2186,-8.2186,-8.2186,-8.2186,-8.2279,-8.2756,-8.3443,-8.4167,-8.5294,-8.6048,-8.6073,-8.6094,-8.6094,-8.6094,-8.6094,-8.6094,-8.6094,-8.6094,-8.617,-8.6324,-8.6363,-8.644,-8.6555,-8.6632,-8.6632,-6.6999,-6.6999,-6.6999,-6.6999,-6.6999,-6.6999,-6.6999,-6.6999,-6.6999,-6.6999,-6.6999,-6.6999,-6.742,-6.8111,-6.7929,-6.8166,-6.8704,-6.8824,-6.8854,-6.8884,-6.9542,-6.9842,-6.9871,-7.047,-7.0769,-7.0769,-7.0859,-7.0919,-7.0919,-7.0919,-7.1665,-7.2984,-7.323,-7.4672,-7.7358,-7.7773,-7.8577,-7.9955,-7.9397,-7.9126,-7.9261,-7.8619,-7.8247,-7.8145,-7.8179,-7.8111,-7.801,-7.801,-7.801,-7.801,-7.801,-7.828,-7.8889,-7.8519,-7.8722,-7.9634,-7.9785,-7.9785,-7.9701,-7.9735,-7.9498,-7.9025,-7.8957,-7.8551,-7.7653,-7.8613,-7.9251,-7.9287,-8.1165,-8.2867,-8.3527,-8.3951,-8.4168,-8.4205,-8.4242,-8.4315,-8.4425,-8.4425,-8.4499,-8.4682,-8.4609,-8.4465,-8.4138,-8.4245,-8.4245,-8.3808,-8.3878,-8.4168,-8.3911,-8.3067,-8.2296,-8.2186,-8.2186,-8.2186,-8.2394,-8.2295,-8.3023,-8.4004,-8.5364,-8.6275,-8.6334,-8.6324,-8.6324,-8.617,-8.6286,-8.6247,-8.6209,-8.6094,-8.6478,-8.7055,-8.7363,-8.7688,-8.8055,-8.8457,-8.8265,-6.6999,-6.6999,-6.6999,-6.6999,-6.7029,-6.7358,-6.7537,-6.7567,-6.7926,-6.7959,-6.7689,-6.7599,-6.8048,-6.8953,-6.8677,-6.8704,-6.9004,-6.9363,-6.9542,-6.9572,-7.0171,-7.047,-7.05,-7.0769,-7.0919,-7.0919,-7.0919,-7.0919,-7.0919,-7.0919,-7.1247,-7.2078,-7.3657,-7.5663,-7.7773,-7.875,-7.9495,-8.0209,-7.987,-7.9701,-7.9701,-7.9363,-7.9194,-7.9194,-7.9194,-7.916,-7.9194,-7.9194,-7.9194,-7.9194,-7.9194,-7.9363,-7.9667,-7.955,-7.9719,-8.0175,-8.0209,-8.0209,-8.0209,-8.0209,-8.0073,-7.9735,-7.9701,-7.9566,-7.9228,-7.8919,-7.8706,-7.8721,-8.0719,-8.2998,-8.5202,-8.4973,-8.4609,-8.4609,-8.4609,-8.4792,-8.5159,-8.527,-8.5416,-8.582,-8.5894,-8.582,-8.5566,-8.538,-8.5414,-8.5414,-8.5156,-8.4646,-8.4646,-8.4022,-8.3508,-8.3508,-8.3508,-8.3508,-8.3504,-8.3222,-8.3804,-8.5247,-8.6412,-8.7192,-8.7459,-8.7517,-8.7478,-8.7517,-8.7478,-8.7517,-8.7478,-8.7517,-8.7709,-8.794,-8.8457,-8.8765,-8.8803,-8.8919,-8.8649,-6.7089,-6.7208,-6.7208,-6.7298,-6.7478,-6.7986,-6.8196,-6.8256,-6.8764,-6.8887,-6.868,-6.8378,-6.8737,-6.9613,-6.9366,-6.9303,-6.9482,-6.9961,-7.0171,-7.0231,-7.0679,-7.0919,-7.0919,-7.0919,-7.0919,-7.0919,-7.0919,-7.0919,-7.0919,-7.0919,-7.1311,-7.2204,-7.4762,-7.6916,-7.8398,-7.9598,-8.0209,-8.0209,-8.0209,-8.0209,-8.0209,-8.0209,-8.0209,-8.0209,-8.0175,-8.0209,-8.0209,-8.0209,-8.0209,-8.0209,-8.0209,-8.0209,-8.0209,-8.0209,-8.0209,-8.0209,-8.0209,-8.0209,-8.0209,-8.0209,-8.0209,-8.0209,-8.0209,-8.0209,-8.0107,-7.916,-7.8503,-7.8742,-8.0617,-8.3287,-8.6055,-8.5925,-8.5159,-8.5159,-8.5159,-8.5453,-8.5967,-8.6077,-8.6297,-8.6921,-8.7031,-8.6995,-8.6921,-8.6481,-8.6295,-8.6586,-8.5891,-8.5196,-8.5159,-8.5159,-8.5123,-8.5086,-8.4866,-8.4535,-8.4572,-8.4389,-8.478,-8.6251,-8.7285,-8.787,-8.8251,-8.8451,-8.8671,-8.8556,-8.8594,-8.8517,-8.8632,-8.8632,-8.8709,-8.8902,-8.9265,-8.9457,-8.944,-8.9402,-8.9094,-6.7358,-6.7837,-6.7897,-6.8256,-6.8764,-6.8884,-6.8914,-6.8914,-6.8974,-6.9333,-6.9692,-6.9183,-6.9303,-6.9935,-6.9901,-7.0171,-7.0649,-7.0799,-7.0799,-7.0799,-7.0889,-7.0919,-7.0919,-7.0919,-7.0919,-7.0919,-7.0919,-7.0919,-7.0889,-7.0954,-7.2299,-7.5056,-7.686,-7.8345,-7.9785,-8.0074,-8.0209,-8.0209,-8.0209,-8.0209,-8.0209,-8.0209,-8.0209,-8.0209,-8.0209,-8.0209,-8.0209,-8.0209,-8.0209,-8.0209,-8.0209,-8.0209,-8.0209,-8.0209,-8.0209,-8.0209,-8.0209,-8.0209,-8.0209,-8.0209,-8.0209,-8.0209,-8.0209,-8.0209,-8.0209,-8.0073,-8.0008,-8.029,-8.2023,-8.4286,-8.6605,-8.6775,-8.6628,-8.6554,-8.6628,-8.6848,-8.6811,-8.6885,-8.6958,-8.6995,-8.7031,-8.7031,-8.6995,-8.6885,-8.6885,-8.6958,-8.6738,-8.6481,-8.6518,-8.6518,-8.6554,-8.6407,-8.5637,-8.4792,-8.4756,-8.501,-8.5535,-8.5968,-8.7083,-8.8009,-8.8294,-8.8574,-8.8709,-8.9171,-8.8902,-8.894,-8.8863,-8.8709,-8.9056,-8.9671,-8.994,-9.0094,-9.071,-9.0825,-9.0325,-6.8345,-6.8585,-6.8585,-6.8734,-6.9034,-6.9423,-6.9572,-6.9602,-6.9961,-7.029,-7.047,-7.0231,-7.029,-7.053,-7.053,-7.0679,-7.0889,-7.0919,-7.0919,-7.0919,-7.0919,-7.0919,-7.0919,-7.0919,-7.0919,-7.0919,-7.0919,-7.0919,-7.1083,-7.1855,-7.2984,-7.4379,-7.666,-7.8238,-7.8855,-7.9734,-8.0209,-8.0209,-8.0209,-8.0209,-8.0209,-8.0209,-8.0209,-8.0209,-8.0209,-8.0209,-8.0209,-8.0209,-8.0209,-8.0209,-8.0209,-8.0209,-8.0209,-8.0209,-8.0209,-8.0209,-8.0209,-8.0209,-8.0209,-8.0209,-8.0209,-8.0209,-8.0209,-8.0209,-8.0209,-8.0209,-8.0209,-8.0476,-8.2286,-8.4217,-8.5515,-8.6461,-8.7031,-8.7031,-8.7031,-8.7031,-8.7031,-8.7031,-8.7031,-8.7031,-8.7031,-8.7031,-8.7031,-8.7031,-8.7031,-8.7031,-8.7031,-8.7031,-8.7031,-8.7031,-8.7031,-8.6921,-8.6407,-8.6077,-8.6004,-8.6151,-8.6639,-8.7462,-8.8221,-8.8707,-8.9529,-8.9877,-9.0171,-9.0133,-9.0056,-9.0056,-9.0248,-9.0171,-9.0325,-9.0633,-9.0671,-9.0825,-9.1133,-9.121,-9.0787,-6.943,-6.9303,-6.9453,-6.9512,-6.9572,-7.0021,-7.0231,-7.029,-7.0709,-7.0919,-7.0919,-7.0919,-7.0919,-7.0919,-7.0919,-7.0919,-7.0919,-7.0919,-7.0919,-7.0919,-7.0919,-7.0919,-7.0919,-7.0919,-7.0919,-7.0919,-7.0919,-7.0919,-7.1083,-7.2487,-7.3506,-7.4259,-7.6604,-7.8131,-7.8644,-7.9683,-8.0209,-8.0209,-8.0209,-8.0209,-8.0209,-8.0209,-8.0209,-8.0209,-8.0209,-8.0209,-8.0209,-8.0209,-8.0209,-8.0209,-8.0209,-8.0209,-8.0209,-8.0209,-8.0209,-8.0209,-8.0209,-8.0209,-8.0209,-8.0209,-8.0209,-8.0209,-8.0209,-8.0209,-8.0209,-8.0209,-8.022,-8.035,-8.2276,-8.3899,-8.4727,-8.6101,-8.696,-8.7031,-8.7031,-8.7031,-8.7031,-8.7031,-8.7031,-8.7031,-8.7031,-8.7031,-8.7031,-8.7031,-8.7031,-8.7031,-8.7031,-8.7031,-8.7031,-8.7031,-8.7031,-8.7031,-8.6995,-8.6958,-8.7031,-8.6921,-8.7581,-8.8153,-8.8626,-8.9375,-9.0546,-9.0762,-9.1171,-9.071,-9.1056,-9.1133,-9.0864,-9.1018,-9.1133,-9.1171,-9.1171,-9.1171,-9.1171,-9.121,-9.121,-7.0468,-7.0085,-7.056,-7.0739,-7.0799,-7.0829,-7.0829,-7.0799,-7.0889,-7.0919,-7.0919,-7.0919,-7.0919,-7.0919,-7.0919,-7.0919,-7.0919,-7.0919,-7.0919,-7.0919,-7.0919,-7.0919,-7.0919,-7.0919,-7.0919,-7.0919,-7.0919,-7.0954,-7.1083,-7.2519,-7.3988,-7.5579,-7.7248,-7.8697,-7.9785,-8.0074,-8.0209,-8.0209,-8.0209,-8.0209,-8.0209,-8.0209,-8.0209,-8.0209,-8.0209,-8.0209,-8.0209,-8.0209,-8.0209,-8.0209,-8.0209,-8.0209,-8.0209,-8.0209,-8.0209,-8.0209,-8.0209,-8.0209,-8.0209,-8.0209,-8.0209,-8.0209,-8.0209,-8.0209,-8.0209,-8.0209,-8.0191,-8.0258,-8.2139,-8.3774,-8.461,-8.6065,-8.696,-8.7031,-8.7031,-8.7031,-8.7031,-8.7031,-8.7031,-8.7031,-8.7031,-8.7031,-8.7031,-8.7031,-8.7031,-8.7031,-8.7031,-8.7031,-8.7031,-8.7031,-8.7031,-8.7031,-8.7031,-8.7031,-8.7031,-8.7031,-8.7029,-8.7646,-8.8551,-8.9161,-8.9621,-9.0133,-9.0743,-9.121,-9.121,-9.121,-9.121,-9.1171,-9.1171,-9.121,-9.121,-9.121,-9.121,-9.121,-9.121,-7.0813,-7.059,-7.0799,-7.0919,-7.0919,-7.0919,-7.0919,-7.0919,-7.0919,-7.0919,-7.0919,-7.0919,-7.0919,-7.0919,-7.0919,-7.0919,-7.0919,-7.0919,-7.0919,-7.0919,-7.0919,-7.0919,-7.0919,-7.0919,-7.0919,-7.0919,-7.0919,-7.1439,-7.2457,-7.3988,-7.549,-7.7082,-7.8644,-7.9683,-8.0124,-8.0209,-8.0209,-8.0209,-8.0209,-8.0209,-8.0209,-8.0209,-8.0209,-8.0209,-8.0209,-8.0209,-8.0209,-8.0209,-8.0209,-8.0209,-8.0209,-8.0209,-8.0209,-8.0209,-8.0209,-8.0209,-8.0209,-8.0209,-8.0209,-8.0209,-8.0209,-8.0209,-8.0209,-8.0209,-8.0209,-8.0209,-8.0209,-8.0492,-8.1535,-8.2866,-8.4141,-8.5807,-8.7031,-8.7031,-8.7031,-8.7031,-8.7031,-8.7031,-8.7031,-8.7031,-8.7031,-8.7031,-8.7031,-8.7031,-8.7031,-8.7031,-8.7031,-8.7031,-8.7031,-8.7031,-8.7031,-8.7031,-8.7031,-8.7031,-8.7031,-8.7031,-8.7129,-8.7804,-8.8532,-8.9213,-8.9763,-9.0426,-9.1118,-9.1192,-9.121,-9.121,-9.121,-9.121,-9.121,-9.121,-9.121,-9.121,-9.121,-9.121,-9.121,-7.0919,-7.0919,-7.0919,-7.0919,-7.0919,-7.0919,-7.0919,-7.0919,-7.0919,-7.0919,-7.0919,-7.0919,-7.0919,-7.0919,-7.0919,-7.0919,-7.0919,-7.0919,-7.0919,-7.0919,-7.0919,-7.0919,-7.0919,-7.0919,-7.0919,-7.1018,-7.1439,-7.2237,-7.3352,-7.5316,-7.6828,-7.7936,-7.9443,-8.0209,-8.0209,-8.0209,-8.0209,-8.0209,-8.0209,-8.0209,-8.0209,-8.0209,-8.0209,-8.0209,-8.0209,-8.0209,-8.0209,-8.0209,-8.0209,-8.0209,-8.0209,-8.0209,-8.0209,-8.0209,-8.0209,-8.0209,-8.0209,-8.0209,-8.0209,-8.0209,-8.0209,-8.0209,-8.0209,-8.0209,-8.0209,-8.0209,-8.0209,-8.0442,-8.1663,-8.2839,-8.3832,-8.5656,-8.696,-8.7031,-8.7031,-8.7031,-8.7031,-8.7031,-8.7031,-8.7031,-8.7031,-8.7031,-8.7031,-8.7031,-8.7031,-8.7031,-8.7031,-8.7031,-8.7031,-8.7031,-8.7031,-8.7031,-8.7031,-8.7031,-8.7031,-8.7031,-8.6995,-8.7586,-8.8532,-8.9238,-8.9878,-9.0626,-9.1136,-9.1192,-9.121,-9.121,-9.121,-9.121,-9.121,-9.121,-9.121,-9.121,-9.121,-9.121,-9.121,-7.0919,-7.0919,-7.0919,-7.0919,-7.0919,-7.0919,-7.0919,-7.0919,-7.0919,-7.0919,-7.0919,-7.0919,-7.0919,-7.0919,-7.0919,-7.0919,-7.0919,-7.0919,-7.0919,-7.0919,-7.0919,-7.0919,-7.0919,-7.0919,-7.1018,-7.1212,-7.2518,-7.3261,-7.3807,-7.6322,-7.7828,-7.8238,-7.9495,-8.0209,-8.0209,-8.0209,-8.0209,-8.0209,-8.0209,-8.0209,-8.0209,-8.0209,-8.0209,-8.0209,-8.0209,-8.0209,-8.0209,-8.0209,-8.0209,-8.0209,-8.0209,-8.0209,-8.0209,-8.0209,-8.0209,-8.0209,-8.0209,-8.0209,-8.0209,-8.0209,-8.0209,-8.0209,-8.0209,-8.0209,-8.0209,-8.0209,-8.0209,-8.0492,-8.1968,-8.3457,-8.3832,-8.5506,-8.6891,-8.7031,-8.7031,-8.7031,-8.7031,-8.7031,-8.7031,-8.7031,-8.7031,-8.7031,-8.7031,-8.7031,-8.7031,-8.7031,-8.7031,-8.7031,-8.7031,-8.7031,-8.7031,-8.7031,-8.7031,-8.7031,-8.7031,-8.7031,-8.7029,-8.7261,-8.8359,-8.9301,-8.9763,-9.0426,-9.1026,-9.121,-9.121,-9.121,-9.121,-9.121,-9.121,-9.121,-9.121,-9.121,-9.121,-9.121,-9.121,-7.0919,-7.0919,-7.0919,-7.0919,-7.0919,-7.0919,-7.0919,-7.0919,-7.0919,-7.0919,-7.0919,-7.0919,-7.0919,-7.0919,-7.0919,-7.0919,-7.0919,-7.0919,-7.0919,-7.0919,-7.0919,-7.0919,-7.0889,-7.0919,-7.1503,-7.2455,-7.3046,-7.4438,-7.6266,-7.7413,-7.8345,-7.9392,-7.9921,-8.0209,-8.0209,-8.0209,-8.0209,-8.0209,-8.0209,-8.0209,-8.0209,-8.0209,-8.0209,-8.0209,-8.0209,-8.0209,-8.0209,-8.0209,-8.0209,-8.0209,-8.0209,-8.0209,-8.0209,-8.0209,-8.0209,-8.0209,-8.0209,-8.0209,-8.0209,-8.0209,-8.0209,-8.0209,-8.0209,-8.0209,-8.0209,-8.0209,-8.0209,-8.0276,-8.1569,-8.2661,-8.3663,-8.4927,-8.6138,-8.6925,-8.7031,-8.7031,-8.7031,-8.7031,-8.7031,-8.7031,-8.7031,-8.7031,-8.7031,-8.7031,-8.7031,-8.7031,-8.7031,-8.7031,-8.7031,-8.7031,-8.7031,-8.7031,-8.7031,-8.7031,-8.7031,-8.7132,-8.7228,-8.7581,-8.8523,-8.9327,-8.9786,-9.0364,-9.0914,-9.121,-9.121,-9.121,-9.121,-9.121,-9.121,-9.121,-9.121,-9.121,-9.121,-9.121,-9.121,-7.0919,-7.0919,-7.0919,-7.0919,-7.0919,-7.0919,-7.0919,-7.0919,-7.0919,-7.0919,-7.0919,-7.0919,-7.0919,-7.0919,-7.0919,-7.0919,-7.0919,-7.0919,-7.0919,-7.0919,-7.0919,-7.0919,-7.1018,-7.1567,-7.2204,-7.3384,-7.4466,-7.5981,-7.7828,-7.8538,-7.9254,-8.0023,-8.0209,-8.0209,-8.0209,-8.0209,-8.0209,-8.0209,-8.0209,-8.0209,-8.0209,-8.0209,-8.0209,-8.0209,-8.0209,-8.0209,-8.0209,-8.0209,-8.0209,-8.0209,-8.0209,-8.0209,-8.0209,-8.0209,-8.0209,-8.0209,-8.0209,-8.0209,-8.0209,-8.0209,-8.0209,-8.0209,-8.0209,-8.0209,-8.0209,-8.0209,-8.0209,-8.0326,-8.1676,-8.2839,-8.3628,-8.5084,-8.6174,-8.6891,-8.7031,-8.7031,-8.7031,-8.7031,-8.7031,-8.7031,-8.7031,-8.7031,-8.7031,-8.7031,-8.7031,-8.7031,-8.7031,-8.7031,-8.7031,-8.7031,-8.7031,-8.7031,-8.7031,-8.7031,-8.7031,-8.7197,-8.7456,-8.807,-8.8801,-8.9389,-8.9901,-9.0586,-9.121,-9.121,-9.121,-9.121,-9.121,-9.121,-9.121,-9.121,-9.121,-9.121,-9.121,-9.121,-9.121,-7.0919,-7.0919,-7.0919,-7.0919,-7.0919,-7.0919,-7.0919,-7.0919,-7.0919,-7.0919,-7.0919,-7.0919,-7.0919,-7.0919,-7.0919,-7.0919,-7.0919,-7.0919,-7.0919,-7.0954,-7.1083,-7.1247,-7.1439,-7.2736,-7.3627,-7.4319,-7.6379,-7.7773,-7.8345,-7.9392,-8.0209,-8.0209,-8.0209,-8.0209,-8.0209,-8.0209,-8.0209,-8.0209,-8.0209,-8.0209,-8.0209,-8.0209,-8.0209,-8.0209,-8.0209,-8.0209,-8.0209,-8.0209,-8.0209,-8.0209,-8.0209,-8.0209,-8.0209,-8.0209,-8.0209,-8.0209,-8.0209,-8.0209,-8.0209,-8.0209,-8.0209,-8.0209,-8.0209,-8.0209,-8.0209,-8.0209,-8.0326,-8.0591,-8.229,-8.3543,-8.4088,-8.5582,-8.6784,-8.6997,-8.7031,-8.7031,-8.7031,-8.7031,-8.7031,-8.7031,-8.7031,-8.7031,-8.7031,-8.7031,-8.7031,-8.7031,-8.7031,-8.7031,-8.7031,-8.7031,-8.7031,-8.7031,-8.7031,-8.7031,-8.7031,-8.7029,-8.7427,-8.8417,-8.9069,-8.9573,-9.0116,-9.0781,-9.121,-9.121,-9.121,-9.121,-9.121,-9.121,-9.121,-9.121,-9.121,-9.121,-9.121,-9.121,-9.121,-7.0919,-7.0919,-7.0919,-7.0919,-7.0919,-7.0919,-7.0919,-7.0919,-7.0919,-7.0919,-7.0919,-7.0919,-7.0919,-7.0919,-7.0919,-7.0919,-7.0919,-7.0919,-7.0919,-7.1083,-7.2111,-7.2612,-7.2953,-7.4259,-7.5579,-7.6636,-7.7501,-7.8452,-7.9546,-7.9972,-8.0209,-8.0209,-8.0209,-8.0209,-8.0209,-8.0209,-8.0209,-8.0209,-8.0209,-8.0209,-8.0209,-8.0209,-8.0209,-8.0209,-8.0209,-8.0209,-8.0209,-8.0209,-8.0209,-8.0209,-8.0209,-8.0209,-8.0209,-8.0209,-8.0209,-8.0209,-8.0209,-8.0209,-8.0209,-8.0209,-8.0209,-8.0209,-8.0209,-8.0209,-8.0209,-8.0209,-8.0641,-8.1379,-8.2839,-8.3922,-8.4812,-8.6101,-8.6891,-8.7031,-8.7031,-8.7031,-8.7031,-8.7031,-8.7031,-8.7031,-8.7031,-8.7031,-8.7031,-8.7031,-8.7031,-8.7031,-8.7031,-8.7031,-8.7031,-8.7031,-8.7031,-8.7031,-8.7031,-8.7031,-8.7031,-8.7031,-8.7489,-8.8608,-8.9327,-8.974,-9.0385,-9.1026,-9.121,-9.121,-9.121,-9.121,-9.121,-9.121,-9.121,-9.121,-9.121,-9.121,-9.121,-9.121,-9.121,-7.0919,-7.0919,-7.0919,-7.0919,-7.0919,-7.0919,-7.0919,-7.0919,-7.0919,-7.0919,-7.0919,-7.0919,-7.0919,-7.0919,-7.0919,-7.0919,-7.0919,-7.0919,-7.1247,-7.2299,-7.4197,-7.4821,-7.4821,-7.5867,-7.7082,-7.7882,-7.8591,-7.934,-8.0023,-8.0209,-8.0209,-8.0209,-8.0209,-8.0209,-8.0209,-8.0209,-8.0209,-8.0209,-8.0209,-8.0209,-8.0209,-8.0209,-8.0209,-8.0209,-8.0209,-8.0209,-8.0209,-8.0209,-8.0209,-8.0209,-8.0209,-8.0209,-8.0209,-8.0209,-8.0209,-8.0209,-8.0209,-8.0209,-8.0209,-8.0209,-8.0209,-8.0209,-8.0209,-8.0209,-8.0209,-8.0209,-8.0656,-8.177,-8.2928,-8.4083,-8.5201,-8.632,-8.6891,-8.7031,-8.7031,-8.7031,-8.7031,-8.7031,-8.7031,-8.7031,-8.7031,-8.7031,-8.7031,-8.7031,-8.7031,-8.7031,-8.7031,-8.7031,-8.7031,-8.7031,-8.7031,-8.7031,-8.7031,-8.7031,-8.7029,-8.7064,-8.7704,-8.8829,-8.9847,-9.022,-9.0566,-9.121,-9.121,-9.121,-9.121,-9.121,-9.121,-9.121,-9.121,-9.121,-9.121,-9.121,-9.121,-9.121,-9.121,-7.0919,-7.0919,-7.0919,-7.0919,-7.0919,-7.0919,-7.0919,-7.0919,-7.0919,-7.0919,-7.0919,-7.0919,-7.0919,-7.0919,-7.0919,-7.0919,-7.0919,-7.1247,-7.2237,-7.3868,-7.5892,-7.6883,-7.6095,-7.7413,-7.8184,-7.8505,-7.9632,-8.0023,-8.0209,-8.0209,-8.0209,-8.0209,-8.0209,-8.0209,-8.0209,-8.0209,-8.0209,-8.0209,-8.0209,-8.0209,-8.0209,-8.0209,-8.0209,-8.0209,-8.0209,-8.0209,-8.0209,-8.0209,-8.0209,-8.0209,-8.0209,-8.0209,-8.0209,-8.0209,-8.0209,-8.0209,-8.0209,-8.0209,-8.0209,-8.0209,-8.0209,-8.0209,-8.0209,-8.0209,-8.0259,-8.0426,-8.1029,-8.2198,-8.3112,-8.4411,-8.5506,-8.65,-8.6891,-8.7031,-8.7031,-8.7031,-8.7031,-8.7031,-8.7031,-8.7031,-8.7031,-8.7031,-8.7031,-8.7031,-8.7031,-8.7031,-8.7031,-8.7031,-8.7031,-8.7031,-8.7031,-8.7031,-8.7031,-8.7031,-8.7064,-8.7132,-8.807,-8.9058,-9.0279,-9.0858,-9.0858,-9.121,-9.121,-9.121,-9.121,-9.121,-9.121,-9.121,-9.121,-9.121,-9.121,-9.121,-9.121,-9.121,-9.121,-7.0919,-7.0919,-7.0919,-7.0919,-7.0919,-7.0919,-7.0919,-7.0919,-7.0919,-7.0919,-7.0919,-7.0919,-7.0919,-7.0919,-7.0919,-7.0919,-7.1148,-7.2141,-7.3596,-7.5231,-7.6883,-7.7719,-7.7719,-7.8941,-7.9546,-7.9734,-7.9972,-8.0209,-8.0209,-8.0209,-8.0209,-8.0209,-8.0209,-8.0209,-8.0209,-8.0209,-8.0209,-8.0209,-8.0209,-8.0209,-8.0209,-8.0209,-8.0209,-8.0209,-8.0209,-8.0209,-8.0209,-8.0209,-8.0209,-8.0209,-8.0209,-8.0209,-8.0209,-8.0209,-8.0209,-8.0209,-8.0209,-8.0209,-8.0209,-8.0209,-8.0209,-8.0209,-8.0209,-8.0209,-8.0276,-8.1029,-8.1922,-8.3147,-8.4289,-8.5314,-8.632,-8.6784,-8.696,-8.7031,-8.7031,-8.7031,-8.7031,-8.7031,-8.7031,-8.7031,-8.7031,-8.7031,-8.7031,-8.7031,-8.7031,-8.7031,-8.7031,-8.7031,-8.7031,-8.7031,-8.7031,-8.7031,-8.7031,-8.7031,-8.7163,-8.7456,-8.8466,-8.9339,-9.0447,-9.1192,-9.121,-9.121,-9.121,-9.121,-9.121,-9.121,-9.121,-9.121,-9.121,-9.121,-9.121,-9.121,-9.121,-9.121,-9.121,-7.0919,-7.0919,-7.0919,-7.0919,-7.0919,-7.0919,-7.0919,-7.0919,-7.0919,-7.0919,-7.0919,-7.0919,-7.0919,-7.0919,-7.0919,-7.0919,-7.1503,-7.3384,-7.5231,-7.6748,-7.8238,-7.8941,-7.9046,-7.9683,-8.0209,-8.0209,-8.0209,-8.0209,-8.0209,-8.0209,-8.0209,-8.0209,-8.0209,-8.0209,-8.0209,-8.0209,-8.0209,-8.0209,-8.0209,-8.0209,-8.0209,-8.0209,-8.0209,-8.0209,-8.0209,-8.0209,-8.0209,-8.0209,-8.0209,-8.0209,-8.0209,-8.0209,-8.0209,-8.0209,-8.0209,-8.0209,-8.0209,-8.0209,-8.0209,-8.0209,-8.0209,-8.0209,-8.0209,-8.0209,-8.0442,-8.1235,-8.2381,-8.3536,-8.4613,-8.5768,-8.6856,-8.7031,-8.7031,-8.7031,-8.7031,-8.7031,-8.7031,-8.7031,-8.7031,-8.7031,-8.7031,-8.7031,-8.7031,-8.7031,-8.7031,-8.7031,-8.7031,-8.7031,-8.7031,-8.7031,-8.7031,-8.7031,-8.7031,-8.7064,-8.7265,-8.7861,-8.8899,-8.974,-9.0586,-9.1082,-9.121,-9.121,-9.121,-9.121,-9.121,-9.121,-9.121,-9.121,-9.121,-9.121,-9.121,-9.121,-9.121,-9.121,-9.121,-7.0919,-7.0919,-7.0919,-7.0919,-7.0919,-7.0919,-7.0919,-7.0919,-7.0919,-7.0919,-7.0919,-7.0919,-7.0919,-7.0919,-7.0919,-7.1018,-7.2362,-7.4048,-7.6152,-7.7719,-7.9202,-7.9546,-7.9632,-7.9836,-8.0209,-8.0209,-8.0209,-8.0209,-8.0209,-8.0209,-8.0209,-8.0209,-8.0209,-8.0209,-8.0209,-8.0209,-8.0209,-8.0209,-8.0209,-8.0209,-8.0209,-8.0209,-8.0209,-8.0209,-8.0209,-8.0209,-8.0209,-8.0209,-8.0209,-8.0209,-8.0209,-8.0209,-8.0209,-8.0209,-8.0209,-8.0209,-8.0209,-8.0209,-8.0209,-8.0209,-8.0209,-8.0209,-8.0209,-8.0209,-8.0442,-8.1474,-8.2616,-8.367,-8.4809,-8.6064,-8.6891,-8.7031,-8.7031,-8.7031,-8.7031,-8.7031,-8.7031,-8.7031,-8.7031,-8.7031,-8.7031,-8.7031,-8.7031,-8.7031,-8.7031,-8.7031,-8.7031,-8.7031,-8.7031,-8.7031,-8.7031,-8.7031,-8.7031,-8.7614,-8.7892,-8.8093,-8.9161,-9.0155,-9.0876,-9.1008,-9.121,-9.121,-9.121,-9.121,-9.121,-9.121,-9.121,-9.121,-9.121,-9.121,-9.121,-9.121,-9.121,-9.121,-9.121,-7.0919,-7.0919,-7.0919,-7.0919,-7.0919,-7.0919,-7.0919,-7.0919,-7.0919,-7.0919,-7.0919,-7.0919,-7.0919,-7.0919,-7.0889,-7.2237,-7.4347,-7.5522,-7.6524,-7.8044,-7.9443,-7.9734,-7.9098,-7.9785,-8.0209,-8.0209,-8.0209,-8.0209,-8.0209,-8.0209,-8.0209,-8.0209,-8.0209,-8.0209,-8.0209,-8.0209,-8.0209,-8.0209,-8.0209,-8.0209,-8.0209,-8.0209,-8.0209,-8.0209,-8.0209,-8.0209,-8.0209,-8.0209,-8.0209,-8.0209,-8.0209,-8.0209,-8.0209,-8.0209,-8.0209,-8.0209,-8.0209,-8.0209,-8.0209,-8.0209,-8.0209,-8.0209,-8.0209,-8.0225,-8.0706,-8.2014,-8.3242,-8.4207,-8.5468,-8.6749,-8.696,-8.7031,-8.7031,-8.7031,-8.7031,-8.7031,-8.7031,-8.7031,-8.7031,-8.7031,-8.7031,-8.7031,-8.7031,-8.7031,-8.7031,-8.7031,-8.7031,-8.7031,-8.7031,-8.7031,-8.7031,-8.7031,-8.7031,-8.7861,-8.8636,-8.8829,-8.9389,-9.0426,-9.1082,-9.1082,-9.121,-9.121,-9.121,-9.121,-9.121,-9.121,-9.121,-9.121,-9.121,-9.121,-9.121,-9.121,-9.121,-9.121,-9.121,-7.0919,-7.0919,-7.0919,-7.0919,-7.0919,-7.0919,-7.0919,-7.0919,-7.0919,-7.0919,-7.0919,-7.0919,-7.0919,-7.1083,-7.1825,-7.3807,-7.5867,-7.5867,-7.6971,-7.8802,-7.9785,-7.9887,-7.9098,-7.9921,-8.0074,-8.0209,-8.0209,-8.0209,-8.0209,-8.0209,-8.0209,-8.0209,-8.0209,-8.0209,-8.0209,-8.0209,-8.0209,-8.0209,-8.0209,-8.0209,-8.0209,-8.0209,-8.0209,-8.0209,-8.0209,-8.0209,-8.0209,-8.0209,-8.0209,-8.0209,-8.0209,-8.0209,-8.0209,-8.0209,-8.0209,-8.0209,-8.0209,-8.0209,-8.0209,-8.0209,-8.0209,-8.0209,-8.0259,-8.0542,-8.1235,-8.2571,-8.4041,-8.5314,-8.5917,-8.7031,-8.7031,-8.7031,-8.7031,-8.7031,-8.7031,-8.7031,-8.7031,-8.7031,-8.7031,-8.7031,-8.7031,-8.7031,-8.7031,-8.7031,-8.7031,-8.7031,-8.7031,-8.7031,-8.7031,-8.7031,-8.7031,-8.7031,-8.7064,-8.783,-8.8691,-8.9069,-8.9621,-9.0664,-9.121,-9.121,-9.121,-9.121,-9.121,-9.121,-9.121,-9.121,-9.121,-9.121,-9.121,-9.121,-9.121,-9.121,-9.121,-9.121,-9.121,-7.0919,-7.0919,-7.0919,-7.0919,-7.0919,-7.0919,-7.0919,-7.0919,-7.0919,-7.0919,-7.0919,-7.0919,-7.0919,-7.1182,-7.2299,-7.4137,-7.6804,-7.5752,-7.7193,-7.9046,-8.0023,-8.0175,-8.0209,-8.0209,-8.0209,-8.0209,-8.0209,-8.0209,-8.0209,-8.0209,-8.0209,-8.0209,-8.0209,-8.0209,-8.0209,-8.0209,-8.0209,-8.0209,-8.0209,-8.0209,-8.0209,-8.0209,-8.0209,-8.0209,-8.0209,-8.0209,-8.0209,-8.0209,-8.0209,-8.0209,-8.0209,-8.0209,-8.0209,-8.0209,-8.0209,-8.0209,-8.0209,-8.0209,-8.0209,-8.0209,-8.0209,-8.0209,-8.0476,-8.1063,-8.191,-8.3155,-8.4773,-8.65,-8.7031,-8.7031,-8.7031,-8.7031,-8.7031,-8.7031,-8.7031,-8.7031,-8.7031,-8.7031,-8.7031,-8.7031,-8.7031,-8.7031,-8.7031,-8.7031,-8.7031,-8.7031,-8.7031,-8.7031,-8.7031,-8.7031,-8.7031,-8.7031,-8.7231,-8.783,-8.8466,-8.9043,-8.9801,-9.0858,-9.1192,-9.121,-9.121,-9.121,-9.121,-9.121,-9.121,-9.121,-9.121,-9.121,-9.121,-9.121,-9.121,-9.121,-9.121,-9.121,-9.121,-7.0919,-7.0919,-7.0919,-7.0919,-7.0919,-7.0919,-7.0919,-7.0919,-7.0919,-7.0919,-7.0919,-7.0889,-7.0889,-7.1186,-7.1247,-7.2362,-7.408,-7.5522,-7.6916,-7.875,-7.9734,-8.0209,-8.0209,-8.0209,-8.0209,-8.0209,-8.0209,-8.0209,-8.0209,-8.0209,-8.0209,-8.0209,-8.0209,-8.0209,-8.0209,-8.0209,-8.0209,-8.0209,-8.0209,-8.0209,-8.0209,-8.0209,-8.0209,-8.0209,-8.0209,-8.0209,-8.0209,-8.0209,-8.0209,-8.0209,-8.0209,-8.0209,-8.0209,-8.0209,-8.0209,-8.0209,-8.0209,-8.0209,-8.0209,-8.0209,-8.0209,-8.0426,-8.1014,-8.1663,-8.2661,-8.4006,-8.5656,-8.6749,-8.7031,-8.7031,-8.7031,-8.7031,-8.7031,-8.7031,-8.7031,-8.7031,-8.7031,-8.7031,-8.7031,-8.7031,-8.7031,-8.7031,-8.7031,-8.7031,-8.7031,-8.7031,-8.7031,-8.7031,-8.7031,-8.7031,-8.7031,-8.7031,-8.7129,-8.7704,-8.8494,-8.9016,-8.987,-9.0989,-9.1136,-9.121,-9.121,-9.121,-9.121,-9.121,-9.121,-9.121,-9.121,-9.121,-9.121,-9.121,-9.121,-9.121,-9.121,-9.121,-9.121,-7.0919,-7.0919,-7.0919,-7.0919,-7.0919,-7.0919,-7.0919,-7.0919,-7.0919,-7.0919,-7.0919,-7.0889,-7.1483,-7.2213,-7.2366,-7.4197,-7.6491,-7.6916,-7.7719,-7.8836,-7.9785,-8.0209,-8.0209,-8.0209,-8.0209,-8.0209,-8.0209,-8.0209,-8.0209,-8.0209,-8.0209,-8.0209,-8.0209,-8.0209,-8.0209,-8.0209,-8.0209,-8.0209,-8.0209,-8.0209,-8.0209,-8.0209,-8.0209,-8.0209,-8.0209,-8.0209,-8.0209,-8.0209,-8.0209,-8.0209,-8.0209,-8.0209,-8.0209,-8.0209,-8.0209,-8.0209,-8.0209,-8.0209,-8.0209,-8.0209,-8.0225,-8.0492,-8.1331,-8.2391,-8.367,-8.5162,-8.632,-8.6925,-8.7031,-8.7031,-8.7031,-8.7031,-8.7031,-8.7031,-8.7031,-8.7031,-8.7031,-8.7031,-8.7031,-8.7031,-8.7031,-8.7031,-8.7031,-8.7031,-8.7031,-8.7031,-8.7031,-8.7031,-8.7031,-8.7031,-8.7031,-8.7031,-8.7231,-8.7554,-8.8417,-8.9148,-8.987,-9.0762,-9.1154,-9.121,-9.121,-9.121,-9.121,-9.121,-9.121,-9.121,-9.121,-9.121,-9.121,-9.121,-9.121,-9.121,-9.121,-9.121,-9.121,-7.0919,-7.0919,-7.0919,-7.0919,-7.0919,-7.0919,-7.0919,-7.0919,-7.0919,-7.0919,-7.1018,-7.1311,-7.2243,-7.3185,-7.3589,-7.4966,-7.7303,-7.7828,-7.8291,-7.8993,-7.9785,-8.0209,-8.0209,-8.0209,-8.0209,-8.0209,-8.0209,-8.0209,-8.0209,-8.0209,-8.0209,-8.0209,-8.0209,-8.0209,-8.0209,-8.0209,-8.0209,-8.0209,-8.0209,-8.0209,-8.0209,-8.0209,-8.0209,-8.0209,-8.0209,-8.0209,-8.0209,-8.0209,-8.0209,-8.0209,-8.0209,-8.0209,-8.0209,-8.0209,-8.0209,-8.0209,-8.0209,-8.0209,-8.0209,-8.0259,-8.0326,-8.0966,-8.206,-8.3797,-8.5353,-8.6608,-8.7031,-8.7031,-8.7031,-8.7031,-8.7031,-8.7031,-8.7031,-8.7031,-8.7031,-8.7031,-8.7031,-8.7031,-8.7031,-8.7031,-8.7031,-8.7031,-8.7031,-8.7031,-8.7031,-8.7031,-8.7031,-8.7031,-8.7031,-8.7031,-8.7031,-8.7031,-8.7166,-8.7586,-8.8523,-8.9289,-9.0028,-9.0606,-9.1008,-9.121,-9.121,-9.121,-9.121,-9.121,-9.121,-9.121,-9.121,-9.121,-9.121,-9.121,-9.121,-9.121,-9.121,-9.121,-9.121,-7.0919,-7.0919,-7.0919,-7.0919,-7.0919,-7.0919,-7.0919,-7.0919,-7.0919,-7.0919,-7.1083,-7.2204,-7.2174,-7.2394,-7.3986,-7.4228,-7.2457,-7.6095,-7.7248,-7.7828,-7.8591,-7.9972,-8.0209,-8.0209,-8.0209,-8.0209,-8.0209,-8.0209,-8.0209,-8.0209,-8.0209,-8.0209,-8.0209,-8.0209,-8.0209,-8.0209,-8.0209,-8.0209,-8.0209,-8.0209,-8.0209,-8.0209,-8.0209,-8.0209,-8.0209,-8.0209,-8.0209,-8.0209,-8.0209,-8.0209,-8.0209,-8.0209,-8.0209,-8.0209,-8.0209,-8.0209,-8.0209,-8.0209,-8.0209,-8.0276,-8.0853,-8.2014,-8.3457,-8.4967,-8.6428,-8.6784,-8.7031,-8.7031,-8.7031,-8.7031,-8.7031,-8.7031,-8.7031,-8.7031,-8.7031,-8.7031,-8.7031,-8.7031,-8.7031,-8.7031,-8.7031,-8.7031,-8.7031,-8.7031,-8.7031,-8.7031,-8.7031,-8.7031,-8.7031,-8.7031,-8.7031,-8.7031,-8.7098,-8.7646,-8.8709,-8.9425,-8.9898,-9.053,-9.11,-9.121,-9.121,-9.121,-9.121,-9.121,-9.121,-9.121,-9.121,-9.121,-9.121,-9.121,-9.121,-9.121,-9.121,-9.121,-9.121,-7.0919,-7.0919,-7.0919,-7.0919,-7.0919,-7.0919,-7.0919,-7.0919,-7.0919,-7.0919,-7.0954,-7.1567,-7.2952,-7.4395,-7.5007,-7.6209,-7.666,-7.8151,-7.8644,-7.8888,-7.9683,-8.0158,-8.0209,-8.0209,-8.0209,-8.0209,-8.0209,-8.0209,-8.0209,-8.0209,-8.0209,-8.0209,-8.0209,-8.0209,-8.0209,-8.0209,-8.0209,-8.0209,-8.0209,-8.0209,-8.0209,-8.0209,-8.0209,-8.0209,-8.0209,-8.0209,-8.0209,-8.0209,-8.0209,-8.0209,-8.0209,-8.0209,-8.0209,-8.0209,-8.0209,-8.0209,-8.0209,-8.0209,-8.0259,-8.0376,-8.1014,-8.2661,-8.3839,-8.5084,-8.6784,-8.6997,-8.7031,-8.7031,-8.7031,-8.7031,-8.7031,-8.7031,-8.7031,-8.7031,-8.7031,-8.7031,-8.7031,-8.7031,-8.7031,-8.7031,-8.7031,-8.7031,-8.7031,-8.7031,-8.7031,-8.7031,-8.7031,-8.7031,-8.7031,-8.7031,-8.7031,-8.7163,-8.7298,-8.7799,-8.8845,-8.9311,-8.9686,-9.0453,-9.121,-9.121,-9.121,-9.121,-9.121,-9.121,-9.121,-9.121,-9.121,-9.121,-9.121,-9.121,-9.121,-9.121,-9.121,-9.121,-9.121,-7.0919,-7.0919,-7.0919,-7.0919,-7.0919,-7.0919,-7.0919,-7.0919,-7.0919,-7.0919,-7.0954,-7.1469,-7.2732,-7.4879,-7.6353,-7.6266,-7.7665,-7.8993,-7.958,-7.9683,-7.9734,-8.0124,-8.0209,-8.0209,-8.0209,-8.0209,-8.0209,-8.0209,-8.0209,-8.0209,-8.0209,-8.0209,-8.0209,-8.0209,-8.0209,-8.0209,-8.0209,-8.0209,-8.0209,-8.0209,-8.0209,-8.0209,-8.0209,-8.0209,-8.0209,-8.0209,-8.0209,-8.0209,-8.0209,-8.0209,-8.0209,-8.0209,-8.0209,-8.0209,-8.0209,-8.0209,-8.0209,-8.0209,-8.0276,-8.1111,-8.1863,-8.3242,-8.4532,-8.5618,-8.65,-8.7031,-8.7031,-8.7031,-8.7031,-8.7031,-8.7031,-8.7031,-8.7031,-8.7031,-8.7031,-8.7031,-8.7031,-8.7031,-8.7031,-8.7031,-8.7031,-8.7031,-8.7031,-8.7031,-8.7031,-8.7031,-8.7031,-8.7031,-8.7031,-8.7031,-8.7031,-8.7265,-8.7554,-8.8249,-8.899,-8.9446,-8.9914,-9.0628,-9.121,-9.121,-9.121,-9.121,-9.121,-9.121,-9.121,-9.121,-9.121,-9.121,-9.121,-9.121,-9.121,-9.121,-9.121,-9.121,-9.121,-7.0919,-7.0919,-7.0919,-7.0919,-7.0919,-7.0919,-7.0919,-7.0919,-7.0919,-7.0919,-7.1083,-7.2235,-7.2267,-7.2798,-7.5637,-7.6435,-7.6209,-7.8591,-7.9683,-7.9098,-7.9734,-8.0158,-8.0209,-8.0209,-8.0209,-8.0209,-8.0209,-8.0209,-8.0209,-8.0209,-8.0209,-8.0209,-8.0209,-8.0209,-8.0209,-8.0209,-8.0209,-8.0209,-8.0209,-8.0209,-8.0209,-8.0209,-8.0209,-8.0209,-8.0209,-8.0209,-8.0209,-8.0209,-8.0209,-8.0209,-8.0209,-8.0209,-8.0209,-8.0209,-8.0209,-8.0209,-8.0209,-8.0259,-8.0376,-8.229,-8.3199,-8.3713,-8.4848,-8.632,-8.6856,-8.7031,-8.7031,-8.7031,-8.7031,-8.7031,-8.7031,-8.7031,-8.7031,-8.7031,-8.7031,-8.7031,-8.7031,-8.7031,-8.7031,-8.7031,-8.7031,-8.7031,-8.7031,-8.7031,-8.7031,-8.7031,-8.7031,-8.7031,-8.7031,-8.7031,-8.7031,-8.7361,-8.7741,-8.8417,-8.9084,-8.9611,-9.0155,-9.0818,-9.121,-9.121,-9.121,-9.121,-9.121,-9.121,-9.121,-9.121,-9.121,-9.121,-9.121,-9.121,-9.121,-9.121,-9.121,-9.121,-9.121,-7.0919,-7.0919,-7.0919,-7.0919,-7.0919,-7.0919,-7.0919,-7.0919,-7.0919,-7.0919,-7.0954,-7.1567,-7.2204,-7.3169,-7.4762,-7.6209,-7.6971,-7.8345,-7.9632,-7.958,-8.0023,-8.0124,-8.0209,-8.0209,-8.0209,-8.0209,-8.0209,-8.0209,-8.0209,-8.0209,-8.0209,-8.0209,-8.0209,-8.0209,-8.0209,-8.0209,-8.0209,-8.0209,-8.0209,-8.0209,-8.0209,-8.0209,-8.0209,-8.0209,-8.0209,-8.0209,-8.0209,-8.0209,-8.0209,-8.0209,-8.0209,-8.0209,-8.0209,-8.0209,-8.0209,-8.0209,-8.0259,-8.0607,-8.1331,-8.2706,-8.3457,-8.4165,-8.5045,-8.6392,-8.6856,-8.6997,-8.7031,-8.7031,-8.7031,-8.7031,-8.7031,-8.7031,-8.7031,-8.7031,-8.7031,-8.7031,-8.7031,-8.7031,-8.7031,-8.7031,-8.7031,-8.7031,-8.7031,-8.7031,-8.7031,-8.7031,-8.7031,-8.7031,-8.7031,-8.7031,-8.7029,-8.7456,-8.7886,-8.8551,-8.9213,-8.9914,-9.0413,-9.0969,-9.121,-9.121,-9.121,-9.121,-9.121,-9.121,-9.121,-9.121,-9.121,-9.121,-9.121,-9.121,-9.121,-9.121,-9.121,-9.121,-9.121,-7.0919,-7.0919,-7.0919,-7.0919,-7.0919,-7.0919,-7.0919,-7.0919,-7.0919,-7.0919,-7.0919,-7.0889,-7.1375,-7.2643,-7.4048,-7.5637,-7.7193,-7.8644,-8.0023,-8.0074,-8.0209,-8.0209,-8.0209,-8.0209,-8.0209,-8.0209,-8.0209,-8.0209,-8.0209,-8.0209,-8.0209,-8.0209,-8.0209,-8.0209,-8.0209,-8.0209,-8.0209,-8.0209,-8.0209,-8.0209,-8.0209,-8.0209,-8.0209,-8.0209,-8.0209,-8.0209,-8.0209,-8.0209,-8.0209,-8.0209,-8.0175,-8.0175,-8.0175,-8.0175,-8.0175,-8.0209,-8.0276,-8.0804,-8.1816,-8.2928,-8.3706,-8.437,-8.524,-8.6138,-8.6856,-8.6997,-8.7031,-8.7031,-8.7031,-8.7031,-8.7031,-8.7031,-8.6958,-8.6958,-8.6885,-8.6885,-8.6885,-8.6885,-8.6848,-8.6885,-8.6848,-8.6885,-8.6921,-8.7031,-8.7031,-8.7031,-8.7031,-8.7031,-8.7031,-8.7031,-8.7129,-8.7646,-8.8182,-8.8872,-8.9621,-9.0426,-9.0838,-9.1136,-9.121,-9.121,-9.121,-9.121,-9.121,-9.121,-9.121,-9.121,-9.121,-9.121,-9.121,-9.121,-9.121,-9.121,-9.121,-9.121,-9.121,-7.0919,-7.0919,-7.0919,-7.0919,-7.0919,-7.0919,-7.0919,-7.0919,-7.0919,-7.0919,-7.0919,-7.0919,-7.1083,-7.1311,-7.2674,-7.42,-7.5752,-7.7303,-7.8697,-7.9734,-8.0023,-8.0124,-8.0209,-8.0209,-8.0209,-8.0209,-8.0209,-8.0209,-8.0209,-8.0209,-8.0209,-8.0209,-8.0209,-8.0209,-8.0209,-8.0209,-8.0209,-8.0209,-8.0209,-8.0209,-8.0209,-8.0209,-8.0209,-8.0209,-8.0209,-8.0209,-8.0209,-8.0209,-8.0209,-8.0175,-8.0141,-8.0107,-8.0141,-8.0141,-8.0141,-8.004,-7.9904,-8.0803,-8.1759,-8.2819,-8.3977,-8.4735,-8.5846,-8.6673,-8.6997,-8.7031,-8.7031,-8.7031,-8.7031,-8.7031,-8.7031,-8.6921,-8.6811,-8.6738,-8.6664,-8.6664,-8.6628,-8.6628,-8.6591,-8.6591,-8.6554,-8.6518,-8.6481,-8.6554,-8.6628,-8.6738,-8.6775,-8.7031,-8.7031,-8.7031,-8.7298,-8.7923,-8.8494,-8.9238,-9.0006,-9.0684,-9.0989,-9.121,-9.121,-9.121,-9.121,-9.121,-9.121,-9.121,-9.121,-9.121,-9.121,-9.121,-9.121,-9.121,-9.121,-9.121,-9.121,-9.121,-9.121,-7.0919,-7.0919,-7.0919,-7.0919,-7.0919,-7.0919,-7.0919,-7.0919,-7.0919,-7.0919,-7.0919,-7.0919,-7.0919,-7.1083,-7.258,-7.3445,-7.4821,-7.6379,-7.7773,-7.875,-7.9495,-7.9972,-8.0209,-8.0158,-8.0209,-8.0209,-8.0209,-8.0209,-8.0209,-8.0209,-8.0209,-8.0209,-8.0209,-8.0209,-8.0209,-8.0209,-8.0209,-8.0209,-8.0209,-8.0209,-8.0209,-8.0209,-8.0209,-8.0209,-8.0209,-8.0175,-8.0107,-8.0107,-8.0107,-8.0073,-7.9667,-7.9464,-7.9431,-7.921,-7.8988,-7.8247,-7.9009,-8.0281,-8.1407,-8.2491,-8.3651,-8.4573,-8.5246,-8.5974,-8.6554,-8.6885,-8.6848,-8.6701,-8.6664,-8.6591,-8.6444,-8.6334,-8.6224,-8.6114,-8.5967,-8.5747,-8.5747,-8.5747,-8.571,-8.5747,-8.571,-8.5747,-8.5747,-8.593,-8.604,-8.6261,-8.6518,-8.6811,-8.7098,-8.7132,-8.7489,-8.819,-8.8829,-8.9573,-9.0095,-9.0743,-9.0989,-9.121,-9.121,-9.121,-9.121,-9.121,-9.121,-9.121,-9.121,-9.121,-9.121,-9.121,-9.121,-9.121,-9.121,-9.121,-9.121,-9.121,-9.121,-7.0919,-7.0919,-7.0919,-7.0919,-7.0919,-7.0919,-7.0919,-7.0919,-7.0919,-7.0919,-7.0919,-7.0919,-7.0919,-7.1018,-7.1855,-7.2674,-7.3475,-7.4821,-7.6152,-7.7303,-7.8644,-7.8993,-7.934,-7.9921,-8.0209,-8.0209,-8.0209,-8.0209,-8.0209,-8.0209,-8.0209,-8.0209,-8.0209,-8.0209,-8.0209,-8.0209,-8.0209,-8.0209,-8.0209,-8.0209,-8.0209,-8.0209,-8.0209,-8.0175,-8.0175,-8.004,-7.9803,-7.9769,-7.9667,-7.9397,-7.8788,-7.8686,-7.8653,-7.8465,-7.8379,-7.7953,-7.8862,-8.0121,-8.1253,-8.2314,-8.3447,-8.4193,-8.4535,-8.5086,-8.5527,-8.582,-8.5857,-8.582,-8.593,-8.5967,-8.582,-8.5637,-8.549,-8.5306,-8.5013,-8.4682,-8.4646,-8.4682,-8.4682,-8.4682,-8.4719,-8.4719,-8.4866,-8.5159,-8.5527,-8.5894,-8.6224,-8.6518,-8.7013,-8.7427,-8.7923,-8.8589,-8.9225,-8.9832,-9.0385,-9.08,-9.1008,-9.121,-9.121,-9.121,-9.121,-9.121,-9.121,-9.121,-9.121,-9.121,-9.121,-9.121,-9.121,-9.121,-9.121,-9.121,-9.121,-9.121,-9.121,-7.0919,-7.0919,-7.0919,-7.0919,-7.0919,-7.0919,-7.0919,-7.0919,-7.0919,-7.0919,-7.0919,-7.0919,-7.0919,-7.0954,-7.1277,-7.1825,-7.2612,-7.3657,-7.4585,-7.5579,-7.7468,-7.8238,-7.8697,-7.9392,-8.0074,-8.0209,-8.0209,-8.0209,-8.0209,-8.0209,-8.0209,-8.0209,-8.0209,-8.0209,-8.0209,-8.0209,-8.0209,-8.0209,-8.0209,-8.0209,-8.0209,-8.0209,-8.0175,-8.0073,-7.9938,-7.9769,-7.9228,-7.8923,-7.872,-7.8247,-7.7942,-7.7942,-7.7705,-7.7671,-7.7604,-7.8115,-7.873,-7.9731,-8.0841,-8.198,-8.3047,-8.3861,-8.4425,-8.4278,-8.4352,-8.4976,-8.5123,-8.5159,-8.527,-8.527,-8.5159,-8.4829,-8.4572,-8.4389,-8.4095,-8.3875,-8.3765,-8.3765,-8.3765,-8.3765,-8.3765,-8.3801,-8.3911,-8.4168,-8.4572,-8.5233,-8.593,-8.6261,-8.6852,-8.7497,-8.8279,-8.891,-8.95,-9.0073,-9.0704,-9.1044,-9.11,-9.121,-9.121,-9.121,-9.121,-9.121,-9.121,-9.121,-9.121,-9.121,-9.121,-9.121,-9.121,-9.121,-9.121,-9.121,-9.121,-9.121,-9.121,-7.0919,-7.0919,-7.0919,-7.0919,-7.0919,-7.0919,-7.0919,-7.0919,-7.0919,-7.0919,-7.0919,-7.0919,-7.0919,-7.0919,-7.0919,-7.1311,-7.1601,-7.2612,-7.3352,-7.4585,-7.6322,-7.7358,-7.8131,-7.915,-7.9972,-8.0209,-8.0209,-8.0209,-8.0209,-8.0209,-8.0209,-8.0209,-8.0209,-8.0209,-8.0209,-8.0209,-8.0175,-8.0073,-8.0073,-8.0006,-7.9972,-8.0006,-8.0006,-7.96,-7.9295,-7.8957,-7.8517,-7.8213,-7.8179,-7.7976,-7.7401,-7.6893,-7.6284,-7.6284,-7.6284,-7.6598,-7.8231,-7.9303,-8.0238,-8.1453,-8.2555,-8.2718,-8.2884,-8.281,-8.3141,-8.4022,-8.4499,-8.4499,-8.4499,-8.4462,-8.4352,-8.3985,-8.3691,-8.3471,-8.3251,-8.3067,-8.2884,-8.2884,-8.292,-8.2884,-8.2884,-8.2957,-8.3067,-8.3287,-8.3691,-8.4425,-8.538,-8.6066,-8.6745,-8.7446,-8.8428,-8.9148,-8.9693,-9.0284,-9.0895,-9.121,-9.121,-9.121,-9.121,-9.121,-9.121,-9.121,-9.121,-9.121,-9.121,-9.121,-9.121,-9.121,-9.121,-9.121,-9.121,-9.121,-9.121,-9.121,-9.121,-7.0919,-7.0919,-7.0919,-7.0919,-7.0919,-7.0919,-7.0919,-7.0919,-7.0919,-7.0919,-7.0919,-7.0919,-7.0919,-7.0919,-7.0919,-7.0919,-7.1018,-7.1728,-7.2078,-7.3015,-7.4672,-7.5924,-7.7193,-7.8644,-7.9495,-7.9921,-8.0124,-8.0209,-8.0209,-8.0209,-8.0209,-8.0209,-8.0209,-8.0175,-8.0175,-8.0175,-8.0006,-7.9701,-7.9701,-7.9566,-7.9431,-7.9431,-7.9295,-7.8855,-7.8517,-7.8145,-7.7773,-7.7468,-7.7266,-7.7063,-7.6521,-7.6284,-7.5912,-7.5845,-7.6041,-7.6804,-7.8012,-7.9183,-7.9994,-8.1018,-8.2154,-8.2186,-8.2186,-8.2406,-8.2406,-8.3214,-8.3251,-8.3251,-8.3251,-8.3214,-8.3214,-8.2957,-8.2884,-8.2737,-8.2663,-8.2553,-8.248,-8.248,-8.248,-8.248,-8.248,-8.248,-8.259,-8.2627,-8.3067,-8.3765,-8.4719,-8.5594,-8.6343,-8.7593,-8.8548,-8.9402,-8.9984,-9.0467,-9.1008,-9.121,-9.121,-9.121,-9.121,-9.121,-9.121,-9.121,-9.121,-9.121,-9.121,-9.121,-9.121,-9.121,-9.121,-9.121,-9.121,-9.121,-9.121,-9.121,-9.121,-7.0919,-7.0919,-7.0919,-7.0919,-7.0919,-7.0919,-7.0919,-7.0919,-7.0919,-7.0919,-7.0919,-7.0919,-7.0919,-7.0919,-7.0919,-7.0919,-7.0954,-7.1212,-7.1083,-7.1601,-7.3169,-7.488,-7.6379,-7.761,-7.9046,-7.9921,-8.0158,-8.0209,-8.0209,-8.0209,-8.0209,-8.0209,-8.0175,-8.0141,-8.0073,-7.9972,-7.9701,-7.916,-7.8855,-7.8517,-7.8483,-7.8551,-7.8382,-7.8111,-7.7773,-7.7435,-7.6995,-7.6623,-7.6284,-7.6115,-7.5879,-7.5811,-7.5743,-7.5723,-7.6324,-7.7071,-7.8203,-7.938,-8.044,-8.1474,-8.1985,-8.2186,-8.2186,-8.2186,-8.2186,-8.2223,-8.2296,-8.2296,-8.2296,-8.2296,-8.2296,-8.2296,-8.226,-8.226,-8.2223,-8.2186,-8.2186,-8.2186,-8.2186,-8.2186,-8.2186,-8.2186,-8.2186,-8.2223,-8.259,-8.3287,-8.4055,-8.4856,-8.5881,-8.7561,-8.893,-8.9731,-9.0364,-9.082,-9.1136,-9.121,-9.121,-9.121,-9.121,-9.121,-9.121,-9.121,-9.121,-9.121,-9.121,-9.121,-9.121,-9.121,-9.121,-9.121,-9.121,-9.121,-9.121,-9.121,-9.121,-7.0919,-7.0919,-7.0919,-7.0919,-7.0919,-7.0919,-7.0919,-7.0919,-7.0919,-7.0919,-7.0919,-7.0919,-7.0919,-7.0919,-7.0919,-7.0919,-7.0919,-7.0919,-7.0919,-7.1247,-7.3046,-7.4644,-7.6266,-7.8131,-7.958,-8.0074,-8.0209,-8.0209,-8.0209,-8.0209,-8.0175,-8.0107,-8.0141,-7.9904,-7.9329,-7.9194,-7.8991,-7.845,-7.8111,-7.7841,-7.7502,-7.7536,-7.7638,-7.7401,-7.7096,-7.6589,-7.6149,-7.5946,-7.5845,-7.5743,-7.5676,-7.5676,-7.5771,-7.5879,-7.6554,-7.752,-7.8618,-7.9727,-8.0804,-8.1681,-8.2121,-8.2186,-8.2186,-8.2186,-8.2186,-8.2186,-8.2223,-8.2223,-8.2223,-8.2223,-8.2223,-8.2223,-8.2223,-8.2223,-8.2186,-8.2186,-8.2186,-8.2186,-8.2186,-8.2186,-8.2186,-8.2186,-8.2186,-8.2186,-8.2223,-8.2994,-8.3911,-8.4776,-8.5708,-8.7445,-8.9276,-8.9961,-9.0626,-9.0952,-9.121,-9.121,-9.121,-9.121,-9.121,-9.121,-9.121,-9.121,-9.121,-9.121,-9.121,-9.121,-9.121,-9.121,-9.121,-9.121,-9.121,-9.121,-9.121,-9.121,-9.121]},{"header":{"parameterUnit":"m.s-1","parameterCategory":1,"la1":31.0,"la2":29.5877,"lo1":-88.7671,"lo2":-86.6584,"dy":0.0162,"dx":0.0185,"nx":115,"ny":88,"refTime":"2023-03-13T06:00:00:Z","depth":0,"parameterNumber":3,"parameterNumberName":"V-component_of_WINDS"},"data":[0.0,0.0,0.0,0.0,0.0,0.0,0.0,0.0,0.0,0.0,0.0,0.0,0.0,0.0,0.0,0.0,0.0,0.0,0.0,0.0,0.0,0.0,0.0,0.0,0.0,0.0,0.0,0.0,0.0,0.0,0.0,0.0,0.0,0.0,0.0,0.0,0.0,0.0,0.0,0.0,0.0,0.0,0.0,0.0,0.0,0.0,0.0,0.0,0.0,0.0,0.0,0.0,0.0,0.0,0.0,0.0,0.0,0.0,0.0,0.0,0.0,0.0,0.0,0.0,0.0,0.0,0.0,0.0,0.0,0.0,0.0,0.0,0.0,0.0,0.0,0.0,0.0,0.0,0.0,0.0,0.0,0.0,0.0,0.0,0.0,0.0,0.0,0.0,0.0,0.0,0.0,0.0,0.0,0.0,0.0,0.0,0.0,0.0,0.0,0.0,0.0,0.0,0.0,0.0,0.0,0.0,0.0,0.0,0.0,0.0,0.0,0.0,0.0,0.0,0.0,0.0,0.0,0.0,0.0,0.0,0.0,0.0,0.0,0.0,0.0,0.0,0.0,0.0,0.0,0.0,0.0,0.0,0.0,0.0,0.0,0.0,0.0,0.0,0.0,0.0,0.0,0.0,0.0,0.0,0.0,0.0,0.0,0.0,0.0,0.0,0.0,0.0,0.0,0.0,0.0,0.0,0.0,0.0,0.0,0.0,0.0,0.0,0.0,0.0,0.0,0.0,0.0,0.0,0.0,0.0,0.0,0.0,0.0,0.0,0.0,0.0,0.0,0.0,0.0,0.0,0.0,0.0,0.0,0.0,0.0,0.0,0.0,0.0,0.0,0.0,0.0,0.0,0.0,0.0,0.0,0.0,0.0,0.0,0.0,0.0,0.0,0.0,0.0,0.0,0.0,0.0,0.0,0.0,0.0,0.0,0.0,0.0,0.0,0.0,0.0,0.0,0.0,0.0,0.0,0.0,0.0,0.0,0.0,0.0,0.0,0.0,0.0,0.0,0.0,0.0,0.0,0.0,0.0,0.0,0.0,0.0,0.0,0.0,0.0,0.0,0.0,0.0,0.0,0.0,0.0,0.0,0.0,0.0,0.0,0.0,0.0,0.0,0.0,0.0,0.0,0.0,0.0,0.0,0.0,0.0,0.0,0.0,0.0,0.0,0.0,0.0,0.0,0.0,0.0,0.0,0.0,0.0,0.0,0.0,0.0,0.0,0.0,0.0,0.0,0.0,0.0,0.0,0.0,0.0,0.0,0.0,0.0,0.0,0.0,0.0,0.0,0.0,0.0,0.0,0.0,0.0,0.0,0.0,0.0,0.0,0.0,0.0,0.0,0.0,0.0,0.0,0.0,0.0,0.0,0.0,0.0,0.0,0.0,0.0,0.0,0.0,0.0,0.0,0.0,0.0,0.0,0.0,0.0,0.0,0.0,0.0,0.0,0.0,0.0,0.0,0.0,0.0,0.0,0.0,0.0,0.0,0.0,0.0,0.0,0.0,0.0,0.0,0.0,0.0,0.0,0.0,0.0,0.0,0.0,0.0,0.0,0.0,0.0,0.0,0.0,0.0,0.0,0.0,0.0,0.0,0.0,0.0,0.0,0.0,0.0,0.0,0.0,0.0,0.0,0.0,0.0,0.0,0.0,0.0,0.0,0.0,0.0,0.0,0.0,0.0,0.0,0.0,0.0,0.0,0.0,0.0,0.0,0.0,0.0,0.0,0.0,0.0,0.0,0.0,0.0,0.0,0.0,0.0,0.0,0.0,0.0,0.0,0.0,0.0,0.0,0.0,0.0,0.0,0.0,0.0,0.0,0.0,0.0,0.0,0.0,0.0,0.0,0.0,0.0,0.0,0.0,0.0,0.0,0.0,0.0,0.0,0.0,0.0,0.0,0.0,0.0,0.0,0.0,0.0,0.0,0.0,0.0,0.0,0.0,0.0,0.0,0.0,0.0,0.0,0.0,0.0,0.0,0.0,0.0,0.0,0.0,0.0,0.0,0.0,0.0,0.0,0.0,0.0,0.0,0.0,0.0,0.0,0.0,0.0,0.0,0.0,0.0,0.0,0.0,0.0,0.0,0.0,0.0,0.0,0.0,0.0,0.0,0.0,0.0,0.0,0.0,0.0,0.0,0.0,0.0,0.0,0.0,0.0,0.0,0.0,0.0,0.0,0.0,0.0,0.0,0.0,0.0,0.0,0.0,0.0,0.0,0.0,0.0,0.0,0.0,0.0,0.0,0.0,0.0,0.0,0.0,0.0,0.0,0.0,0.0,0.0,0.0,0.0,0.0,0.0,0.0,0.0,0.0,0.0,0.0,0.0,0.0,0.0,0.0,0.0,0.0,0.0,0.0,0.0,0.0,0.0,0.0,0.0,0.0,0.0,0.0,0.0,0.0,0.0,0.0,0.0,0.0,0.0,0.0,0.0,0.0,0.0,0.0,0.0,0.0,0.0,0.0,0.0,0.0,0.0,0.0,0.0,0.0,0.0,0.0,0.0,0.0,0.0,0.0,0.0,0.0,0.0,0.0,0.0,0.0,0.0,0.0,0.0,0.0,0.0,0.0,0.0,0.0,0.0,0.0,0.0,0.0,0.0,0.0,0.0,0.0,0.0,0.0,0.0,0.0,0.0,0.0,0.0,0.0,0.0,0.0,0.0,0.0,0.0,0.0,0.0,0.0,0.0,0.0,0.0,0.0,0.0,0.0,0.0,0.0,0.0,0.0,0.0,0.0,0.0,0.0,0.0,0.0,0.0,0.0,0.0,0.0,0.0,0.0,0.0,0.0,0.0,0.0,0.0,0.0,0.0,0.0,0.0,0.0,0.0,0.0,0.0,0.0,0.0,0.0,0.0,0.0,0.0,0.0,0.0,0.0,0.0,0.0,0.0,0.0,0.0,0.0,0.0,0.0,0.0,0.0,0.0,0.0,0.0,0.0,0.0,0.0,0.0,0.0,0.0,0.0,0.0,0.0,0.0,0.0,0.0,0.0,0.0,0.0,0.0,0.0,0.0,0.0,0.0,0.0,0.0,0.0,0.0,0.0,0.0,0.0,0.0,0.0,0.0,0.0,0.0,0.0,0.0,0.0,0.0,0.0,0.0,0.0,0.0,0.0,0.0,0.0,0.0,0.0,0.0,0.0,0.0,0.0,0.0,0.0,0.0,0.0,0.0,0.0,0.0,0.0,0.0,0.0,0.0,0.0,0.0,0.0,0.0,0.0,0.0,0.0,0.0,0.0,0.0,0.0,0.0,0.0,0.0,0.0,0.0,0.0,0.0,0.0,0.0,0.0,0.0,0.0,0.0,0.0,0.0,0.0,0.0,0.0,0.0,0.0,0.0,0.0,0.0,0.0,0.0,0.0,0.0,0.0,0.0,0.0,0.0,0.0,0.0,0.0,0.0,0.0,0.0,0.0,0.0,0.0,0.0,0.0,0.0,0.0,0.0,0.0,0.0,0.0,0.0,0.0,0.0,0.0,0.0,0.0,0.0,0.0,0.0,0.0,0.0,0.0,0.0,0.0,0.0,0.0,0.0,0.0,0.0,0.0,0.0,0.0,0.0,0.0,0.0,0.0,0.0,0.0,0.0,0.0,0.0,0.0,0.0,0.0,0.0,0.0,0.0,0.0,0.0,0.0,0.0,0.0,0.0,0.0,0.0,0.0,0.0,0.0,0.0,0.0,0.0,0.0,0.0,0.0,0.0,0.0,0.0,0.0,0.0,0.0,0.0,0.0,0.0,0.0,0.0,0.0,0.0,0.0,0.0,0.0,0.0,0.0,0.0,0.0,0.0,0.0,0.0,0.0,0.0,0.0,0.0,0.0,0.0,0.0,0.0,0.0,0.0,0.0,0.0,0.0,0.0,0.0,0.0,0.0,0.0,0.0,0.0,0.0,0.0,0.0,0.0,0.0,0.0,0.0,0.0,0.0,0.0,0.0,0.0,0.0,0.0,0.0,0.0,0.0,0.0,0.0,0.0,0.0,0.0,0.0,0.0,0.0,0.0,0.0,0.0,0.0,0.0,0.0,0.0,0.0,0.0,0.0,0.0,0.0,0.0,0.0,0.0,0.0,0.0,0.0,0.0,0.0,0.0,0.0,0.0,0.0,0.0,0.0,0.0,0.0,0.0,0.0,0.0,0.0,0.0,0.0,0.0,0.0,0.0,0.0,0.0,0.0,0.0,0.0,0.0,0.0,0.0,0.0,0.0,0.0,0.0,0.0,0.0,0.0,0.0,0.0,0.0,0.0,0.0,-3.3444,0.0,0.0,0.0,-2.7077,0.0,0.0,0.0,0.0,0.0,0.0,0.0,0.0,0.0,0.0,0.0,0.0,0.0,0.0,0.0,0.0,0.0,0.0,0.0,0.0,0.0,0.0,0.0,0.0,0.0,0.0,0.0,0.0,0.0,0.0,0.0,0.0,0.0,0.0,0.0,0.0,0.0,0.0,0.0,0.0,0.0,0.0,0.0,0.0,0.0,0.0,0.0,0.0,0.0,0.0,0.0,0.0,0.0,0.0,0.0,0.0,0.0,0.0,0.0,0.0,0.0,0.0,0.0,0.0,0.0,0.0,0.0,0.0,0.0,0.0,0.0,0.0,0.0,0.0,0.0,0.0,0.0,0.0,0.0,0.0,0.0,0.0,0.0,0.0,0.0,0.0,0.0,0.0,0.0,0.0,0.0,0.0,0.0,0.0,0.0,0.0,0.0,0.0,0.0,0.0,0.0,0.0,0.0,0.0,0.0,0.0,0.0,0.0,0.0,0.0,-3.335,-3.3482,-3.3162,-3.2306,-3.0941,0.0,0.0,0.0,0.0,0.0,0.0,0.0,0.0,0.0,0.0,0.0,0.0,0.0,0.0,0.0,0.0,0.0,0.0,0.0,0.0,0.0,0.0,0.0,0.0,0.0,0.0,0.0,0.0,0.0,0.0,0.0,0.0,0.0,0.0,0.0,0.0,0.0,0.0,0.0,0.0,0.0,0.0,0.0,0.0,0.0,0.0,0.0,0.0,0.0,0.0,0.0,0.0,0.0,0.0,0.0,0.0,0.0,0.0,0.0,0.0,0.0,0.0,0.0,0.0,0.0,0.0,0.0,0.0,0.0,0.0,0.0,0.0,0.0,0.0,0.0,0.0,0.0,0.0,0.0,0.0,0.0,0.0,0.0,0.0,0.0,0.0,0.0,0.0,0.0,0.0,0.0,0.0,0.0,0.0,0.0,0.0,0.0,0.0,0.0,0.0,0.0,0.0,0.0,0.0,0.0,0.0,0.0,0.0,0.0,0.0,0.0,0.0,-3.3604,-3.3444,-3.4641,0.0,0.0,0.0,0.0,0.0,0.0,0.0,0.0,0.0,0.0,0.0,0.0,0.0,0.0,0.0,0.0,0.0,0.0,0.0,0.0,0.0,0.0,0.0,0.0,0.0,0.0,0.0,0.0,0.0,0.0,0.0,0.0,0.0,0.0,0.0,0.0,0.0,0.0,0.0,0.0,0.0,0.0,0.0,0.0,0.0,0.0,0.0,0.0,0.0,0.0,0.0,0.0,0.0,0.0,0.0,0.0,0.0,0.0,0.0,0.0,0.0,0.0,0.0,0.0,0.0,0.0,0.0,0.0,0.0,0.0,0.0,0.0,0.0,0.0,0.0,0.0,0.0,0.0,0.0,0.0,0.0,0.0,0.0,0.0,0.0,0.0,0.0,0.0,0.0,0.0,0.0,0.0,0.0,0.0,0.0,0.0,0.0,0.0,0.0,0.0,0.0,0.0,0.0,0.0,0.0,0.0,0.0,0.0,0.0,0.0,-3.5695,-3.5898,-3.5393,0.0,-3.4661,0.0,0.0,0.0,0.0,0.0,0.0,0.0,0.0,0.0,0.0,0.0,0.0,0.0,0.0,0.0,0.0,0.0,0.0,0.0,0.0,0.0,0.0,0.0,0.0,0.0,0.0,0.0,0.0,0.0,0.0,0.0,0.0,0.0,0.0,0.0,0.0,0.0,0.0,0.0,0.0,0.0,0.0,0.0,0.0,0.0,0.0,0.0,0.0,0.0,0.0,0.0,0.0,0.0,0.0,0.0,0.0,0.0,0.0,0.0,0.0,0.0,0.0,0.0,0.0,0.0,0.0,0.0,0.0,0.0,0.0,0.0,0.0,0.0,0.0,0.0,0.0,0.0,0.0,0.0,0.0,0.0,0.0,0.0,0.0,0.0,0.0,0.0,0.0,0.0,0.0,0.0,0.0,0.0,0.0,0.0,0.0,0.0,0.0,0.0,0.0,0.0,0.0,0.0,0.0,0.0,0.0,0.0,0.0,0.0,0.0,-3.6035,-3.6035,-3.5859,-3.5664,0.0,0.0,0.0,0.0,0.0,0.0,0.0,0.0,0.0,0.0,0.0,0.0,0.0,0.0,0.0,0.0,0.0,0.0,0.0,0.0,0.0,0.0,0.0,0.0,0.0,0.0,0.0,0.0,0.0,0.0,0.0,0.0,0.0,0.0,0.0,0.0,0.0,0.0,0.0,0.0,0.0,0.0,0.0,0.0,0.0,0.0,0.0,0.0,0.0,0.0,0.0,0.0,0.0,0.0,0.0,0.0,0.0,0.0,0.0,0.0,0.0,0.0,0.0,0.0,0.0,0.0,0.0,0.0,0.0,0.0,0.0,0.0,0.0,0.0,0.0,0.0,0.0,0.0,0.0,0.0,0.0,0.0,0.0,0.0,0.0,0.0,0.0,0.0,0.0,0.0,0.0,0.0,0.0,0.0,0.0,0.0,0.0,0.0,0.0,0.0,0.0,0.0,0.0,0.0,0.0,0.0,0.0,0.0,0.0,0.0,-3.6035,-3.6035,-3.6035,-3.6035,-3.6035,-3.6035,0.0,0.0,0.0,0.0,0.0,0.0,0.0,0.0,0.0,0.0,0.0,0.0,0.0,0.0,0.0,0.0,0.0,0.0,0.0,0.0,0.0,0.0,0.0,0.0,0.0,0.0,0.0,0.0,0.0,0.0,0.0,0.0,0.0,0.0,0.0,0.0,0.0,0.0,0.0,0.0,0.0,0.0,0.0,0.0,0.0,0.0,0.0,0.0,0.0,0.0,0.0,0.0,0.0,0.0,0.0,0.0,0.0,0.0,0.0,0.0,0.0,0.0,0.0,0.0,0.0,0.0,0.0,0.0,0.0,0.0,0.0,0.0,0.0,0.0,0.0,0.0,0.0,0.0,0.0,0.0,0.0,0.0,0.0,0.0,0.0,0.0,0.0,0.0,0.0,0.0,0.0,0.0,0.0,0.0,0.0,0.0,0.0,0.0,0.0,0.0,0.0,0.0,0.0,0.0,0.0,0.0,0.0,0.0,-3.6035,-3.6035,-3.6035,-3.6035,-3.6035,-3.6035,0.0,0.0,0.0,0.0,0.0,0.0,0.0,0.0,0.0,0.0,0.0,0.0,0.0,0.0,0.0,0.0,0.0,0.0,0.0,0.0,0.0,0.0,0.0,0.0,0.0,0.0,0.0,0.0,0.0,0.0,0.0,0.0,0.0,0.0,0.0,0.0,0.0,0.0,0.0,0.0,0.0,0.0,0.0,0.0,0.0,0.0,0.0,0.0,0.0,0.0,0.0,0.0,0.0,0.0,0.0,0.0,0.0,0.0,0.0,0.0,0.0,0.0,0.0,0.0,0.0,0.0,0.0,0.0,0.0,0.0,0.0,0.0,0.0,0.0,0.0,0.0,0.0,0.0,0.0,0.0,0.0,0.0,0.0,0.0,0.0,0.0,0.0,0.0,0.0,0.0,0.0,0.0,0.0,0.0,0.0,0.0,0.0,0.0,0.0,0.0,0.0,0.0,0.0,0.0,0.0,0.0,0.0,0.0,0.0,-3.6035,-3.6035,-3.6035,-3.6035,-3.6035,-3.6035,0.0,0.0,0.0,0.0,0.0,0.0,0.0,0.0,0.0,0.0,0.0,0.0,0.0,0.0,0.0,0.0,0.0,0.0,0.0,0.0,0.0,0.0,0.0,0.0,0.0,0.0,0.0,0.0,0.0,0.0,0.0,0.0,0.0,0.0,0.0,0.0,0.0,0.0,0.0,0.0,0.0,0.0,0.0,0.0,0.0,0.0,0.0,0.0,0.0,0.0,0.0,0.0,0.0,0.0,0.0,0.0,0.0,0.0,0.0,0.0,0.0,0.0,0.0,0.0,0.0,0.0,0.0,0.0,0.0,0.0,0.0,0.0,0.0,0.0,0.0,0.0,0.0,0.0,0.0,0.0,0.0,0.0,0.0,0.0,0.0,0.0,0.0,0.0,0.0,0.0,0.0,0.0,0.0,0.0,0.0,0.0,0.0,0.0,0.0,0.0,0.0,0.0,0.0,0.0,0.0,0.0,0.0,0.0,0.0,-3.6035,0.0,-3.6035,-3.6035,-3.6035,-3.6035,0.0,0.0,0.0,0.0,0.0,0.0,0.0,0.0,0.0,0.0,0.0,0.0,0.0,0.0,0.0,0.0,0.0,0.0,0.0,0.0,0.0,0.0,0.0,0.0,0.0,0.0,0.0,0.0,0.0,0.0,0.0,0.0,0.0,0.0,0.0,0.0,0.0,0.0,0.0,0.0,0.0,0.0,0.0,0.0,0.0,0.0,0.0,0.0,0.0,0.0,0.0,0.0,0.0,0.0,0.0,0.0,0.0,0.0,0.0,0.0,0.0,0.0,0.0,0.0,0.0,0.0,0.0,0.0,0.0,0.0,0.0,0.0,0.0,0.0,0.0,0.0,0.0,0.0,0.0,0.0,0.0,0.0,0.0,0.0,0.0,0.0,0.0,0.0,0.0,0.0,0.0,0.0,0.0,0.0,0.0,0.0,0.0,0.0,0.0,0.0,0.0,0.0,0.0,0.0,0.0,0.0,0.0,0.0,-3.6035,-3.6035,-3.6035,-3.6035,-3.6035,-3.6035,-3.6035,0.0,0.0,0.0,0.0,0.0,0.0,0.0,0.0,0.0,0.0,0.0,0.0,0.0,0.0,0.0,0.0,0.0,0.0,0.0,0.0,0.0,0.0,0.0,0.0,0.0,0.0,0.0,0.0,0.0,0.0,0.0,0.0,0.0,0.0,0.0,0.0,0.0,0.0,0.0,0.0,0.0,0.0,0.0,0.0,0.0,0.0,0.0,0.0,0.0,0.0,0.0,0.0,0.0,0.0,0.0,0.0,0.0,0.0,0.0,0.0,0.0,0.0,0.0,0.0,0.0,0.0,0.0,0.0,0.0,0.0,0.0,0.0,0.0,0.0,0.0,0.0,0.0,0.0,0.0,0.0,0.0,0.0,0.0,0.0,0.0,0.0,0.0,0.0,0.0,0.0,0.0,0.0,0.0,0.0,0.0,0.0,0.0,0.0,0.0,0.0,0.0,0.0,0.0,0.0,0.0,0.0,0.0,0.0,0.0,-3.6035,-3.6035,-3.6035,-3.6035,-3.6035,-3.6035,0.0,0.0,0.0,0.0,0.0,0.0,0.0,0.0,0.0,0.0,0.0,0.0,0.0,0.0,0.0,0.0,0.0,0.0,0.0,0.0,0.0,0.0,0.0,0.0,0.0,0.0,0.0,0.0,0.0,0.0,0.0,0.0,0.0,0.0,0.0,0.0,0.0,0.0,0.0,0.0,0.0,0.0,0.0,0.0,0.0,0.0,0.0,0.0,0.0,0.0,0.0,0.0,0.0,0.0,0.0,0.0,0.0,0.0,0.0,0.0,0.0,0.0,0.0,0.0,0.0,0.0,0.0,0.0,0.0,0.0,0.0,0.0,0.0,0.0,0.0,0.0,0.0,0.0,0.0,0.0,0.0,0.0,0.0,0.0,0.0,0.0,0.0,0.0,0.0,0.0,0.0,0.0,0.0,0.0,0.0,0.0,0.0,0.0,0.0,0.0,0.0,0.0,0.0,0.0,0.0,0.0,0.0,0.0,0.0,-3.6719,-3.6396,-3.624,-3.6269,-3.6269,-3.6191,-3.6035,0.0,0.0,0.0,0.0,0.0,0.0,0.0,0.0,0.0,0.0,0.0,0.0,0.0,0.0,0.0,0.0,0.0,0.0,0.0,0.0,0.0,0.0,0.0,0.0,0.0,0.0,0.0,0.0,0.0,0.0,0.0,0.0,0.0,0.0,0.0,0.0,0.0,0.0,0.0,0.0,0.0,0.0,0.0,0.0,0.0,0.0,0.0,0.0,0.0,0.0,0.0,0.0,0.0,0.0,0.0,0.0,0.0,0.0,0.0,0.0,0.0,0.0,0.0,0.0,0.0,0.0,0.0,0.0,0.0,0.0,0.0,0.0,0.0,0.0,0.0,0.0,0.0,0.0,0.0,0.0,0.0,0.0,0.0,0.0,0.0,0.0,0.0,0.0,0.0,0.0,0.0,0.0,0.0,0.0,0.0,0.0,0.0,0.0,0.0,0.0,0.0,0.0,0.0,0.0,0.0,0.0,0.0,0.0,-3.7969,-3.7254,-3.6844,-3.6797,-3.6758,-3.6562,0.0,0.0,0.0,0.0,0.0,0.0,0.0,0.0,0.0,0.0,0.0,0.0,0.0,0.0,0.0,0.0,0.0,0.0,0.0,0.0,0.0,0.0,0.0,0.0,0.0,0.0,0.0,0.0,0.0,0.0,0.0,0.0,0.0,0.0,0.0,0.0,0.0,0.0,0.0,0.0,0.0,0.0,0.0,0.0,0.0,0.0,0.0,0.0,0.0,0.0,0.0,0.0,0.0,0.0,0.0,0.0,0.0,0.0,0.0,0.0,0.0,0.0,0.0,0.0,0.0,0.0,0.0,0.0,0.0,0.0,0.0,0.0,0.0,0.0,0.0,0.0,0.0,0.0,0.0,0.0,0.0,0.0,0.0,0.0,0.0,0.0,0.0,0.0,0.0,0.0,0.0,0.0,0.0,0.0,0.0,0.0,0.0,0.0,0.0,0.0,0.0,0.0,0.0,0.0,0.0,0.0,0.0,0.0,0.0,-3.8398,-3.8516,-3.8418,-3.8086,-3.7773,-3.7539,0.0,0.0,0.0,0.0,0.0,0.0,0.0,0.0,0.0,0.0,0.0,0.0,0.0,0.0,0.0,0.0,0.0,0.0,0.0,0.0,0.0,0.0,0.0,0.0,0.0,0.0,0.0,0.0,0.0,0.0,0.0,0.0,0.0,0.0,0.0,0.0,0.0,0.0,0.0,0.0,0.0,0.0,0.0,0.0,0.0,0.0,0.0,0.0,0.0,0.0,0.0,0.0,0.0,0.0,0.0,0.0,0.0,0.0,0.0,0.0,0.0,0.0,0.0,0.0,0.0,0.0,0.0,0.0,0.0,0.0,0.0,0.0,0.0,0.0,0.0,0.0,0.0,0.0,0.0,0.0,0.0,0.0,0.0,0.0,0.0,0.0,0.0,0.0,0.0,0.0,0.0,0.0,0.0,0.0,0.0,0.0,0.0,0.0,0.0,0.0,0.0,0.0,0.0,0.0,0.0,0.0,0.0,0.0,-3.8867,-3.9141,-3.9726,-3.9922,-3.9668,-3.8711,-3.8105,0.0,0.0,0.0,0.0,0.0,0.0,0.0,0.0,0.0,0.0,0.0,0.0,0.0,0.0,0.0,0.0,0.0,0.0,0.0,0.0,0.0,0.0,0.0,0.0,0.0,0.0,0.0,0.0,0.0,0.0,0.0,0.0,0.0,0.0,0.0,0.0,0.0,0.0,0.0,0.0,0.0,0.0,0.0,0.0,0.0,0.0,0.0,0.0,0.0,0.0,0.0,0.0,0.0,0.0,0.0,0.0,0.0,0.0,0.0,0.0,0.0,0.0,0.0,0.0,0.0,0.0,0.0,0.0,0.0,0.0,0.0,0.0,0.0,0.0,0.0,0.0,0.0,0.0,0.0,0.0,0.0,0.0,0.0,0.0,0.0,0.0,0.0,0.0,0.0,0.0,0.0,0.0,0.0,0.0,0.0,0.0,0.0,0.0,0.0,0.0,0.0,0.0,0.0,0.0,0.0,0.0,0.0,0.0,-3.9922,-3.9961,-4.0762,-4.1172,-4.1133,-3.957,-3.8535,0.0,0.0,0.0,0.0,0.0,0.0,0.0,0.0,0.0,0.0,0.0,0.0,0.0,0.0,0.0,0.0,0.0,0.0,0.0,0.0,0.0,0.0,0.0,0.0,0.0,0.0,0.0,0.0,0.0,0.0,0.0,0.0,0.0,0.0,0.0,0.0,0.0,0.0,0.0,0.0,0.0,0.0,0.0,0.0,0.0,0.0,0.0,0.0,0.0,0.0,0.0,0.0,0.0,0.0,0.0,0.0,0.0,0.0,0.0,0.0,0.0,0.0,0.0,0.0,0.0,0.0,0.0,0.0,0.0,0.0,0.0,0.0,0.0,0.0,0.0,0.0,0.0,0.0,0.0,0.0,0.0,0.0,0.0,0.0,0.0,0.0,0.0,0.0,0.0,0.0,0.0,0.0,0.0,0.0,0.0,0.0,0.0,0.0,0.0,0.0,0.0,0.0,0.0,0.0,0.0,0.0,0.0,0.0,-4.0059,-4.0391,-4.0898,-4.1172,-4.1172,-4.0156,-3.957,0.0,0.0,0.0,0.0,0.0,0.0,0.0,0.0,0.0,0.0,0.0,0.0,0.0,0.0,0.0,0.0,0.0,0.0,0.0,0.0,0.0,0.0,0.0,0.0,0.0,0.0,0.0,0.0,0.0,0.0,0.0,0.0,0.0,0.0,0.0,0.0,0.0,0.0,0.0,0.0,0.0,0.0,0.0,0.0,0.0,0.0,0.0,0.0,-1.4,0.0,0.0,0.0,0.0,0.0,0.0,0.0,0.0,0.0,0.0,0.0,0.0,0.0,0.0,0.0,0.0,0.0,0.0,0.0,0.0,0.0,0.0,0.0,0.0,0.0,0.0,0.0,0.0,0.0,0.0,0.0,0.0,0.0,0.0,0.0,0.0,0.0,0.0,0.0,0.0,0.0,0.0,0.0,0.0,0.0,0.0,0.0,0.0,0.0,0.0,0.0,0.0,0.0,0.0,0.0,0.0,0.0,0.0,0.0,-4.0098,-4.0527,-4.0957,-4.1172,-4.1152,-4.0527,-4.0098,0.0,0.0,0.0,0.0,0.0,0.0,0.0,0.0,0.0,0.0,0.0,0.0,0.0,0.0,0.0,0.0,0.0,0.0,0.0,0.0,0.0,0.0,0.0,0.0,0.0,0.0,0.0,0.0,0.0,0.0,0.0,0.0,0.0,0.0,0.0,0.0,0.0,0.0,0.0,0.0,0.0,0.0,0.0,0.0,0.0,0.0,0.0,0.0,0.0,0.0,0.0,0.0,0.0,0.0,0.0,0.0,0.0,0.0,0.0,0.0,0.0,0.0,0.0,0.0,0.0,0.0,0.0,0.0,0.0,0.0,0.0,0.0,0.0,0.0,0.0,0.0,0.0,0.0,0.0,0.0,0.0,0.0,0.0,0.0,0.0,0.0,0.0,0.0,0.0,0.0,0.0,0.0,0.0,0.0,0.0,0.0,0.0,0.0,0.0,0.0,0.0,0.0,0.0,0.0,0.0,0.0,0.0,-3.9766,-4.0234,-4.0703,-4.1133,-4.1367,-4.1367,-4.0957,-4.0527,-4.0098,0.0,0.0,0.0,0.0,0.0,0.0,0.0,0.0,0.0,0.0,0.0,0.0,0.0,0.0,0.0,0.0,0.0,0.0,0.0,0.0,0.0,0.0,0.0,0.0,0.0,0.0,0.0,0.0,0.0,0.0,0.0,0.0,0.0,0.0,0.0,0.0,0.0,0.0,-2.6507,-2.4777,0.0,0.0,0.0,0.0,0.0,0.0,0.0,0.0,-1.4428,0.0,0.0,0.0,0.0,0.0,0.0,0.0,0.0,0.0,0.0,0.0,0.0,0.0,0.0,0.0,0.0,0.0,0.0,0.0,0.0,0.0,0.0,0.0,0.0,0.0,0.0,0.0,0.0,0.0,0.0,0.0,0.0,0.0,0.0,0.0,0.0,0.0,0.0,0.0,0.0,0.0,0.0,0.0,0.0,0.0,0.0,0.0,0.0,0.0,0.0,0.0,0.0,0.0,0.0,0.0,0.0,-3.9766,-4.0195,-4.0801,-4.1582,-4.2012,-4.2226,-4.2207,-4.1816,-4.1387,-4.0957,0.0,0.0,0.0,0.0,0.0,0.0,0.0,0.0,0.0,0.0,0.0,0.0,0.0,0.0,0.0,0.0,0.0,0.0,0.0,0.0,0.0,0.0,0.0,0.0,0.0,0.0,0.0,0.0,0.0,0.0,0.0,0.0,0.0,0.0,0.0,0.0,0.0,0.0,0.0,-2.5161,-2.37,0.0,0.0,0.0,0.0,0.0,0.0,0.0,0.0,-1.4523,0.0,0.0,0.0,0.0,0.0,0.0,0.0,0.0,0.0,0.0,0.0,0.0,0.0,0.0,0.0,0.0,0.0,0.0,0.0,0.0,0.0,0.0,0.0,0.0,0.0,0.0,0.0,0.0,0.0,0.0,0.0,0.0,0.0,0.0,0.0,0.0,0.0,0.0,0.0,0.0,0.0,0.0,0.0,0.0,0.0,0.0,0.0,0.0,0.0,0.0,0.0,0.0,0.0,0.0,0.0,-4.0547,-4.0976,-4.1504,-4.2109,-4.2324,-4.2422,-4.2402,-4.2012,-4.1601,0.0,0.0,0.0,0.0,0.0,0.0,0.0,0.0,0.0,0.0,0.0,0.0,0.0,0.0,0.0,0.0,0.0,0.0,0.0,0.0,0.0,0.0,0.0,0.0,0.0,0.0,0.0,0.0,0.0,0.0,0.0,0.0,0.0,0.0,0.0,0.0,0.0,0.0,0.0,0.0,-2.3798,-2.2108,-2.1427,0.0,0.0,0.0,0.0,0.0,0.0,-1.4557,-1.4536,0.0,0.0,0.0,0.0,0.0,0.0,0.0,0.0,0.0,0.0,0.0,0.0,0.0,0.0,0.0,0.0,0.0,0.0,0.0,0.0,0.0,0.0,0.0,0.0,0.0,0.0,0.0,0.0,0.0,0.0,0.0,0.0,0.0,0.0,0.0,0.0,0.0,0.0,0.0,0.0,0.0,0.0,0.0,0.0,0.0,0.0,0.0,0.0,0.0,0.0,0.0,0.0,0.0,0.0,0.0,-4.1172,-4.166,-4.2129,-4.2539,-4.2637,-4.2676,-4.2676,-4.2207,-4.1777,0.0,0.0,0.0,0.0,0.0,0.0,0.0,0.0,0.0,0.0,0.0,0.0,0.0,0.0,0.0,0.0,0.0,0.0,0.0,0.0,0.0,0.0,0.0,0.0,0.0,0.0,0.0,0.0,0.0,0.0,0.0,0.0,0.0,0.0,0.0,0.0,0.0,0.0,0.0,0.0,0.0,-2.1269,-1.9786,-1.7543,0.0,0.0,0.0,0.0,-1.4647,-1.4584,0.0,0.0,0.0,0.0,0.0,0.0,0.0,0.0,0.0,0.0,0.0,0.0,0.0,0.0,0.0,0.0,0.0,0.0,0.0,0.0,0.0,0.0,0.0,0.0,0.0,0.0,0.0,0.0,0.0,0.0,0.0,0.0,0.0,0.0,0.0,0.0,0.0,0.0,0.0,0.0,0.0,0.0,0.0,0.0,0.0,0.0,0.0,0.0,0.0,0.0,0.0,0.0,0.0,0.0,0.0,0.0,-4.1191,-4.1953,-4.2558,-4.2988,-4.3359,-4.3555,-4.3535,-4.2773,-4.2324,0.0,0.0,0.0,0.0,0.0,0.0,0.0,0.0,0.0,0.0,0.0,0.0,0.0,0.0,0.0,0.0,0.0,0.0,0.0,0.0,0.0,0.0,0.0,0.0,0.0,0.0,0.0,0.0,0.0,0.0,0.0,0.0,0.0,0.0,0.0,0.0,0.0,0.0,0.0,0.0,0.0,-2.4603,-2.4538,-2.2402,-2.0059,0.0,0.0,-1.7041,-1.4979,-1.4828,0.0,0.0,0.0,0.0,0.0,0.0,0.0,0.0,0.0,0.0,0.0,0.0,0.0,0.0,0.0,0.0,0.0,0.0,0.0,0.0,0.0,0.0,0.0,0.0,0.0,0.0,0.0,0.0,0.0,0.0,0.0,0.0,0.0,0.0,0.0,0.0,0.0,0.0,0.0,0.0,0.0,0.0,0.0,0.0,0.0,0.0,0.0,0.0,0.0,0.0,0.0,0.0,0.0,0.0,0.0,-4.1699,-4.1914,-4.2715,-4.3242,-4.3437,-4.3613,-4.3691,-4.3691,-4.2871,-4.2422,0.0,0.0,0.0,0.0,0.0,0.0,0.0,0.0,0.0,0.0,0.0,0.0,0.0,0.0,0.0,0.0,0.0,0.0,0.0,0.0,0.0,0.0,0.0,0.0,0.0,0.0,0.0,0.0,0.0,0.0,0.0,0.0,0.0,0.0,0.0,0.0,0.0,0.0,0.0,0.0,0.0,0.0,-2.3477,-2.2428,0.0,0.0,0.0,-1.7395,-1.4979,0.0,0.0,0.0,0.0,0.0,0.0,0.0,0.0,0.0,0.0,0.0,0.0,0.0,0.0,0.0,0.0,0.0,0.0,0.0,0.0,0.0,0.0,0.0,0.0,0.0,0.0,0.0,0.0,0.0,0.0,0.0,0.0,0.0,0.0,0.0,0.0,0.0,0.0,0.0,0.0,0.0,0.0,0.0,0.0,0.0,0.0,0.0,0.0,0.0,0.0,0.0,0.0,0.0,0.0,0.0,0.0,0.0,-4.2441,-4.3262,-4.3691,-4.3691,-4.3691,-4.3691,-4.3691,-4.2988,0.0,0.0,0.0,0.0,0.0,0.0,0.0,0.0,0.0,0.0,0.0,0.0,0.0,0.0,0.0,0.0,0.0,0.0,0.0,0.0,0.0,0.0,0.0,0.0,0.0,0.0,0.0,-2.7335,0.0,0.0,0.0,0.0,0.0,0.0,0.0,0.0,0.0,0.0,0.0,0.0,0.0,0.0,-2.5442,-2.2956,-2.3222,-2.1819,0.0,0.0,-1.8026,-1.5084,-1.4848,-1.4923,0.0,0.0,0.0,0.0,0.0,0.0,0.0,0.0,0.0,0.0,0.0,0.0,0.0,0.0,0.0,0.0,0.0,0.0,0.0,0.0,0.0,0.0,0.0,0.0,0.0,0.0,0.0,0.0,0.0,0.0,0.0,0.0,0.0,0.0,0.0,0.0,0.0,0.0,0.0,0.0,0.0,0.0,0.0,0.0,0.0,0.0,0.0,0.0,0.0,0.0,0.0,0.0,0.0,0.0,-4.2422,-4.2441,-4.3262,-4.3691,-4.3691,-4.3691,-4.3691,-4.3691,-4.3281,-4.2832,0.0,0.0,0.0,0.0,0.0,0.0,0.0,0.0,0.0,0.0,0.0,0.0,0.0,0.0,0.0,0.0,0.0,0.0,0.0,0.0,0.0,0.0,0.0,0.0,0.0,0.0,0.0,0.0,0.0,0.0,0.0,0.0,0.0,0.0,0.0,0.0,0.0,0.0,0.0,0.0,0.0,-2.7885,-2.5466,-2.7072,-2.6078,0.0,-2.0132,-1.9986,-1.5647,-1.5065,-1.5065,-1.4767,0.0,0.0,0.0,0.0,0.0,0.0,0.0,0.0,0.0,0.0,0.0,0.0,0.0,0.0,0.0,0.0,0.0,0.0,0.0,0.0,0.0,0.0,0.0,0.0,0.0,0.0,0.0,0.0,0.0,0.0,0.0,0.0,0.0,0.0,0.0,0.0,0.0,0.0,0.0,0.0,0.0,0.0,0.0,0.0,0.0,0.0,0.0,0.0,0.0,0.0,0.0,0.0,0.0,-4.2422,-4.2441,-4.3262,-4.3691,-4.3691,-4.3691,-4.3691,-4.3691,-4.3281,-4.2871,0.0,0.0,0.0,0.0,0.0,0.0,0.0,0.0,0.0,0.0,0.0,0.0,0.0,0.0,0.0,0.0,0.0,0.0,0.0,0.0,0.0,0.0,0.0,0.0,0.0,0.0,0.0,0.0,-2.819,-2.8257,-2.8257,0.0,0.0,0.0,0.0,0.0,0.0,0.0,0.0,0.0,0.0,-2.8212,-2.5956,-2.6423,0.0,0.0,-1.9162,-1.8556,-1.5279,-1.495,-1.495,-1.4645,-1.4597,0.0,0.0,0.0,0.0,0.0,0.0,0.0,0.0,0.0,0.0,0.0,0.0,0.0,0.0,0.0,0.0,0.0,0.0,0.0,0.0,0.0,0.0,0.0,0.0,0.0,0.0,0.0,0.0,0.0,0.0,0.0,0.0,0.0,0.0,0.0,0.0,0.0,0.0,0.0,0.0,0.0,0.0,0.0,0.0,0.0,0.0,0.0,0.0,0.0,0.0,0.0,0.0,-4.2422,-4.2422,-4.3281,-4.3691,-4.3691,-4.3691,-4.3691,-4.3691,-4.3418,-4.3066,0.0,0.0,0.0,0.0,0.0,0.0,0.0,0.0,0.0,0.0,0.0,0.0,0.0,0.0,0.0,0.0,0.0,0.0,0.0,0.0,0.0,0.0,0.0,0.0,0.0,0.0,0.0,0.0,-2.8551,-2.8604,-2.8604,0.0,0.0,0.0,0.0,0.0,0.0,0.0,0.0,0.0,0.0,-2.8579,-2.698,-2.6726,-2.5279,-2.1229,-2.044,-1.9293,-1.6181,-1.5821,-1.5638,-1.4701,0.0,0.0,0.0,0.0,0.0,0.0,0.0,0.0,0.0,0.0,0.0,0.0,0.0,0.0,0.0,0.0,0.0,0.0,0.0,0.0,0.0,0.0,0.0,0.0,0.0,0.0,0.0,-5.1272,0.0,0.0,-5.1214,0.0,0.0,0.0,0.0,0.0,0.0,0.0,0.0,0.0,0.0,0.0,0.0,0.0,0.0,0.0,0.0,0.0,0.0,0.0,0.0,0.0,0.0,-4.2422,-4.2441,-4.3262,-4.3691,-4.3691,-4.3691,-4.3691,-4.3691,-4.3691,-4.3496,-4.3066,0.0,0.0,0.0,0.0,0.0,0.0,0.0,0.0,0.0,0.0,0.0,0.0,0.0,0.0,0.0,0.0,0.0,0.0,0.0,0.0,0.0,0.0,0.0,0.0,0.0,0.0,-2.8288,-2.843,-2.8604,0.0,0.0,0.0,0.0,0.0,0.0,0.0,0.0,0.0,-2.8617,-2.9112,-2.9366,-2.8911,-2.8871,-2.781,-2.5489,-2.4817,-2.314,-1.8746,-1.8059,-1.7344,0.0,0.0,0.0,0.0,0.0,0.0,0.0,0.0,0.0,0.0,0.0,0.0,0.0,0.0,0.0,0.0,0.0,0.0,0.0,0.0,0.0,0.0,0.0,0.0,0.0,0.0,0.0,-5.2026,-5.2377,0.0,0.0,0.0,0.0,0.0,0.0,0.0,0.0,0.0,0.0,0.0,-4.8411,-4.8411,0.0,0.0,0.0,0.0,0.0,0.0,0.0,0.0,0.0,0.0,0.0,0.0,-4.2422,-4.2461,-4.3281,-4.3691,-4.3691,-4.3691,-4.3691,-4.3691,-4.3691,-4.3516,-4.3086,0.0,0.0,0.0,0.0,0.0,0.0,0.0,0.0,0.0,0.0,0.0,0.0,0.0,0.0,0.0,0.0,0.0,0.0,0.0,0.0,0.0,0.0,0.0,0.0,0.0,-2.8564,0.0,0.0,0.0,0.0,0.0,0.0,0.0,0.0,0.0,0.0,-2.8551,-2.8684,-2.8871,-2.8898,-2.8938,-2.9018,-2.761,-2.6418,0.0,0.0,0.0,0.0,0.0,0.0,0.0,0.0,0.0,0.0,0.0,0.0,0.0,-1.4597,-1.4563,-1.4462,-1.4523,-1.459,-1.459,0.0,0.0,0.0,0.0,0.0,0.0,0.0,0.0,0.0,0.0,0.0,0.0,0.0,0.0,-5.3055,-5.3206,-5.3406,0.0,0.0,0.0,0.0,0.0,0.0,0.0,0.0,-5.1192,-5.0889,-5.1029,-5.1029,-5.0318,-4.9035,-4.8031,-4.6936,0.0,0.0,0.0,0.0,0.0,0.0,0.0,0.0,-4.2422,-4.2461,-4.3262,-4.3691,-4.3691,-4.3691,-4.3691,-4.3691,-4.3691,-4.3574,-4.3301,-4.2871,-4.2519,0.0,0.0,0.0,0.0,0.0,0.0,0.0,0.0,0.0,0.0,0.0,0.0,0.0,0.0,0.0,0.0,0.0,0.0,0.0,0.0,0.0,0.0,0.0,-2.8644,0.0,0.0,0.0,0.0,0.0,0.0,0.0,0.0,0.0,-2.8604,-2.8698,-2.8831,-2.9018,-2.8965,-2.8911,-2.8885,0.0,0.0,0.0,0.0,0.0,0.0,0.0,-1.5474,-1.4544,-1.4496,-1.4563,-1.4658,-1.4706,-1.474,-1.474,0.0,0.0,-1.4618,-1.4672,-1.474,-1.474,-1.474,-1.474,-1.474,-1.474,-1.474,0.0,0.0,0.0,0.0,0.0,0.0,0.0,0.0,-5.4336,-5.426,0.0,-5.4336,0.0,0.0,0.0,0.0,-5.3783,-5.4285,0.0,0.0,-5.5569,-5.5892,-5.5343,-5.5318,-5.5349,-5.5209,-5.2474,-5.0284,-4.8328,-4.4442,0.0,0.0,0.0,0.0,0.0,0.0,-4.2441,-4.248,-4.3281,-4.3691,-4.3691,-4.3691,-4.3691,-4.3691,-4.3691,-4.3691,-4.3691,-4.3301,-4.3086,-4.3047,-4.2285,0.0,0.0,0.0,0.0,0.0,0.0,0.0,0.0,0.0,0.0,0.0,0.0,0.0,0.0,0.0,0.0,0.0,0.0,0.0,0.0,-3.1172,0.0,0.0,0.0,0.0,0.0,0.0,0.0,0.0,0.0,-2.8631,-2.8631,-2.8845,-2.8945,-2.8931,0.0,0.0,0.0,0.0,-2.8831,-2.8283,-2.6188,-2.3858,-2.1704,-1.9429,-1.7234,-1.516,0.0,0.0,-1.497,-1.4848,-1.476,-1.4753,-1.4882,-1.493,-1.478,-1.4767,-1.4767,-1.4767,-1.4774,-1.476,-1.4753,-1.4787,-1.4774,-5.4235,0.0,0.0,0.0,0.0,-5.4034,-5.4411,-5.4913,-5.5089,-5.5064,-5.4913,-5.5089,0.0,0.0,0.0,0.0,0.0,0.0,-5.4787,-5.5164,-5.5491,-5.5742,-5.5968,-5.5968,-5.5208,-5.3693,-5.1431,-5.0081,-4.9373,-4.5411,-4.2812,-4.1816,0.0,0.0,0.0,0.0,-4.2578,-4.291,-4.3437,-4.3691,-4.3691,-4.3691,-4.3691,-4.3691,-4.3691,-4.3691,-4.3691,-4.3594,-4.3379,-4.3086,-4.2832,0.0,0.0,0.0,0.0,0.0,0.0,0.0,0.0,0.0,0.0,0.0,0.0,0.0,0.0,0.0,0.0,0.0,0.0,0.0,-3.3193,-3.0439,-2.8778,0.0,0.0,0.0,0.0,0.0,0.0,0.0,0.0,0.0,-2.8911,-2.8804,-2.8738,0.0,0.0,-2.847,-2.8297,-2.8537,-2.8738,-2.8778,-2.6835,0.0,-2.4672,-2.1056,-1.8082,-1.7419,-1.6041,-1.497,-1.497,-1.5018,-1.5059,-1.5052,-1.5092,-1.5106,-1.5072,-1.5059,-1.5052,-1.5059,-1.5059,-1.5052,-1.5059,-1.5059,-1.5052,-5.5516,-5.5189,-5.4737,-5.4687,-5.4888,-5.4888,-5.5214,-5.5717,-5.5717,-5.5591,-5.5415,-5.5616,-5.529,-5.4561,-5.4561,0.0,0.0,0.0,-5.5189,-5.5717,-5.5717,-5.5892,-5.6194,-5.6219,-5.5578,-5.423,-5.2207,-5.0794,-4.9984,-4.723,-4.5082,-4.3616,0.0,-4.3154,-4.2051,-4.2461,-4.2812,-4.3086,-4.3496,-4.3691,-4.3691,-4.3691,-4.3691,-4.3691,-4.3691,-4.3691,-4.3691,-4.3691,-4.3594,-4.334,-4.3164,-4.2851,0.0,0.0,0.0,0.0,0.0,0.0,0.0,0.0,0.0,0.0,0.0,-4.1699,-4.1445,0.0,0.0,0.0,-3.6302,-3.498,-3.2318,-3.0153,0.0,0.0,0.0,0.0,0.0,0.0,0.0,-2.827,-2.8711,-2.8958,-2.9032,-2.8885,-2.8831,-2.8938,-2.8791,-2.8631,-2.8511,0.0,-2.8978,-2.9032,-2.7072,-2.5689,-2.5754,-2.2499,-1.9617,-1.8706,-1.6627,-1.5145,-1.5059,-1.5126,-1.5181,-1.5181,-1.5181,-1.5181,-1.5181,-1.5181,-1.5181,-1.5181,-1.5181,-1.5181,-1.5181,-1.5181,-1.5181,-5.6219,-5.6118,-5.5114,-5.4988,-5.544,-5.5465,-5.5742,-5.6194,-5.6219,-5.5942,-5.5516,-5.5993,-5.5666,-5.4712,-5.4687,0.0,-5.544,-5.5465,-5.5742,-5.6219,-5.6219,-5.6219,-5.6219,-5.6219,-5.6219,-5.612,-5.4149,-5.2293,-5.0591,-4.9729,-4.8454,-4.679,-4.4724,-4.3415,-4.276,-4.2972,-4.3144,-4.3183,-4.3574,-4.3789,-4.3808,-4.3789,-4.3789,-4.3808,-4.3808,-4.3808,-4.3808,-4.3769,-4.3769,-4.375,-4.3359,-4.3125,-4.3047,0.0,0.0,0.0,0.0,0.0,0.0,0.0,0.0,0.0,0.0,0.0,0.0,0.0,0.0,-3.8833,-3.465,0.0,-3.2338,-3.0153,0.0,0.0,0.0,-2.8751,-2.9005,-2.9058,-2.9058,-2.8958,0.0,0.0,-2.9072,-2.9072,-2.9179,-2.9486,-2.9486,-2.9352,-2.9072,-2.9272,-2.9379,-2.9125,-2.731,-2.5978,-2.6138,-2.3938,-2.1211,-1.8719,-1.6658,-1.5268,-1.5174,-1.5181,-1.5181,-1.5181,-1.5181,-1.5181,-1.5181,-1.5181,-1.5181,-1.5181,-1.5181,-1.5181,-1.5181,-1.5181,-1.5181,-5.6219,-5.6194,-5.5917,-5.5892,-5.6018,-5.6018,-5.6093,-5.6219,-5.6219,-5.6143,-5.6018,-5.6143,-5.6068,-5.5817,-5.5817,-5.5892,-5.6018,-5.6018,-5.6093,-5.6219,-5.6219,-5.6219,-5.6219,-5.6219,-5.6219,-5.6072,-5.4512,-5.4299,-5.5126,-5.2432,-5.1356,-5.1947,-4.9974,-4.774,-4.5336,-4.4116,-4.373,-4.4082,-4.418,-4.4394,-4.4687,-4.4719,-4.4699,-4.4707,-4.4707,-4.4707,-4.4707,-4.4394,-4.4238,-4.4219,-4.3808,-4.3398,-4.3086,-4.2578,0.0,0.0,0.0,0.0,0.0,0.0,0.0,0.0,0.0,-4.166,-4.1348,0.0,-4.0189,0.0,-3.2483,-3.0902,-3.2595,-3.0671,0.0,0.0,-2.8978,-2.8965,-2.9032,-2.9245,-2.9285,-2.9058,-2.9232,-2.9379,-2.9379,-2.9379,-2.9486,-2.9766,-2.9432,-2.9125,-2.9058,-2.9299,-2.9459,-2.9406,-2.9007,-2.8871,-2.8501,-2.5275,-2.1118,-1.6744,-1.565,-1.5181,-1.5181,-1.5181,-1.5181,-1.5181,-1.5181,-1.5181,-1.5181,-1.5181,-1.5181,-1.5181,-1.5181,-1.5181,-1.5181,-1.5181,-1.5181,-5.6219,-5.6219,-5.6219,-5.6219,-5.6219,-5.6219,-5.6219,-5.6219,-5.6219,-5.6219,-5.6219,-5.6219,-5.6219,-5.6219,-5.6219,-5.6219,-5.6219,-5.6219,-5.6219,-5.6219,-5.6219,-5.6219,-5.6219,-5.647,-5.657,-5.6522,-5.5952,-5.5744,-5.5844,-5.3936,-5.2894,-5.2797,-5.19,-5.0517,-4.8518,-4.6225,-4.4798,-4.4082,-4.4265,-4.4577,-4.5019,-4.5005,-4.4927,-4.4766,-4.4746,-4.4648,-4.4453,-4.4199,-4.4082,-4.4082,-4.3848,-4.3594,-4.3359,-4.2773,-4.2324,0.0,0.0,0.0,0.0,0.0,0.0,0.0,0.0,0.0,0.0,0.0,-4.0655,-3.7093,-3.2416,-3.0373,-3.2419,-3.0643,-2.9272,-2.9245,-2.9245,-2.9285,-2.9419,-2.9579,-2.9619,-2.9459,-2.9579,-2.9686,-2.9673,-2.9673,-2.9726,-2.99,-2.9633,-2.9432,-2.9446,-2.9579,-2.9673,-2.9686,-2.982,-2.9913,-2.9913,-2.5775,-2.1636,-1.8964,-1.6572,-1.5181,-1.5181,-1.5181,-1.5181,-1.5181,-1.5181,-1.5181,-1.5181,-1.5181,-1.5181,-1.5181,-1.5181,-1.5181,-1.5181,-1.5181,-1.5181,-5.6219,-5.6219,-5.6219,-5.6219,-5.6219,-5.6219,-5.6219,-5.6219,-5.6219,-5.6219,-5.6219,-5.6219,-5.6219,-5.6219,-5.6219,-5.6219,-5.6219,-5.6219,-5.6219,-5.6219,-5.6269,-5.6319,-5.6344,-5.6872,-5.7148,-5.7173,-5.7725,-5.7017,-5.5255,-5.5303,-5.4343,-5.2457,-5.289,-5.2684,-5.174,-4.8864,-4.6247,-4.395,-4.4337,-4.4745,-4.5117,-4.5049,-4.4875,-4.4531,-4.4473,-4.4297,-4.3887,-4.3828,-4.3789,-4.3789,-4.375,-4.373,-4.3769,-4.3027,-4.2617,0.0,-4.1933,0.0,0.0,0.0,0.0,0.0,0.0,0.0,0.0,-4.184,-4.0771,-3.8812,-3.3052,-3.0156,-3.1856,-3.0243,-2.9245,-2.9499,-2.9539,-2.9646,-2.9873,-2.9913,-2.9913,-2.9913,-2.9913,-2.9913,-2.99,-2.9913,-2.9913,-2.9913,-2.9887,-2.986,-2.99,-2.9887,-2.9887,-2.9913,-2.9913,-2.9824,-2.8989,-2.548,-2.2352,-2.1544,-1.8135,-1.5275,-1.5181,-1.5181,-1.5181,-1.5181,-1.5181,-1.5181,-1.5181,-1.5181,-1.5181,-1.5181,-1.5181,-1.5181,-1.5181,-1.5181,-1.5181,-5.6219,-5.6219,-5.6219,-5.6219,-5.6219,-5.6219,-5.6219,-5.6219,-5.6219,-5.6219,-5.6219,-5.6219,-5.6219,-5.6219,-5.6219,-5.6219,-5.6219,-5.6219,-5.6219,-5.6219,-5.6671,-5.6872,-5.6922,-5.7474,-5.775,-5.7775,-5.8303,-5.8325,-5.7918,-5.8417,-5.8161,-5.7355,-5.7453,-5.6333,-5.4046,0.0,0.0,0.0,-4.5176,-4.5535,-4.5527,-4.5222,-4.5007,-4.4902,-4.4902,0.0,-4.4766,-4.4453,-4.4277,-4.4258,-4.3906,0.0,0.0,0.0,0.0,0.0,0.0,0.0,0.0,0.0,0.0,0.0,-4.3086,-4.2715,-4.23,-3.9068,-3.6943,-3.6644,-3.2337,-2.973,-3.0335,-3.0007,-2.9766,-2.9833,-2.9833,-2.986,-2.9913,-2.9913,-2.9913,-2.9913,-2.9913,-2.9913,-2.994,-2.9913,-2.9913,-2.9913,-2.9913,-2.9913,-2.9913,-2.9913,-2.9913,-2.9913,-2.9913,-2.9169,-2.7238,-2.4583,-2.2109,-1.9763,-1.7211,-1.5368,-1.5181,-1.5181,-1.5181,-1.5181,-1.5181,-1.5181,-1.5181,-1.5181,-1.5181,-1.5181,-1.5181,-1.5181,-1.5181,-1.5181,-1.5181,-5.6219,-5.6219,-5.6219,-5.6219,0.0,-5.6219,-5.6219,-5.6219,-5.6219,-5.6219,-5.6219,-5.6219,-5.6219,-5.6219,-5.6219,-5.6219,-5.6219,-5.6495,-5.662,-5.6646,-5.7198,-5.7474,-5.7499,-5.8052,-5.8303,-5.8328,-5.8855,-5.9106,-5.9106,-5.9382,-5.8791,-5.7482,-5.7458,-5.6245,-5.3818,-5.1611,-4.8798,-4.5351,-4.5621,-4.5836,-4.5957,-4.575,-4.5515,-4.5351,-4.5351,0.0,0.0,0.0,0.0,0.0,0.0,0.0,0.0,-4.4288,0.0,-4.4355,-4.391,-4.3774,-4.4043,-4.4043,-4.4141,-4.4336,-4.416,-4.3672,-4.2812,-3.9785,-3.7554,-3.6505,-3.3399,-3.097,-2.999,-2.9913,-2.9913,-2.9913,-2.9913,-2.9967,-3.01,-3.014,-3.0194,-3.0327,-3.0341,-3.0314,-3.0325,-3.0258,-3.0164,-3.0146,-3.0016,-2.9927,-2.9913,-2.9913,-2.9913,-2.9913,-2.9913,-2.9451,-2.8166,-2.5934,-2.3511,-2.1083,-1.865,-1.6718,-1.5375,-1.5181,-1.5181,-1.5181,-1.5181,-1.5181,-1.5181,-1.5181,-1.5181,-1.5181,-1.5181,-1.5181,-1.5181,-1.5181,-1.5181,-5.6219,-5.6219,-5.6219,-5.6219,-5.6219,-5.6219,-5.6219,-5.6219,-5.6219,0.0,0.0,-5.6219,-5.6269,-5.6369,-5.6369,-5.642,-5.6545,-5.6972,-5.7198,-5.7223,-5.7775,-5.8052,-5.8077,-5.8604,-5.8855,-5.888,-5.9282,-5.9508,-5.9508,-5.9508,-5.8344,-5.6375,-5.6191,-5.4882,-5.2343,-5.0526,-4.8363,-4.5974,-4.5711,-4.5828,-4.6172,-4.6113,-4.5918,-4.5566,-4.5566,-4.5391,-4.5039,-4.5039,-4.5039,-4.5039,-4.5039,-4.5058,-4.5117,-4.4783,-4.467,-4.4687,-4.4388,-4.4284,-4.4726,-4.4726,-4.4844,-4.5137,-4.5156,-4.4648,-4.3496,-4.1658,-3.9551,-3.7181,-3.494,-3.2599,-3.029,-3.006,-3.0074,-3.0074,-3.0074,-3.0181,-3.0394,-3.0434,-3.0528,-3.0742,-3.0768,-3.082,-3.0724,-3.0566,-3.0432,-3.0411,-3.0294,-3.0074,-3.006,-2.9993,-2.9913,-2.9913,-2.9913,-2.9913,-2.9541,-2.769,-2.5412,-2.2749,-2.0379,-1.8094,-1.5953,-1.5181,-1.5181,-1.5181,-1.5181,-1.5181,-1.5181,-1.5181,-1.5194,-1.5221,-1.5228,-1.5242,-1.5262,-1.5276,-1.5276,-5.6219,-5.6219,-5.6219,-5.6219,-5.6219,-5.6219,-5.6219,-5.6219,-5.6219,-5.6219,-5.6219,-5.6219,-5.6446,-5.6899,-5.6873,-5.7198,-5.765,-5.775,-5.7775,-5.7801,-5.8353,-5.8604,-5.8629,-5.9131,-5.9382,-5.9382,-5.9458,-5.9508,-5.9508,-5.9508,-5.8422,-5.651,-5.6191,-5.4128,-5.0357,-4.9786,-4.8507,-4.6279,-4.584,-4.5683,-4.5762,-4.5391,-4.5176,-4.5117,-4.5137,-4.5098,-4.5039,-4.5039,-4.5039,-4.5039,-4.5039,-4.5195,-4.5547,-4.5562,-4.568,-4.5976,-4.5948,-4.5948,-4.6016,-4.6035,-4.5898,-4.5625,-4.5586,-4.5351,-4.472,-4.2683,-4.038,-3.7924,-3.5608,-3.327,-3.1022,-3.066,-3.0635,-3.0648,-3.0662,-3.0688,-3.0728,-3.0728,-3.0755,-3.0822,-3.0795,-3.0847,-3.0832,-3.0767,-3.0767,-3.0711,-3.0633,-3.0635,-3.0541,-3.0234,-2.9953,-2.9913,-2.9913,-2.9913,-2.9684,-2.7835,-2.5581,-2.2902,-2.0593,-1.8338,-1.5612,-1.5221,-1.5221,-1.5194,-1.5215,-1.5208,-1.5201,-1.5181,-1.5248,-1.535,-1.5404,-1.5363,-1.5527,-1.5498,-1.5464,-5.6219,-5.6219,-5.6219,-5.6219,-5.6244,-5.652,-5.6671,-5.6696,-5.6997,-5.6898,-5.6672,-5.6597,-5.6973,-5.7475,-5.75,-5.765,-5.7901,-5.8202,-5.8353,-5.8378,-5.888,-5.9131,-5.9156,-5.9382,-5.9508,-5.9508,-5.9508,-5.9508,-5.9508,-5.9508,-5.8993,-5.7849,-5.5631,-5.2734,-4.9786,-4.8376,-4.7295,-4.6308,-4.6113,-4.6016,-4.6016,-4.582,-4.5723,-4.5723,-4.5723,-4.5703,-4.5723,-4.5723,-4.5723,-4.5723,-4.5723,-4.582,-4.5996,-4.6044,-4.6142,-4.6289,-4.6308,-4.6308,-4.6308,-4.6308,-4.623,-4.6035,-4.6016,-4.5937,-4.5742,-4.431,-4.1849,-3.8289,-3.6892,-3.4804,-3.1222,-3.0823,-3.0795,-3.0795,-3.0795,-3.0862,-3.0996,-3.1036,-3.1089,-3.1236,-3.1263,-3.1236,-3.1249,-3.1076,-3.0983,-3.0983,-3.0889,-3.0808,-3.0808,-3.0581,-3.0394,-3.0394,-3.0394,-3.0394,-3.029,-2.9573,-2.7129,-2.3541,-2.2046,-1.963,-1.6407,-1.5432,-1.5425,-1.5432,-1.5425,-1.5432,-1.5425,-1.5432,-1.5466,-1.5506,-1.5498,-1.5552,-1.5559,-1.5579,-1.5532,-5.6294,-5.6394,-5.6394,-5.647,-5.662,-5.7047,-5.7223,-5.7273,-5.77,-5.7675,-5.7375,-5.7249,-5.755,-5.8025,-5.8076,-5.8152,-5.8303,-5.8704,-5.888,-5.893,-5.9307,-5.9508,-5.9508,-5.9508,-5.9508,-5.9508,-5.9508,-5.9508,-5.9508,-5.9508,-5.8915,-5.7692,-5.4069,-5.103,-4.887,-4.7121,-4.6308,-4.6308,-4.6308,-4.6308,-4.6308,-4.6308,-4.6308,-4.6308,-4.6289,-4.6308,-4.6308,-4.6308,-4.6308,-4.6308,-4.6308,-4.6308,-4.6308,-4.6308,-4.6308,-4.6308,-4.6308,-4.6308,-4.6308,-4.6308,-4.6308,-4.6308,-4.6308,-4.6308,-4.625,-4.5703,-4.3291,-3.9045,-3.8129,-3.6214,-3.2068,-3.1062,-3.0996,-3.0996,-3.0996,-3.1102,-3.1289,-3.133,-3.141,-3.1637,-3.1677,-3.1664,-3.1637,-3.1476,-3.1302,-3.1301,-3.1156,-3.1009,-3.0996,-3.0996,-3.0982,-3.0969,-3.0889,-3.0768,-3.0782,-3.0715,-2.8779,-2.4732,-2.349,-2.1197,-1.7855,-1.6194,-1.5635,-1.5615,-1.5622,-1.5608,-1.5628,-1.5628,-1.5642,-1.5676,-1.5639,-1.5673,-1.5771,-1.5764,-1.571,-5.652,-5.6922,-5.6972,-5.7273,-5.77,-5.7801,-5.7826,-5.7826,-5.7876,-5.8177,-5.8478,-5.8052,-5.8152,-5.8553,-5.8654,-5.888,-5.9282,-5.9408,-5.9408,-5.9408,-5.9483,-5.9508,-5.9508,-5.9508,-5.9508,-5.9508,-5.9508,-5.9508,-5.9483,-5.9405,-5.751,-5.3661,-5.1114,-4.8955,-4.688,-4.6464,-4.6308,-4.6308,-4.6308,-4.6308,-4.6308,-4.6308,-4.6308,-4.6308,-4.6308,-4.6308,-4.6308,-4.6308,-4.6308,-4.6308,-4.6308,-4.6308,-4.6308,-4.6308,-4.6308,-4.6308,-4.6308,-4.6308,-4.6308,-4.6308,-4.6308,-4.6308,-4.6308,-4.6308,-4.6308,-4.623,-4.4121,-4.0141,-3.8903,-3.6758,-3.238,-3.1583,-3.153,-3.1503,-3.153,-3.161,-3.1597,-3.1623,-3.165,-3.1664,-3.1677,-3.1677,-3.1664,-3.1623,-3.1623,-3.165,-3.157,-3.1476,-3.149,-3.149,-3.1503,-3.145,-3.1169,-3.0862,-3.0849,-3.0836,-2.9348,-2.6899,-2.4662,-2.1943,-1.9171,-1.6816,-1.5642,-1.5723,-1.5676,-1.5683,-1.5669,-1.5642,-1.5703,-1.5811,-1.5859,-1.5886,-1.5995,-1.6015,-1.5927,-5.7349,-5.7549,-5.7549,-5.7675,-5.7926,-5.8252,-5.8378,-5.8403,-5.8704,-5.8981,-5.9131,-5.893,-5.8981,-5.9182,-5.9182,-5.9307,-5.9483,-5.9508,-5.9508,-5.9508,-5.9508,-5.9508,-5.9508,-5.9508,-5.9508,-5.9508,-5.9508,-5.9508,-5.9251,-5.8187,-5.6638,-5.4662,-5.1344,-4.9126,-4.8204,-4.6967,-4.6308,-4.6308,-4.6308,-4.6308,-4.6308,-4.6308,-4.6308,-4.6308,-4.6308,-4.6308,-4.6308,-4.6308,-4.6308,-4.6308,-4.6308,-4.6308,-4.6308,-4.6308,-4.6308,-4.6308,-4.6308,-4.6308,-4.6308,-4.6308,-4.6308,-4.6308,-4.6308,-4.6308,-4.6308,-4.6308,-4.4805,-4.167,-3.9801,-3.7496,-3.4225,-3.2542,-3.1677,-3.1677,-3.1677,-3.1677,-3.1677,-3.1677,-3.1677,-3.1677,-3.1677,-3.1677,-3.1677,-3.1677,-3.1677,-3.1677,-3.1677,-3.1677,-3.1677,-3.1677,-3.1677,-3.1637,-3.145,-3.133,-3.1303,-3.1356,-2.9621,-2.6427,-2.4362,-2.2529,-1.8622,-1.6861,-1.59,-1.5893,-1.5879,-1.5879,-1.5913,-1.59,-1.5927,-1.5981,-1.5988,-1.6015,-1.6069,-1.6083,-1.6008,-5.8001,-5.8152,-5.8278,-5.8328,-5.8378,-5.8755,-5.893,-5.8981,-5.9332,-5.9508,-5.9508,-5.9508,-5.9508,-5.9508,-5.9508,-5.9508,-5.9508,-5.9508,-5.9508,-5.9508,-5.9508,-5.9508,-5.9508,-5.9508,-5.9508,-5.9508,-5.9508,-5.9508,-5.9251,-5.7273,-5.5895,-5.4824,-5.1427,-4.9297,-4.8548,-4.7054,-4.6308,-4.6308,-4.6308,-4.6308,-4.6308,-4.6308,-4.6308,-4.6308,-4.6308,-4.6308,-4.6308,-4.6308,-4.6308,-4.6308,-4.6308,-4.6308,-4.6308,-4.6308,-4.6308,-4.6308,-4.6308,-4.6308,-4.6308,-4.6308,-4.6308,-4.6308,-4.6308,-4.6308,-4.6308,-4.6308,-4.5502,-4.374,-4.0797,-3.8014,-3.5529,-3.3159,-3.1758,-3.1677,-3.1677,-3.1677,-3.1677,-3.1677,-3.1677,-3.1677,-3.1677,-3.1677,-3.1677,-3.1677,-3.1677,-3.1677,-3.1677,-3.1677,-3.1677,-3.1677,-3.1677,-3.1677,-3.1664,-3.165,-3.1677,-3.1637,-2.9517,-2.7372,-2.5518,-2.2595,-1.8525,-1.7642,-1.6076,-1.5995,-1.6056,-1.6069,-1.6022,-1.6049,-1.6069,-1.6076,-1.6076,-1.6076,-1.6076,-1.6083,-1.6083,-5.8218,-5.8678,-5.9207,-5.9357,-5.9408,-5.9433,-5.9433,-5.9408,-5.9483,-5.9508,-5.9508,-5.9508,-5.9508,-5.9508,-5.9508,-5.9508,-5.9508,-5.9508,-5.9508,-5.9508,-5.9508,-5.9508,-5.9508,-5.9508,-5.9508,-5.9508,-5.9508,-5.9405,-5.9251,-5.7169,-5.5124,-5.2921,-5.0526,-4.8462,-4.688,-4.6464,-4.6308,-4.6308,-4.6308,-4.6308,-4.6308,-4.6308,-4.6308,-4.6308,-4.6308,-4.6308,-4.6308,-4.6308,-4.6308,-4.6308,-4.6308,-4.6308,-4.6308,-4.6308,-4.6308,-4.6308,-4.6308,-4.6308,-4.6308,-4.6308,-4.6308,-4.6308,-4.6308,-4.6308,-4.6308,-4.6308,-4.6182,-4.5987,-4.1852,-3.8288,-3.5806,-3.3253,-3.1758,-3.1677,-3.1677,-3.1677,-3.1677,-3.1677,-3.1677,-3.1677,-3.1677,-3.1677,-3.1677,-3.1677,-3.1677,-3.1677,-3.1677,-3.1677,-3.1677,-3.1677,-3.1677,-3.1677,-3.1677,-3.1677,-3.1677,-3.1677,-3.1569,-2.9326,-2.5915,-2.3578,-2.193,-2.0085,-1.7741,-1.6083,-1.6083,-1.6083,-1.6083,-1.6076,-1.6076,-1.6083,-1.6083,-1.6083,-1.6083,-1.6083,-1.6083,-5.9025,-5.9232,-5.9408,-5.9508,-5.9508,-5.9508,-5.9508,-5.9508,-5.9508,-5.9508,-5.9508,-5.9508,-5.9508,-5.9508,-5.9508,-5.9508,-5.9508,-5.9508,-5.9508,-5.9508,-5.9508,-5.9508,-5.9508,-5.9508,-5.9508,-5.9508,-5.9508,-5.8759,-5.7248,-5.5124,-5.2981,-5.0778,-4.8548,-4.7054,-4.6376,-4.6308,-4.6308,-4.6308,-4.6308,-4.6308,-4.6308,-4.6308,-4.6308,-4.6308,-4.6308,-4.6308,-4.6308,-4.6308,-4.6308,-4.6308,-4.6308,-4.6308,-4.6308,-4.6308,-4.6308,-4.6308,-4.6308,-4.6308,-4.6308,-4.6308,-4.6308,-4.6308,-4.6308,-4.6308,-4.6308,-4.6308,-4.6308,-4.5656,-4.3353,-4.0305,-3.7572,-3.4125,-3.1677,-3.1677,-3.1677,-3.1677,-3.1677,-3.1677,-3.1677,-3.1677,-3.1677,-3.1677,-3.1677,-3.1677,-3.1677,-3.1677,-3.1677,-3.1677,-3.1677,-3.1677,-3.1677,-3.1677,-3.1677,-3.1677,-3.1677,-3.1677,-3.1175,-2.8847,-2.6119,-2.3384,-2.1343,-1.8912,-1.6374,-1.6182,-1.6083,-1.6083,-1.6083,-1.6083,-1.6083,-1.6083,-1.6083,-1.6083,-1.6083,-1.6083,-1.6083,-5.9508,-5.9508,-5.9508,-5.9508,-5.9508,-5.9508,-5.9508,-5.9508,-5.9508,-5.9508,-5.9508,-5.9508,-5.9508,-5.9508,-5.9508,-5.9508,-5.9508,-5.9508,-5.9508,-5.9508,-5.9508,-5.9508,-5.9508,-5.9508,-5.9508,-5.9328,-5.8759,-5.7588,-5.6032,-5.3228,-5.1092,-4.9531,-4.7381,-4.6308,-4.6308,-4.6308,-4.6308,-4.6308,-4.6308,-4.6308,-4.6308,-4.6308,-4.6308,-4.6308,-4.6308,-4.6308,-4.6308,-4.6308,-4.6308,-4.6308,-4.6308,-4.6308,-4.6308,-4.6308,-4.6308,-4.6308,-4.6308,-4.6308,-4.6308,-4.6308,-4.6308,-4.6308,-4.6308,-4.6308,-4.6308,-4.6308,-4.6308,-4.5744,-4.3193,-4.0627,-3.8536,-3.4607,-3.1758,-3.1677,-3.1677,-3.1677,-3.1677,-3.1677,-3.1677,-3.1677,-3.1677,-3.1677,-3.1677,-3.1677,-3.1677,-3.1677,-3.1677,-3.1677,-3.1677,-3.1677,-3.1677,-3.1677,-3.1677,-3.1677,-3.1677,-3.1677,-3.1664,-2.9625,-2.6119,-2.3286,-2.0853,-1.8129,-1.6275,-1.6182,-1.6083,-1.6083,-1.6083,-1.6083,-1.6083,-1.6083,-1.6083,-1.6083,-1.6083,-1.6083,-1.6083,-5.9508,-5.9508,-5.9508,-5.9508,-5.9508,-5.9508,-5.9508,-5.9508,-5.9508,-5.9508,-5.9508,-5.9508,-5.9508,-5.9508,-5.9508,-5.9508,-5.9508,-5.9508,-5.9508,-5.9508,-5.9508,-5.9508,-5.9508,-5.9508,-5.9328,-5.9095,-5.7297,-5.6215,-5.5366,-5.1844,-4.9701,-4.9126,-4.7295,-4.6308,-4.6308,-4.6308,-4.6308,-4.6308,-4.6308,-4.6308,-4.6308,-4.6308,-4.6308,-4.6308,-4.6308,-4.6308,-4.6308,-4.6308,-4.6308,-4.6308,-4.6308,-4.6308,-4.6308,-4.6308,-4.6308,-4.6308,-4.6308,-4.6308,-4.6308,-4.6308,-4.6308,-4.6308,-4.6308,-4.6308,-4.6308,-4.6308,-4.6308,-4.5656,-4.2443,-3.925,-3.8536,-3.4872,-3.1948,-3.1677,-3.1677,-3.1677,-3.1677,-3.1677,-3.1677,-3.1677,-3.1677,-3.1677,-3.1677,-3.1677,-3.1677,-3.1677,-3.1677,-3.1677,-3.1677,-3.1677,-3.1677,-3.1677,-3.1677,-3.1677,-3.1677,-3.1677,-3.1569,-3.0687,-2.6698,-2.3199,-2.1343,-1.8912,-1.6665,-1.6083,-1.6083,-1.6083,-1.6083,-1.6083,-1.6083,-1.6083,-1.6083,-1.6083,-1.6083,-1.6083,-1.6083,-5.9508,-5.9508,-5.9508,-5.9508,-5.9508,-5.9508,-5.9508,-5.9508,-5.9508,-5.9508,-5.9508,-5.9508,-5.9508,-5.9508,-5.9508,-5.9508,-5.9508,-5.9508,-5.9508,-5.9508,-5.9508,-5.9508,-5.9483,-5.9508,-5.8681,-5.7376,-5.6558,-5.4581,-5.1927,-5.0273,-4.8955,-4.7468,-4.6726,-4.6308,-4.6308,-4.6308,-4.6308,-4.6308,-4.6308,-4.6308,-4.6308,-4.6308,-4.6308,-4.6308,-4.6308,-4.6308,-4.6308,-4.6308,-4.6308,-4.6308,-4.6308,-4.6308,-4.6308,-4.6308,-4.6308,-4.6308,-4.6308,-4.6308,-4.6308,-4.6308,-4.6308,-4.6308,-4.6308,-4.6308,-4.6308,-4.6308,-4.6308,-4.6114,-4.3371,-4.0988,-3.8902,-3.6159,-3.3497,-3.1853,-3.1677,-3.1677,-3.1677,-3.1677,-3.1677,-3.1677,-3.1677,-3.1677,-3.1677,-3.1677,-3.1677,-3.1677,-3.1677,-3.1677,-3.1677,-3.1677,-3.1677,-3.1677,-3.1677,-3.1677,-3.1677,-3.1284,-3.0782,-2.9517,-2.6012,-2.3101,-2.1245,-1.9207,-1.7055,-1.6083,-1.6083,-1.6083,-1.6083,-1.6083,-1.6083,-1.6083,-1.6083,-1.6083,-1.6083,-1.6083,-1.6083,-5.9508,-5.9508,-5.9508,-5.9508,-5.9508,-5.9508,-5.9508,-5.9508,-5.9508,-5.9508,-5.9508,-5.9508,-5.9508,-5.9508,-5.9508,-5.9508,-5.9508,-5.9508,-5.9508,-5.9508,-5.9508,-5.9508,-5.9328,-5.8603,-5.7692,-5.6055,-5.4476,-5.2343,-4.9701,-4.8719,-4.7621,-4.6551,-4.6308,-4.6308,-4.6308,-4.6308,-4.6308,-4.6308,-4.6308,-4.6308,-4.6308,-4.6308,-4.6308,-4.6308,-4.6308,-4.6308,-4.6308,-4.6308,-4.6308,-4.6308,-4.6308,-4.6308,-4.6308,-4.6308,-4.6308,-4.6308,-4.6308,-4.6308,-4.6308,-4.6308,-4.6308,-4.6308,-4.6308,-4.6308,-4.6308,-4.6308,-4.6308,-4.6026,-4.3086,-4.0627,-3.8885,-3.5788,-3.3403,-3.1948,-3.1677,-3.1677,-3.1677,-3.1677,-3.1677,-3.1677,-3.1677,-3.1677,-3.1677,-3.1677,-3.1677,-3.1677,-3.1677,-3.1677,-3.1677,-3.1677,-3.1677,-3.1677,-3.1677,-3.1677,-3.1677,-3.0985,-3.0007,-2.7768,-2.5045,-2.2702,-2.0755,-1.8327,-1.6083,-1.6083,-1.6083,-1.6083,-1.6083,-1.6083,-1.6083,-1.6083,-1.6083,-1.6083,-1.6083,-1.6083,-1.6083,-5.9508,-5.9508,-5.9508,-5.9508,-5.9508,-5.9508,-5.9508,-5.9508,-5.9508,-5.9508,-5.9508,-5.9508,-5.9508,-5.9508,-5.9508,-5.9508,-5.9508,-5.9508,-5.9508,-5.9405,-5.9251,-5.8993,-5.8759,-5.6956,-5.5734,-5.4743,-5.1761,-4.9786,-4.8955,-4.7468,-4.6308,-4.6308,-4.6308,-4.6308,-4.6308,-4.6308,-4.6308,-4.6308,-4.6308,-4.6308,-4.6308,-4.6308,-4.6308,-4.6308,-4.6308,-4.6308,-4.6308,-4.6308,-4.6308,-4.6308,-4.6308,-4.6308,-4.6308,-4.6308,-4.6308,-4.6308,-4.6308,-4.6308,-4.6308,-4.6308,-4.6308,-4.6308,-4.6308,-4.6308,-4.6308,-4.6308,-4.6026,-4.548,-4.1816,-3.9068,-3.7879,-3.4686,-3.2124,-3.1772,-3.1677,-3.1677,-3.1677,-3.1677,-3.1677,-3.1677,-3.1677,-3.1677,-3.1677,-3.1677,-3.1677,-3.1677,-3.1677,-3.1677,-3.1677,-3.1677,-3.1677,-3.1677,-3.1677,-3.1677,-3.1677,-3.1569,-3.021,-2.6505,-2.4074,-2.2126,-1.9978,-1.7543,-1.6083,-1.6083,-1.6083,-1.6083,-1.6083,-1.6083,-1.6083,-1.6083,-1.6083,-1.6083,-1.6083,-1.6083,-1.6083,-5.9508,-5.9508,-5.9508,-5.9508,-5.9508,-5.9508,-5.9508,-5.9508,-5.9508,-5.9508,-5.9508,-5.9508,-5.9508,-5.9508,-5.9508,-5.9508,-5.9508,-5.9508,-5.9508,-5.9251,-5.7746,-5.7114,-5.6614,-5.4824,-5.2921,-5.1449,-5.0209,-4.8784,-4.7208,-4.6638,-4.6308,-4.6308,-4.6308,-4.6308,-4.6308,-4.6308,-4.6308,-4.6308,-4.6308,-4.6308,-4.6308,-4.6308,-4.6308,-4.6308,-4.6308,-4.6308,-4.6308,-4.6308,-4.6308,-4.6308,-4.6308,-4.6308,-4.6308,-4.6308,-4.6308,-4.6308,-4.6308,-4.6308,-4.6308,-4.6308,-4.6308,-4.6308,-4.6308,-4.6308,-4.6308,-4.6308,-4.5392,-4.3727,-4.0627,-3.8246,-3.6329,-3.3591,-3.1948,-3.1677,-3.1677,-3.1677,-3.1677,-3.1677,-3.1677,-3.1677,-3.1677,-3.1677,-3.1677,-3.1677,-3.1677,-3.1677,-3.1677,-3.1677,-3.1677,-3.1677,-3.1677,-3.1677,-3.1677,-3.1677,-3.1677,-3.1677,-2.9911,-2.5722,-2.3101,-2.1441,-1.9109,-1.6665,-1.6083,-1.6083,-1.6083,-1.6083,-1.6083,-1.6083,-1.6083,-1.6083,-1.6083,-1.6083,-1.6083,-1.6083,-1.6083,-5.9508,-5.9508,-5.9508,-5.9508,-5.9508,-5.9508,-5.9508,-5.9508,-5.9508,-5.9508,-5.9508,-5.9508,-5.9508,-5.9508,-5.9508,-5.9508,-5.9508,-5.9508,-5.8993,-5.751,-5.4777,-5.3988,-5.3988,-5.2508,-5.0778,-4.9616,-4.8634,-4.7554,-4.6551,-4.6308,-4.6308,-4.6308,-4.6308,-4.6308,-4.6308,-4.6308,-4.6308,-4.6308,-4.6308,-4.6308,-4.6308,-4.6308,-4.6308,-4.6308,-4.6308,-4.6308,-4.6308,-4.6308,-4.6308,-4.6308,-4.6308,-4.6308,-4.6308,-4.6308,-4.6308,-4.6308,-4.6308,-4.6308,-4.6308,-4.6308,-4.6308,-4.6308,-4.6308,-4.6308,-4.6308,-4.6308,-4.5285,-4.2907,-4.0446,-3.7987,-3.5509,-3.3135,-3.1948,-3.1677,-3.1677,-3.1677,-3.1677,-3.1677,-3.1677,-3.1677,-3.1677,-3.1677,-3.1677,-3.1677,-3.1677,-3.1677,-3.1677,-3.1677,-3.1677,-3.1677,-3.1677,-3.1677,-3.1677,-3.1677,-3.1569,-3.1474,-2.9027,-2.4948,-2.1156,-1.9692,-1.8426,-1.6083,-1.6083,-1.6083,-1.6083,-1.6083,-1.6083,-1.6083,-1.6083,-1.6083,-1.6083,-1.6083,-1.6083,-1.6083,-1.6083,-5.9508,-5.9508,-5.9508,-5.9508,-5.9508,-5.9508,-5.9508,-5.9508,-5.9508,-5.9508,-5.9508,-5.9508,-5.9508,-5.9508,-5.9508,-5.9508,-5.9508,-5.8993,-5.7588,-5.5285,-5.2403,-5.1009,-5.2177,-5.0273,-4.9211,-4.8699,-4.7141,-4.6551,-4.6308,-4.6308,-4.6308,-4.6308,-4.6308,-4.6308,-4.6308,-4.6308,-4.6308,-4.6308,-4.6308,-4.6308,-4.6308,-4.6308,-4.6308,-4.6308,-4.6308,-4.6308,-4.6308,-4.6308,-4.6308,-4.6308,-4.6308,-4.6308,-4.6308,-4.6308,-4.6308,-4.6308,-4.6308,-4.6308,-4.6308,-4.6308,-4.6308,-4.6308,-4.6308,-4.6308,-4.6221,-4.5851,-4.4454,-4.1995,-3.9977,-3.7252,-3.4872,-3.2772,-3.1948,-3.1677,-3.1677,-3.1677,-3.1677,-3.1677,-3.1677,-3.1677,-3.1677,-3.1677,-3.1677,-3.1677,-3.1677,-3.1677,-3.1677,-3.1677,-3.1677,-3.1677,-3.1677,-3.1677,-3.1677,-3.1677,-3.1474,-3.1284,-2.7768,-2.3967,-1.9602,-1.7353,-1.7353,-1.6083,-1.6083,-1.6083,-1.6083,-1.6083,-1.6083,-1.6083,-1.6083,-1.6083,-1.6083,-1.6083,-1.6083,-1.6083,-1.6083,-5.9508,-5.9508,-5.9508,-5.9508,-5.9508,-5.9508,-5.9508,-5.9508,-5.9508,-5.9508,-5.9508,-5.9508,-5.9508,-5.9508,-5.9508,-5.9508,-5.9173,-5.777,-5.5711,-5.3415,-5.1009,-4.9871,-4.9871,-4.8138,-4.7208,-4.6967,-4.6638,-4.6308,-4.6308,-4.6308,-4.6308,-4.6308,-4.6308,-4.6308,-4.6308,-4.6308,-4.6308,-4.6308,-4.6308,-4.6308,-4.6308,-4.6308,-4.6308,-4.6308,-4.6308,-4.6308,-4.6308,-4.6308,-4.6308,-4.6308,-4.6308,-4.6308,-4.6308,-4.6308,-4.6308,-4.6308,-4.6308,-4.6308,-4.6308,-4.6308,-4.6308,-4.6308,-4.6308,-4.6308,-4.6114,-4.4454,-4.2532,-3.9994,-3.7528,-3.5338,-3.3135,-3.2124,-3.1758,-3.1677,-3.1677,-3.1677,-3.1677,-3.1677,-3.1677,-3.1677,-3.1677,-3.1677,-3.1677,-3.1677,-3.1677,-3.1677,-3.1677,-3.1677,-3.1677,-3.1677,-3.1677,-3.1677,-3.1677,-3.1677,-3.108,-3.0007,-2.6205,-2.2897,-1.8813,-1.6182,-1.6083,-1.6083,-1.6083,-1.6083,-1.6083,-1.6083,-1.6083,-1.6083,-1.6083,-1.6083,-1.6083,-1.6083,-1.6083,-1.6083,-1.6083,-5.9508,-5.9508,-5.9508,-5.9508,-5.9508,-5.9508,-5.9508,-5.9508,-5.9508,-5.9508,-5.9508,-5.9508,-5.9508,-5.9508,-5.9508,-5.9508,-5.8681,-5.6055,-5.3415,-5.1282,-4.9126,-4.8138,-4.7966,-4.7054,-4.6308,-4.6308,-4.6308,-4.6308,-4.6308,-4.6308,-4.6308,-4.6308,-4.6308,-4.6308,-4.6308,-4.6308,-4.6308,-4.6308,-4.6308,-4.6308,-4.6308,-4.6308,-4.6308,-4.6308,-4.6308,-4.6308,-4.6308,-4.6308,-4.6308,-4.6308,-4.6308,-4.6308,-4.6308,-4.6308,-4.6308,-4.6308,-4.6308,-4.6308,-4.6308,-4.6308,-4.6308,-4.6308,-4.6308,-4.6308,-4.5744,-4.3993,-4.1636,-3.9175,-3.6791,-3.4327,-3.2043,-3.1677,-3.1677,-3.1677,-3.1677,-3.1677,-3.1677,-3.1677,-3.1677,-3.1677,-3.1677,-3.1677,-3.1677,-3.1677,-3.1677,-3.1677,-3.1677,-3.1677,-3.1677,-3.1677,-3.1677,-3.1677,-3.1677,-3.1474,-3.0795,-2.8548,-2.4549,-2.1441,-1.8327,-1.6573,-1.6083,-1.6083,-1.6083,-1.6083,-1.6083,-1.6083,-1.6083,-1.6083,-1.6083,-1.6083,-1.6083,-1.6083,-1.6083,-1.6083,-1.6083,-5.9508,-5.9508,-5.9508,-5.9508,-5.9508,-5.9508,-5.9508,-5.9508,-5.9508,-5.9508,-5.9508,-5.9508,-5.9508,-5.9508,-5.9508,-5.9328,-5.7431,-5.5043,-5.2094,-4.9871,-4.7707,-4.7208,-4.7141,-4.6793,-4.6308,-4.6308,-4.6308,-4.6308,-4.6308,-4.6308,-4.6308,-4.6308,-4.6308,-4.6308,-4.6308,-4.6308,-4.6308,-4.6308,-4.6308,-4.6308,-4.6308,-4.6308,-4.6308,-4.6308,-4.6308,-4.6308,-4.6308,-4.6308,-4.6308,-4.6308,-4.6308,-4.6308,-4.6308,-4.6308,-4.6308,-4.6308,-4.6308,-4.6308,-4.6308,-4.6308,-4.6308,-4.6308,-4.6308,-4.6308,-4.5744,-4.3549,-4.1079,-3.8794,-3.6437,-3.3685,-3.1948,-3.1677,-3.1677,-3.1677,-3.1677,-3.1677,-3.1677,-3.1677,-3.1677,-3.1677,-3.1677,-3.1677,-3.1677,-3.1677,-3.1677,-3.1677,-3.1677,-3.1677,-3.1677,-3.1677,-3.1677,-3.1677,-3.1677,-2.9421,-2.8452,-2.7564,-2.3578,-1.9987,-1.7253,-1.6765,-1.6083,-1.6083,-1.6083,-1.6083,-1.6083,-1.6083,-1.6083,-1.6083,-1.6083,-1.6083,-1.6083,-1.6083,-1.6083,-1.6083,-1.6083,-5.9508,-5.9508,-5.9508,-5.9508,-5.9508,-5.9508,-5.9508,-5.9508,-5.9508,-5.9508,-5.9508,-5.9508,-5.9508,-5.9508,-5.9483,-5.7588,-5.4639,-5.3004,-5.1616,-4.9361,-4.7381,-4.6967,-4.788,-4.688,-4.6308,-4.6308,-4.6308,-4.6308,-4.6308,-4.6308,-4.6308,-4.6308,-4.6308,-4.6308,-4.6308,-4.6308,-4.6308,-4.6308,-4.6308,-4.6308,-4.6308,-4.6308,-4.6308,-4.6308,-4.6308,-4.6308,-4.6308,-4.6308,-4.6308,-4.6308,-4.6308,-4.6308,-4.6308,-4.6308,-4.6308,-4.6308,-4.6308,-4.6308,-4.6308,-4.6308,-4.6308,-4.6308,-4.6308,-4.6201,-4.5197,-4.2353,-3.9704,-3.7712,-3.4966,-3.2219,-3.1758,-3.1677,-3.1677,-3.1677,-3.1677,-3.1677,-3.1677,-3.1677,-3.1677,-3.1677,-3.1677,-3.1677,-3.1677,-3.1677,-3.1677,-3.1677,-3.1677,-3.1677,-3.1677,-3.1677,-3.1677,-3.1677,-3.1677,-2.8548,-2.5625,-2.4948,-2.2702,-1.8912,-1.6573,-1.6573,-1.6083,-1.6083,-1.6083,-1.6083,-1.6083,-1.6083,-1.6083,-1.6083,-1.6083,-1.6083,-1.6083,-1.6083,-1.6083,-1.6083,-1.6083,-5.9508,-5.9508,-5.9508,-5.9508,-5.9508,-5.9508,-5.9508,-5.9508,-5.9508,-5.9508,-5.9508,-5.9508,-5.9508,-5.9251,-5.8163,-5.5366,-5.2508,-5.2508,-5.0946,-4.829,-4.688,-4.6706,-4.788,-4.6726,-4.6464,-4.6308,-4.6308,-4.6308,-4.6308,-4.6308,-4.6308,-4.6308,-4.6308,-4.6308,-4.6308,-4.6308,-4.6308,-4.6308,-4.6308,-4.6308,-4.6308,-4.6308,-4.6308,-4.6308,-4.6308,-4.6308,-4.6308,-4.6308,-4.6308,-4.6308,-4.6308,-4.6308,-4.6308,-4.6308,-4.6308,-4.6308,-4.6308,-4.6308,-4.6308,-4.6308,-4.6308,-4.6308,-4.6221,-4.5568,-4.3993,-4.1169,-3.8079,-3.5338,-3.406,-3.1677,-3.1677,-3.1677,-3.1677,-3.1677,-3.1677,-3.1677,-3.1677,-3.1677,-3.1677,-3.1677,-3.1677,-3.1677,-3.1677,-3.1677,-3.1677,-3.1677,-3.1677,-3.1677,-3.1677,-3.1677,-3.1677,-3.1677,-3.1474,-2.8644,-2.5432,-2.4074,-2.193,-1.8137,-1.6083,-1.6083,-1.6083,-1.6083,-1.6083,-1.6083,-1.6083,-1.6083,-1.6083,-1.6083,-1.6083,-1.6083,-1.6083,-1.6083,-1.6083,-1.6083,-1.6083,-5.9508,-5.9508,-5.9508,-5.9508,-5.9508,-5.9508,-5.9508,-5.9508,-5.9508,-5.9508,-5.9508,-5.9508,-5.9508,-5.907,-5.751,-5.4858,-5.1198,-5.2674,-5.061,-4.7966,-4.6551,-4.6289,-4.6308,-4.6308,-4.6308,-4.6308,-4.6308,-4.6308,-4.6308,-4.6308,-4.6308,-4.6308,-4.6308,-4.6308,-4.6308,-4.6308,-4.6308,-4.6308,-4.6308,-4.6308,-4.6308,-4.6308,-4.6308,-4.6308,-4.6308,-4.6308,-4.6308,-4.6308,-4.6308,-4.6308,-4.6308,-4.6308,-4.6308,-4.6308,-4.6308,-4.6308,-4.6308,-4.6308,-4.6308,-4.6308,-4.6308,-4.6308,-4.5763,-4.4473,-4.264,-3.9886,-3.6421,-3.2772,-3.1677,-3.1677,-3.1677,-3.1677,-3.1677,-3.1677,-3.1677,-3.1677,-3.1677,-3.1677,-3.1677,-3.1677,-3.1677,-3.1677,-3.1677,-3.1677,-3.1677,-3.1677,-3.1677,-3.1677,-3.1677,-3.1677,-3.1677,-3.1677,-3.089,-2.8644,-2.6205,-2.4172,-2.1352,-1.7353,-1.6182,-1.6083,-1.6083,-1.6083,-1.6083,-1.6083,-1.6083,-1.6083,-1.6083,-1.6083,-1.6083,-1.6083,-1.6083,-1.6083,-1.6083,-1.6083,-1.6083,-5.9508,-5.9508,-5.9508,-5.9508,-5.9508,-5.9508,-5.9508,-5.9508,-5.9508,-5.9508,-5.9508,-5.9483,-5.9483,-5.8943,-5.8993,-5.7431,-5.5067,-5.3004,-5.103,-4.8376,-4.6967,-4.6308,-4.6308,-4.6308,-4.6308,-4.6308,-4.6308,-4.6308,-4.6308,-4.6308,-4.6308,-4.6308,-4.6308,-4.6308,-4.6308,-4.6308,-4.6308,-4.6308,-4.6308,-4.6308,-4.6308,-4.6308,-4.6308,-4.6308,-4.6308,-4.6308,-4.6308,-4.6308,-4.6308,-4.6308,-4.6308,-4.6308,-4.6308,-4.6308,-4.6308,-4.6308,-4.6308,-4.6308,-4.6308,-4.6308,-4.6308,-4.5851,-4.4561,-4.3193,-4.0988,-3.8062,-3.4607,-3.2219,-3.1677,-3.1677,-3.1677,-3.1677,-3.1677,-3.1677,-3.1677,-3.1677,-3.1677,-3.1677,-3.1677,-3.1677,-3.1677,-3.1677,-3.1677,-3.1677,-3.1677,-3.1677,-3.1677,-3.1677,-3.1677,-3.1677,-3.1677,-3.1677,-3.1175,-2.9027,-2.6108,-2.4269,-2.1058,-1.6864,-1.6275,-1.6083,-1.6083,-1.6083,-1.6083,-1.6083,-1.6083,-1.6083,-1.6083,-1.6083,-1.6083,-1.6083,-1.6083,-1.6083,-1.6083,-1.6083,-1.6083,-5.9508,-5.9508,-5.9508,-5.9508,-5.9508,-5.9508,-5.9508,-5.9508,-5.9508,-5.9508,-5.9508,-5.9483,-5.8274,-5.68,-5.6921,-5.4777,-5.1594,-5.103,-4.9871,-4.8311,-4.688,-4.6308,-4.6308,-4.6308,-4.6308,-4.6308,-4.6308,-4.6308,-4.6308,-4.6308,-4.6308,-4.6308,-4.6308,-4.6308,-4.6308,-4.6308,-4.6308,-4.6308,-4.6308,-4.6308,-4.6308,-4.6308,-4.6308,-4.6308,-4.6308,-4.6308,-4.6308,-4.6308,-4.6308,-4.6308,-4.6308,-4.6308,-4.6308,-4.6308,-4.6308,-4.6308,-4.6308,-4.6308,-4.6308,-4.6308,-4.6201,-4.5656,-4.3815,-4.1529,-3.8794,-3.5602,-3.3135,-3.1853,-3.1677,-3.1677,-3.1677,-3.1677,-3.1677,-3.1677,-3.1677,-3.1677,-3.1677,-3.1677,-3.1677,-3.1677,-3.1677,-3.1677,-3.1677,-3.1677,-3.1677,-3.1677,-3.1677,-3.1677,-3.1677,-3.1677,-3.1677,-3.1677,-3.089,-2.9721,-2.6505,-2.3783,-2.1058,-1.7642,-1.6175,-1.6083,-1.6083,-1.6083,-1.6083,-1.6083,-1.6083,-1.6083,-1.6083,-1.6083,-1.6083,-1.6083,-1.6083,-1.6083,-1.6083,-1.6083,-1.6083,-5.9508,-5.9508,-5.9508,-5.9508,-5.9508,-5.9508,-5.9508,-5.9508,-5.9508,-5.9508,-5.9328,-5.8915,-5.6952,-5.5024,-5.5202,-5.372,-5.0441,-4.9701,-4.9041,-4.8052,-4.688,-4.6308,-4.6308,-4.6308,-4.6308,-4.6308,-4.6308,-4.6308,-4.6308,-4.6308,-4.6308,-4.6308,-4.6308,-4.6308,-4.6308,-4.6308,-4.6308,-4.6308,-4.6308,-4.6308,-4.6308,-4.6308,-4.6308,-4.6308,-4.6308,-4.6308,-4.6308,-4.6308,-4.6308,-4.6308,-4.6308,-4.6308,-4.6308,-4.6308,-4.6308,-4.6308,-4.6308,-4.6308,-4.6308,-4.6221,-4.6026,-4.4649,-4.2264,-3.852,-3.5245,-3.2597,-3.1677,-3.1677,-3.1677,-3.1677,-3.1677,-3.1677,-3.1677,-3.1677,-3.1677,-3.1677,-3.1677,-3.1677,-3.1677,-3.1677,-3.1677,-3.1677,-3.1677,-3.1677,-3.1677,-3.1677,-3.1677,-3.1677,-3.1677,-3.1677,-3.1677,-3.1677,-3.1189,-2.9625,-2.6012,-2.3092,-2.0371,-1.8228,-1.6765,-1.6083,-1.6083,-1.6083,-1.6083,-1.6083,-1.6083,-1.6083,-1.6083,-1.6083,-1.6083,-1.6083,-1.6083,-1.6083,-1.6083,-1.6083,-1.6083,-5.9508,-5.9508,-5.9508,-5.9508,-5.9508,-5.9508,-5.9508,-5.9508,-5.9508,-5.9508,-5.9251,-5.7692,-5.7667,-5.7327,-5.4997,-5.4801,-5.7248,-5.2177,-5.0526,-4.9701,-4.8634,-4.6638,-4.6308,-4.6308,-4.6308,-4.6308,-4.6308,-4.6308,-4.6308,-4.6308,-4.6308,-4.6308,-4.6308,-4.6308,-4.6308,-4.6308,-4.6308,-4.6308,-4.6308,-4.6308,-4.6308,-4.6308,-4.6308,-4.6308,-4.6308,-4.6308,-4.6308,-4.6308,-4.6308,-4.6308,-4.6308,-4.6308,-4.6308,-4.6308,-4.6308,-4.6308,-4.6308,-4.6308,-4.6308,-4.6114,-4.4933,-4.2353,-3.925,-3.6066,-3.296,-3.2124,-3.1677,-3.1677,-3.1677,-3.1677,-3.1677,-3.1677,-3.1677,-3.1677,-3.1677,-3.1677,-3.1677,-3.1677,-3.1677,-3.1677,-3.1677,-3.1677,-3.1677,-3.1677,-3.1677,-3.1677,-3.1677,-3.1677,-3.1677,-3.1677,-3.1677,-3.1677,-3.1379,-2.9326,-2.5228,-2.24,-2.0239,-1.8213,-1.6474,-1.6083,-1.6083,-1.6083,-1.6083,-1.6083,-1.6083,-1.6083,-1.6083,-1.6083,-1.6083,-1.6083,-1.6083,-1.6083,-1.6083,-1.6083,-1.6083,-5.9508,-5.9508,-5.9508,-5.9508,-5.9508,-5.9508,-5.9508,-5.9508,-5.9508,-5.9508,-5.9405,-5.8603,-5.7124,-5.5427,-5.3997,-5.2011,-5.1344,-4.9191,-4.8548,-4.8225,-4.7054,-4.6396,-4.6308,-4.6308,-4.6308,-4.6308,-4.6308,-4.6308,-4.6308,-4.6308,-4.6308,-4.6308,-4.6308,-4.6308,-4.6308,-4.6308,-4.6308,-4.6308,-4.6308,-4.6308,-4.6308,-4.6308,-4.6308,-4.6308,-4.6308,-4.6308,-4.6308,-4.6308,-4.6308,-4.6308,-4.6308,-4.6308,-4.6308,-4.6308,-4.6308,-4.6308,-4.6308,-4.6308,-4.6221,-4.5939,-4.4561,-4.0988,-3.8429,-3.5788,-3.2124,-3.1772,-3.1677,-3.1677,-3.1677,-3.1677,-3.1677,-3.1677,-3.1677,-3.1677,-3.1677,-3.1677,-3.1677,-3.1677,-3.1677,-3.1677,-3.1677,-3.1677,-3.1677,-3.1677,-3.1677,-3.1677,-3.1677,-3.1677,-3.1677,-3.1677,-3.1677,-3.108,-3.07,-2.8739,-2.4743,-2.2371,-2.0294,-1.8197,-1.6083,-1.6083,-1.6083,-1.6083,-1.6083,-1.6083,-1.6083,-1.6083,-1.6083,-1.6083,-1.6083,-1.6083,-1.6083,-1.6083,-1.6083,-1.6083,-1.6083,-5.9508,-5.9508,-5.9508,-5.9508,-5.9508,-5.9508,-5.9508,-5.9508,-5.9508,-5.9508,-5.9405,-5.8784,-5.7466,-5.4904,-5.2353,-5.1927,-4.9955,-4.8052,-4.7228,-4.7054,-4.6967,-4.6376,-4.6308,-4.6308,-4.6308,-4.6308,-4.6308,-4.6308,-4.6308,-4.6308,-4.6308,-4.6308,-4.6308,-4.6308,-4.6308,-4.6308,-4.6308,-4.6308,-4.6308,-4.6308,-4.6308,-4.6308,-4.6308,-4.6308,-4.6308,-4.6308,-4.6308,-4.6308,-4.6308,-4.6308,-4.6308,-4.6308,-4.6308,-4.6308,-4.6308,-4.6308,-4.6308,-4.6308,-4.6114,-4.4384,-4.2729,-3.9704,-3.6975,-3.4701,-3.2772,-3.1677,-3.1677,-3.1677,-3.1677,-3.1677,-3.1677,-3.1677,-3.1677,-3.1677,-3.1677,-3.1677,-3.1677,-3.1677,-3.1677,-3.1677,-3.1677,-3.1677,-3.1677,-3.1677,-3.1677,-3.1677,-3.1677,-3.1677,-3.1677,-3.1677,-3.1677,-3.0795,-2.9721,-2.7191,-2.4366,-2.1991,-1.9625,-1.7719,-1.6083,-1.6083,-1.6083,-1.6083,-1.6083,-1.6083,-1.6083,-1.6083,-1.6083,-1.6083,-1.6083,-1.6083,-1.6083,-1.6083,-1.6083,-1.6083,-1.6083,-5.9508,-5.9508,-5.9508,-5.9508,-5.9508,-5.9508,-5.9508,-5.9508,-5.9508,-5.9508,-5.9251,-5.7716,-5.7613,-5.7004,-5.2839,-5.1678,-5.2011,-4.8634,-4.7054,-4.788,-4.6967,-4.6396,-4.6308,-4.6308,-4.6308,-4.6308,-4.6308,-4.6308,-4.6308,-4.6308,-4.6308,-4.6308,-4.6308,-4.6308,-4.6308,-4.6308,-4.6308,-4.6308,-4.6308,-4.6308,-4.6308,-4.6308,-4.6308,-4.6308,-4.6308,-4.6308,-4.6308,-4.6308,-4.6308,-4.6308,-4.6308,-4.6308,-4.6308,-4.6308,-4.6308,-4.6308,-4.6308,-4.6221,-4.5939,-4.1816,-3.9795,-3.8703,-3.6344,-3.3135,-3.2043,-3.1677,-3.1677,-3.1677,-3.1677,-3.1677,-3.1677,-3.1677,-3.1677,-3.1677,-3.1677,-3.1677,-3.1677,-3.1677,-3.1677,-3.1677,-3.1677,-3.1677,-3.1677,-3.1677,-3.1677,-3.1677,-3.1677,-3.1677,-3.1677,-3.1677,-3.1677,-3.0401,-2.9039,-2.6505,-2.387,-2.1307,-1.906,-1.714,-1.6083,-1.6083,-1.6083,-1.6083,-1.6083,-1.6083,-1.6083,-1.6083,-1.6083,-1.6083,-1.6083,-1.6083,-1.6083,-1.6083,-1.6083,-1.6083,-1.6083,-5.9508,-5.9508,-5.9508,-5.9508,-5.9508,-5.9508,-5.9508,-5.9508,-5.9508,-5.9508,-5.9405,-5.8603,-5.7692,-5.6271,-5.4069,-5.2011,-5.0946,-4.8955,-4.7141,-4.7228,-4.6551,-4.6376,-4.6308,-4.6308,-4.6308,-4.6308,-4.6308,-4.6308,-4.6308,-4.6308,-4.6308,-4.6308,-4.6308,-4.6308,-4.6308,-4.6308,-4.6308,-4.6308,-4.6308,-4.6308,-4.6308,-4.6308,-4.6308,-4.6308,-4.6308,-4.6308,-4.6308,-4.6308,-4.6308,-4.6308,-4.6308,-4.6308,-4.6308,-4.6308,-4.6308,-4.6308,-4.6221,-4.5373,-4.3815,-4.0898,-3.925,-3.7803,-3.5881,-3.2947,-3.2043,-3.1772,-3.1677,-3.1677,-3.1677,-3.1677,-3.1677,-3.1677,-3.1677,-3.1677,-3.1677,-3.1677,-3.1677,-3.1677,-3.1677,-3.1677,-3.1677,-3.1677,-3.1677,-3.1677,-3.1677,-3.1677,-3.1677,-3.1677,-3.1677,-3.1677,-3.1569,-3.0007,-2.8344,-2.5915,-2.3384,-2.0345,-1.8395,-1.6758,-1.6083,-1.6083,-1.6083,-1.6083,-1.6083,-1.6083,-1.6083,-1.6083,-1.6083,-1.6083,-1.6083,-1.6083,-1.6083,-1.6083,-1.6083,-1.6083,-1.6083,-5.9508,-5.9508,-5.9508,-5.9508,-5.9508,-5.9508,-5.9508,-5.9508,-5.9508,-5.9508,-5.9508,-5.9483,-5.8837,-5.7011,-5.5043,-5.2839,-5.061,-4.8548,-4.6551,-4.6464,-4.6308,-4.6308,-4.6308,-4.6308,-4.6308,-4.6308,-4.6308,-4.6308,-4.6308,-4.6308,-4.6308,-4.6308,-4.6308,-4.6308,-4.6308,-4.6308,-4.6308,-4.6308,-4.6308,-4.6308,-4.6308,-4.6308,-4.6308,-4.6308,-4.6308,-4.6308,-4.6308,-4.6308,-4.6308,-4.6308,-4.6289,-4.6289,-4.6289,-4.6289,-4.6289,-4.6308,-4.6114,-4.5021,-4.2818,-4.0446,-3.8811,-3.7344,-3.5416,-3.3497,-3.2043,-3.1772,-3.1677,-3.1677,-3.1677,-3.1677,-3.1677,-3.1677,-3.165,-3.165,-3.1623,-3.1623,-3.1623,-3.1623,-3.161,-3.1623,-3.161,-3.1623,-3.1637,-3.1677,-3.1677,-3.1677,-3.1677,-3.1677,-3.1677,-3.1677,-3.1175,-2.9326,-2.7276,-2.4646,-2.193,-1.8912,-1.7246,-1.6275,-1.6083,-1.6083,-1.6083,-1.6083,-1.6083,-1.6083,-1.6083,-1.6083,-1.6083,-1.6083,-1.6083,-1.6083,-1.6083,-1.6083,-1.6083,-1.6083,-1.6083,-5.9508,-5.9508,-5.9508,-5.9508,-5.9508,-5.9508,-5.9508,-5.9508,-5.9508,-5.9508,-5.9508,-5.9508,-5.9251,-5.8915,-5.7035,-5.4905,-5.2674,-5.0441,-4.8462,-4.6967,-4.6551,-4.6376,-4.6308,-4.6308,-4.6308,-4.6308,-4.6308,-4.6308,-4.6308,-4.6308,-4.6308,-4.6308,-4.6308,-4.6308,-4.6308,-4.6308,-4.6308,-4.6308,-4.6308,-4.6308,-4.6308,-4.6308,-4.6308,-4.6308,-4.6308,-4.6308,-4.6308,-4.6308,-4.6308,-4.6289,-4.6269,-4.625,-4.6269,-4.6269,-4.6269,-4.6211,-4.6133,-4.4215,-4.1996,-3.9503,-3.717,-3.5207,-3.3276,-3.1975,-3.1772,-3.1677,-3.1677,-3.1677,-3.1677,-3.1677,-3.1677,-3.1637,-3.1597,-3.157,-3.1543,-3.1543,-3.153,-3.153,-3.1517,-3.1517,-3.1503,-3.149,-3.1476,-3.1503,-3.153,-3.157,-3.1583,-3.1677,-3.1677,-3.1677,-3.07,-2.8356,-2.6108,-2.3286,-2.047,-1.8038,-1.6864,-1.6083,-1.6083,-1.6083,-1.6083,-1.6083,-1.6083,-1.6083,-1.6083,-1.6083,-1.6083,-1.6083,-1.6083,-1.6083,-1.6083,-1.6083,-1.6083,-1.6083,-1.6083,-5.9508,-5.9508,-5.9508,-5.9508,-5.9508,-5.9508,-5.9508,-5.9508,-5.9508,-5.9508,-5.9508,-5.9508,-5.9508,-5.9251,-5.7218,-5.5975,-5.3988,-5.1761,-4.9786,-4.8376,-4.7295,-4.6638,-4.6308,-4.6396,-4.6308,-4.6308,-4.6308,-4.6308,-4.6308,-4.6308,-4.6308,-4.6308,-4.6308,-4.6308,-4.6308,-4.6308,-4.6308,-4.6308,-4.6308,-4.6308,-4.6308,-4.6308,-4.6308,-4.6308,-4.6308,-4.6289,-4.625,-4.625,-4.625,-4.623,-4.5996,-4.5879,-4.5859,-4.5617,-4.5375,-4.5176,-4.3908,-4.1792,-3.9375,-3.7051,-3.4863,-3.3101,-3.1554,-3.1611,-3.1503,-3.1623,-3.161,-3.1557,-3.1543,-3.1517,-3.1463,-3.1423,-3.1383,-3.1343,-3.1289,-3.1209,-3.1209,-3.1209,-3.1196,-3.1209,-3.1196,-3.1209,-3.1209,-3.1276,-3.1316,-3.1396,-3.149,-3.1597,-3.1379,-3.1284,-2.9911,-2.7384,-2.4948,-2.2126,-2.0077,-1.7741,-1.6864,-1.6083,-1.6083,-1.6083,-1.6083,-1.6083,-1.6083,-1.6083,-1.6083,-1.6083,-1.6083,-1.6083,-1.6083,-1.6083,-1.6083,-1.6083,-1.6083,-1.6083,-1.6083,-5.9508,-5.9508,-5.9508,-5.9508,-5.9508,-5.9508,-5.9508,-5.9508,-5.9508,-5.9508,-5.9508,-5.9508,-5.9508,-5.9328,-5.8187,-5.7035,-5.5871,-5.3988,-5.2094,-5.0441,-4.8548,-4.8052,-4.7554,-4.6726,-4.6308,-4.6308,-4.6308,-4.6308,-4.6308,-4.6308,-4.6308,-4.6308,-4.6308,-4.6308,-4.6308,-4.6308,-4.6308,-4.6308,-4.6308,-4.6308,-4.6308,-4.6308,-4.6308,-4.6289,-4.6289,-4.6211,-4.6074,-4.6055,-4.5996,-4.584,-4.5488,-4.543,-4.541,-4.5188,-4.5024,-4.4667,-4.3042,-4.0824,-3.843,-3.6005,-3.3398,-3.1583,-3.0768,-3.0969,-3.1129,-3.1236,-3.1249,-3.1236,-3.1276,-3.1289,-3.1236,-3.1169,-3.1116,-3.1049,-3.0942,-3.0822,-3.0808,-3.0822,-3.0822,-3.0822,-3.0835,-3.0835,-3.0889,-3.0996,-3.1129,-3.1263,-3.1383,-3.149,-3.092,-3.021,-2.8356,-2.5926,-2.3491,-2.1049,-1.9109,-1.7444,-1.6765,-1.6083,-1.6083,-1.6083,-1.6083,-1.6083,-1.6083,-1.6083,-1.6083,-1.6083,-1.6083,-1.6083,-1.6083,-1.6083,-1.6083,-1.6083,-1.6083,-1.6083,-1.6083,-5.9508,-5.9508,-5.9508,-5.9508,-5.9508,-5.9508,-5.9508,-5.9508,-5.9508,-5.9508,-5.9508,-5.9508,-5.9508,-5.9405,-5.9018,-5.8163,-5.7114,-5.5631,-5.4314,-5.2921,-5.0188,-4.9126,-4.8462,-4.7468,-4.6464,-4.6308,-4.6308,-4.6308,-4.6308,-4.6308,-4.6308,-4.6308,-4.6308,-4.6308,-4.6308,-4.6308,-4.6308,-4.6308,-4.6308,-4.6308,-4.6308,-4.6308,-4.6289,-4.623,-4.6152,-4.6055,-4.5742,-4.5566,-4.5449,-4.5176,-4.5,-4.5,-4.4863,-4.4844,-4.4805,-4.3747,-4.1971,-3.9861,-3.7375,-3.4904,-3.2818,-3.1354,-3.0728,-3.0675,-3.0702,-3.0929,-3.0982,-3.0996,-3.1036,-3.1036,-3.0996,-3.0875,-3.0782,-3.0715,-3.0608,-3.0528,-3.0488,-3.0488,-3.0488,-3.0488,-3.0488,-3.0501,-3.0541,-3.0635,-3.0782,-3.1022,-3.1276,-3.1396,-3.0437,-2.9276,-2.7095,-2.4657,-2.2419,-2.0175,-1.7939,-1.6566,-1.6474,-1.6083,-1.6083,-1.6083,-1.6083,-1.6083,-1.6083,-1.6083,-1.6083,-1.6083,-1.6083,-1.6083,-1.6083,-1.6083,-1.6083,-1.6083,-1.6083,-1.6083,-1.6083,-5.9508,-5.9508,-5.9508,-5.9508,-5.9508,-5.9508,-5.9508,-5.9508,-5.9508,-5.9508,-5.9508,-5.9508,-5.9508,-5.9508,-5.9508,-5.8915,-5.85,-5.7114,-5.6032,-5.4314,-5.1844,-5.0357,-4.9297,-4.7794,-4.6638,-4.6308,-4.6308,-4.6308,-4.6308,-4.6308,-4.6308,-4.6308,-4.6308,-4.6308,-4.6308,-4.6308,-4.6289,-4.623,-4.623,-4.6191,-4.6172,-4.6191,-4.6191,-4.5957,-4.5781,-4.5586,-4.5332,-4.5156,-4.5137,-4.5019,-4.4687,-4.4394,-4.4043,-4.4043,-4.4043,-4.3337,-4.04,-3.8251,-3.625,-3.3739,-3.1277,-3.0619,-3.0167,-3.014,-3.0261,-3.0581,-3.0755,-3.0755,-3.0755,-3.0742,-3.0702,-3.0568,-3.0461,-3.0381,-3.0301,-3.0234,-3.0167,-3.0167,-3.0181,-3.0167,-3.0167,-3.0194,-3.0234,-3.0314,-3.0461,-3.0728,-3.1076,-3.0901,-2.9551,-2.8308,-2.6194,-2.3783,-2.1637,-1.9396,-1.7154,-1.6083,-1.6083,-1.6083,-1.6083,-1.6083,-1.6083,-1.6083,-1.6083,-1.6083,-1.6083,-1.6083,-1.6083,-1.6083,-1.6083,-1.6083,-1.6083,-1.6083,-1.6083,-1.6083,-1.6083,-5.9508,-5.9508,-5.9508,-5.9508,-5.9508,-5.9508,-5.9508,-5.9508,-5.9508,-5.9508,-5.9508,-5.9508,-5.9508,-5.9508,-5.9508,-5.9508,-5.9328,-5.8344,-5.7849,-5.6534,-5.4128,-5.2425,-5.061,-4.8548,-4.7295,-4.6726,-4.6376,-4.6308,-4.6308,-4.6308,-4.6308,-4.6308,-4.6308,-4.6289,-4.6289,-4.6289,-4.6191,-4.6016,-4.6016,-4.5937,-4.5859,-4.5859,-4.5781,-4.5527,-4.5332,-4.5117,-4.4902,-4.4726,-4.4609,-4.4492,-4.418,-4.4043,-4.3828,-4.3789,-4.3131,-4.1593,-3.9108,-3.6399,-3.4679,-3.2425,-3.0003,-2.9913,-2.9913,-2.9993,-2.9993,-3.0287,-3.0301,-3.0301,-3.0301,-3.0287,-3.0287,-3.0194,-3.0167,-3.0114,-3.0087,-3.0047,-3.002,-3.002,-3.002,-3.002,-3.002,-3.002,-3.006,-3.0074,-3.0234,-3.0488,-3.0835,-3.0942,-2.952,-2.7198,-2.5078,-2.2809,-2.0568,-1.8714,-1.6765,-1.6083,-1.6083,-1.6083,-1.6083,-1.6083,-1.6083,-1.6083,-1.6083,-1.6083,-1.6083,-1.6083,-1.6083,-1.6083,-1.6083,-1.6083,-1.6083,-1.6083,-1.6083,-1.6083,-1.6083,-5.9508,-5.9508,-5.9508,-5.9508,-5.9508,-5.9508,-5.9508,-5.9508,-5.9508,-5.9508,-5.9508,-5.9508,-5.9508,-5.9508,-5.9508,-5.9508,-5.9405,-5.9095,-5.9251,-5.85,-5.6271,-5.3906,-5.1761,-5.004,-4.7966,-4.6726,-4.6396,-4.6308,-4.6308,-4.6308,-4.6308,-4.6308,-4.6289,-4.6269,-4.623,-4.6172,-4.6016,-4.5703,-4.5527,-4.5332,-4.5312,-4.5351,-4.5254,-4.5098,-4.4902,-4.4707,-4.4453,-4.4238,-4.4043,-4.3945,-4.3808,-4.3769,-4.373,-4.3609,-4.2307,-4.0764,-3.8459,-3.5967,-3.3731,-3.1479,-3.0348,-2.9913,-2.9913,-2.9913,-2.9913,-2.9927,-2.9953,-2.9953,-2.9953,-2.9953,-2.9953,-2.9953,-2.994,-2.994,-2.9927,-2.9913,-2.9913,-2.9913,-2.9913,-2.9913,-2.9913,-2.9913,-2.9913,-2.9927,-3.006,-3.0314,-3.049,-3.0571,-2.9781,-2.677,-2.4141,-2.1646,-1.9207,-1.7551,-1.6275,-1.6083,-1.6083,-1.6083,-1.6083,-1.6083,-1.6083,-1.6083,-1.6083,-1.6083,-1.6083,-1.6083,-1.6083,-1.6083,-1.6083,-1.6083,-1.6083,-1.6083,-1.6083,-1.6083,-1.6083,-5.9508,-5.9508,-5.9508,-5.9508,-5.9508,-5.9508,-5.9508,-5.9508,-5.9508,-5.9508,-5.9508,-5.9508,-5.9508,-5.9508,-5.9508,-5.9508,-5.9508,-5.9508,-5.9508,-5.8993,-5.6431,-5.4232,-5.1927,-4.9297,-4.7228,-4.6464,-4.6308,-4.6308,-4.6308,-4.6308,-4.6289,-4.625,-4.6269,-4.6133,-4.5801,-4.5723,-4.5605,-4.5293,-4.5098,-4.4941,-4.4746,-4.4766,-4.4824,-4.4687,-4.4512,-4.4219,-4.3965,-4.3848,-4.3789,-4.373,-4.3691,-4.3691,-4.3526,-4.3259,-4.189,-3.9818,-3.7604,-3.5288,-3.2955,-3.1048,-3.0093,-2.9913,-2.9913,-2.9913,-2.9913,-2.9913,-2.9927,-2.9927,-2.9927,-2.9927,-2.9927,-2.9927,-2.9927,-2.9927,-2.9913,-2.9913,-2.9913,-2.9913,-2.9913,-2.9913,-2.9913,-2.9913,-2.9913,-2.9913,-2.9927,-3.0207,-3.0541,-3.0333,-2.847,-2.5799,-2.3296,-2.0666,-1.8129,-1.7062,-1.6083,-1.6083,-1.6083,-1.6083,-1.6083,-1.6083,-1.6083,-1.6083,-1.6083,-1.6083,-1.6083,-1.6083,-1.6083,-1.6083,-1.6083,-1.6083,-1.6083,-1.6083,-1.6083,-1.6083,-1.6083]}]]